GFSSW_sfc_wetblb_048.txt.gz
Wetbulb
55.59 55.13 55.36 55.11 54.76 54.17 53.98 53.89 53.56 53.71 53.84 54.06 54.34 54.47 55.34 54.78 54.64 52.28 45.99 51.34 54.34 59.72 57.93 49.40 47.20 46.19 44.62 42.69 42.17 40.05 34.63 31.29 33.57 35.01 38.44 45.97 45.91 48.92 51.71 50.76 53.96 55.35 56.19 57.29 59.72
54.71 54.52 54.93 54.82 55.14 54.84 54.49 54.38 54.02 53.44 54.16 54.14 53.93 54.58 55.38 54.95 51.71 48.84 54.07 59.82 60.72 61.15 49.22 47.16 45.27 44.86 41.98 40.70 40.78 38.59 33.74 35.51 39.74 39.83 40.74 43.94 47.40 49.45 49.78 49.20 51.28 51.67 57.33 59.08 59.87
53.56 53.84 53.88 54.01 54.12 55.04 54.97 54.52 53.95 54.06 54.34 54.32 54.44 54.61 54.57 54.55 47.04 43.98 60.61 60.64 61.37 59.16 49.01 47.38 48.79 45.92 40.95 40.13 40.07 37.56 36.82 39.96 41.96 42.75 42.19 42.99 47.57 50.81 47.21 45.28 48.59 50.16 53.80 57.79 58.56
53.11 53.04 53.37 53.40 53.65 53.66 54.04 53.99 54.36 54.62 54.30 54.32 53.87 54.33 54.53 52.30 35.00 49.43 61.27 62.09 62.35 53.76 48.51 47.61 46.80 42.38 38.99 38.88 41.22 37.34 41.38 41.35 42.69 42.45 42.48 46.70 49.07 47.50 46.43 47.70 50.24 52.21 55.37 56.50 56.73
53.22 53.17 53.21 53.03 52.93 53.19 53.70 53.57 53.68 53.83 54.10 53.83 53.64 53.72 50.95 45.03 44.67 51.91 60.52 60.80 55.12 49.98 46.83 46.53 44.52 41.74 38.83 39.85 41.49 39.13 41.59 44.07 44.78 44.51 44.24 50.59 49.33 49.91 49.88 51.08 53.60 55.35 55.91 54.54 56.24
53.02 53.37 53.29 53.00 52.90 52.77 53.29 53.24 52.98 53.10 53.47 53.36 53.66 53.31 48.23 38.57 48.48 51.65 50.65 52.90 49.60 47.67 47.12 47.07 45.69 45.53 42.12 41.43 41.40 43.89 43.56 43.67 43.49 44.04 50.75 49.01 49.38 49.58 51.18 53.50 52.57 54.98 55.20 54.41 55.27
53.76 53.27 52.89 52.53 53.23 53.20 53.20 52.89 52.37 52.31 52.62 52.68 53.68 50.78 44.93 42.00 49.29 49.82 50.61 48.38 48.50 47.51 45.30 47.40 47.48 44.55 44.04 41.89 45.47 44.44 40.55 41.94 41.96 41.59 47.09 50.00 44.27 47.25 52.01 53.18 52.08 53.13 54.55 55.35 56.15
53.75 53.72 53.59 52.93 52.98 53.04 52.87 52.48 52.23 52.14 52.48 52.65 53.24 49.46 41.45 51.56 50.37 50.57 48.85 49.21 50.68 49.79 48.89 48.92 47.83 45.48 43.57 44.78 43.07 39.64 38.78 34.76 39.63 44.10 45.09 45.72 38.72 42.46 52.38 52.29 50.99 52.88 53.53 53.67 54.65
53.80 53.59 53.47 53.14 52.94 52.53 52.53 52.22 51.85 52.15 52.90 53.21 48.65 46.61 40.54 53.48 49.71 52.09 51.05 47.57 48.25 50.05 49.27 52.00 47.29 43.21 43.01 38.24 35.55 35.37 30.95 33.35 37.69 41.94 43.08 41.28 40.01 43.87 51.90 52.72 50.84 50.81 51.98 52.13 52.66
53.28 53.14 53.10 53.08 52.92 52.48 51.95 51.42 51.01 51.31 50.61 50.91 51.07 41.02 43.71 41.72 49.03 51.00 51.28 50.36 46.64 47.94 47.06 45.50 42.78 38.16 36.79 35.65 29.89 31.78 31.63 31.67 33.82 37.35 41.76 40.34 40.89 43.29 51.30 51.70 51.37 49.77 49.78 51.01 51.19
52.83 52.95 53.04 52.81 52.78 52.35 49.46 44.62 40.23 40.14 42.12 42.31 43.30 42.48 45.86 51.78 53.34 50.20 50.15 47.72 45.69 45.63 40.20 42.47 37.47 35.30 36.34 38.17 37.52 36.68 34.57 32.94 35.82 39.39 38.92 38.22 38.73 42.34 48.73 50.70 49.86 49.37 48.68 49.47 50.53
52.61 52.57 52.73 52.67 52.68 52.03 46.26 41.95 43.02 43.58 37.50 43.64 43.07 43.16 46.26 48.88 43.95 45.25 50.34 43.24 42.14 38.67 41.55 38.05 36.70 39.75 41.52 39.93 38.67 37.13 34.48 34.08 37.83 40.57 39.44 37.28 39.21 40.92 45.37 48.86 51.06 50.06 49.01 48.66 49.79
52.14 52.57 52.61 52.19 51.89 46.06 42.99 44.52 48.33 46.62 38.86 40.15 43.46 42.46 43.65 44.93 41.55 42.91 48.04 44.20 40.80 38.79 40.10 37.40 39.05 42.64 41.01 38.67 37.26 36.19 34.50 34.75 35.84 38.17 39.10 38.65 37.94 40.20 44.14 46.52 50.56 51.03 49.91 49.37 49.09
51.63 52.11 51.85 51.57 44.80 43.57 41.07 47.03 47.47 46.85 31.96 33.24 38.70 42.03 44.62 45.43 40.39 47.55 48.58 45.19 41.60 38.65 40.02 39.18 43.10 40.36 38.55 38.33 38.76 33.49 39.36 39.34 37.65 35.17 31.18 37.91 29.68 36.82 39.72 43.13 46.56 49.10 50.31 49.30 48.29
51.33 51.76 51.64 51.63 42.56 40.99 43.47 47.52 46.89 46.16 16.40 35.19 39.59 46.16 46.23 39.65 39.58 43.56 48.31 44.42 39.28 40.30 40.90 37.75 39.29 39.66 37.67 38.60 40.64 37.57 41.00 39.17 38.58 34.61 32.29 33.64 30.67 35.04 41.64 40.65 43.47 45.63 49.02 50.95 49.95
51.14 51.28 51.66 47.88 47.11 45.17 45.70 44.52 46.05 31.17 18.20 31.04 39.49 39.92 39.88 40.67 39.64 43.46 42.59 45.32 44.27 40.99 40.74 40.59 43.19 41.79 41.96 42.70 42.16 43.00 40.07 38.74 36.76 34.21 27.51 33.62 32.15 31.98 35.87 41.65 43.18 45.74 47.43 49.70 50.82
50.81 50.85 49.76 47.96 42.31 43.67 43.65 43.05 31.50 23.98 34.95 31.88 33.40 38.47 38.22 36.85 37.51 39.55 37.48 37.16 36.25 33.39 32.69 37.73 40.30 42.76 43.60 39.43 40.57 39.74 35.00 28.25 26.73 26.30 26.82 34.78 31.25 35.45 39.79 42.03 44.55 45.31 46.54 47.95 50.53
49.81 49.93 48.86 49.12 45.79 44.97 41.65 36.32 24.72 30.55 30.62 36.44 36.07 36.39 35.07 37.80 36.82 39.32 35.49 32.49 37.93 37.11 33.58 31.75 29.24 39.64 43.06 41.08 38.31 36.80 35.78 28.33 24.90 24.67 27.65 34.66 30.18 36.57 42.98 44.59 45.10 46.33 47.06 47.33 48.16
49.29 44.10 44.44 47.31 46.47 45.38 36.45 26.29 26.43 30.49 34.84 32.97 34.01 31.13 32.65 35.78 37.65 37.32 35.78 34.24 37.35 39.59 34.73 32.00 32.82 40.41 42.39 43.64 43.24 37.87 32.98 38.91 31.40 30.40 27.66 30.37 34.81 40.50 43.06 43.50 44.01 45.04 45.41 46.30 47.14
42.95 43.44 42.89 47.58 47.71 43.52 33.04 26.90 31.31 36.55 36.21 35.04 28.29 32.06 28.54 31.44 32.66 33.96 35.95 39.58 37.96 40.09 41.00 37.25 32.02 39.54 41.58 42.26 41.14 39.99 40.75 32.33 30.70 26.01 24.89 28.49 30.17 32.66 37.94 41.78 43.27 42.90 43.86 46.19 47.24
42.58 38.14 45.54 47.83 47.27 38.62 28.02 28.85 31.53 35.89 36.82 33.37 31.93 30.25 30.76 30.35 31.68 31.15 33.45 40.10 42.61 41.49 39.76 37.72 34.97 34.72 39.44 37.36 36.26 36.32 34.89 35.20 35.01 30.86 25.96 24.75 28.45 38.87 40.89 41.78 42.32 43.88 44.61 44.28 47.13
40.66 32.51 45.84 47.26 35.39 34.11 29.90 32.03 36.30 34.47 38.15 35.62 35.49 33.93 31.96 32.78 30.65 31.48 32.22 38.40 44.96 44.02 38.49 41.13 34.38 28.74 34.27 40.33 41.27 38.03 36.21 36.46 29.68 29.54 30.24 26.77 31.49 41.66 42.09 42.73 43.43 44.36 46.15 45.40 46.83
36.40 36.53 45.87 45.21 30.31 30.53 33.41 32.72 33.14 33.83 34.66 34.61 33.67 34.97 35.71 31.44 28.23 32.64 36.21 42.56 42.90 43.27 40.75 41.20 36.60 28.98 31.09 35.66 39.46 36.42 37.14 38.30 36.02 32.97 29.11 25.73 29.94 43.24 42.34 42.32 44.00 43.64 44.94 44.82 44.11
35.41 29.58 37.67 40.31 38.47 33.42 31.72 30.91 29.88 34.75 33.60 34.83 34.15 35.14 33.08 31.25 33.35 31.16 32.76 38.58 43.58 44.36 45.58 43.73 38.17 33.15 30.16 33.74 36.82 34.07 35.91 37.43 36.56 28.19 29.10 31.75 33.06 38.94 42.02 42.27 43.28 43.90 44.35 45.16 44.17
35.39 31.30 37.07 30.95 32.37 34.19 33.95 32.75 30.10 29.89 34.49 34.64 31.73 32.36 31.21 27.77 28.89 28.72 33.82 35.59 38.47 43.61 42.47 40.42 32.57 35.76 37.94 38.43 36.98 36.01 35.01 35.71 33.71 34.77 30.68 33.96 34.72 38.27 41.09 42.76 44.67 44.99 44.82 44.61 45.01
31.98 33.14 36.27 35.43 35.82 33.97 33.64 31.37 30.85 31.92 33.01 31.41 30.41 33.36 32.66 29.32 30.46 28.44 31.52 31.25 31.70 36.48 38.35 39.83 30.53 34.48 31.59 37.33 36.76 33.44 35.30 35.75 36.62 36.88 35.92 36.47 36.09 41.10 43.87 43.17 42.79 44.41 44.72 44.92 44.86
39.49 40.18 37.81 33.31 34.55 32.65 32.13 32.36 32.03 34.20 35.11 35.15 33.93 32.14 30.61 32.91 34.73 35.77 34.95 35.15 34.19 32.93 33.29 35.74 33.88 31.40 27.05 32.87 32.79 27.33 31.89 35.45 35.92 37.00 36.99 32.63 37.60 42.52 42.32 42.95 43.36 44.53 44.70 44.97 45.85

GFSSW_sfc_wetblb_051.txt.gz
Wetbulb
54.66 54.62 54.49 54.50 55.28 55.66 55.28 55.23 54.80 54.34 53.92 54.00 54.02 54.11 54.61 55.21 54.54 52.26 47.84 51.75 55.02 59.69 57.83 51.31 51.15 50.95 50.11 48.66 48.02 46.59 43.29 40.17 40.98 40.87 43.79 48.56 49.41 52.86 55.05 53.61 55.22 56.65 56.98 58.42 60.17
53.39 53.64 53.82 54.02 54.61 54.78 54.99 54.80 54.82 54.91 54.54 54.76 54.63 54.49 54.93 54.72 51.57 48.42 54.21 58.53 59.75 61.18 50.99 49.86 47.03 48.55 47.20 47.21 47.12 46.10 42.21 42.11 44.76 44.88 45.36 46.96 49.75 50.94 52.36 51.51 52.22 54.80 57.80 59.36 59.75
53.51 53.39 53.48 53.40 53.54 54.20 54.30 54.32 54.20 53.50 53.76 54.63 54.61 54.80 54.52 53.94 46.69 45.23 61.40 61.34 60.81 60.75 52.14 51.24 49.80 49.80 46.78 46.32 45.82 44.42 43.02 44.25 45.41 46.46 46.55 45.37 48.00 53.63 52.13 49.77 52.14 53.25 55.53 58.38 58.76
53.08 53.18 53.25 53.44 53.29 53.65 53.74 53.74 53.54 52.82 52.91 53.32 53.64 54.24 54.25 52.59 35.66 50.17 61.18 62.20 61.88 58.52 51.14 51.04 49.74 47.64 45.56 44.29 45.91 42.92 44.90 45.37 46.27 46.78 46.63 45.74 52.05 51.46 51.78 51.89 53.51 55.13 57.35 57.95 57.48
53.04 52.87 52.90 52.92 52.81 53.27 53.73 53.58 53.52 52.66 52.38 52.37 53.14 53.90 50.85 44.39 42.83 51.71 56.72 59.38 58.17 52.57 49.67 48.92 48.39 45.91 43.89 44.38 44.32 43.04 44.90 45.57 47.40 47.31 46.81 51.86 51.34 51.91 51.97 54.00 55.84 57.20 57.35 55.79 56.78
53.60 53.64 53.38 53.20 52.87 53.14 53.44 53.37 53.14 53.04 52.63 52.11 52.56 53.46 47.54 38.24 48.91 52.51 51.30 51.51 53.15 50.19 49.34 49.29 48.44 48.20 45.57 44.72 44.51 46.75 45.64 47.28 47.59 47.58 51.90 50.06 51.36 54.02 53.56 55.70 55.49 56.65 55.54 55.88 55.99
53.85 53.99 53.91 53.64 53.70 53.64 53.41 53.10 52.80 52.81 52.71 52.25 52.14 50.95 43.79 40.81 50.22 50.80 50.97 50.34 51.41 50.14 48.17 49.67 50.58 48.22 48.02 45.51 47.78 47.25 44.57 45.99 46.07 47.05 49.49 53.35 49.00 50.07 54.53 55.62 54.70 55.14 54.81 55.43 56.08
53.19 53.41 53.31 53.60 53.62 53.44 53.37 52.90 52.70 52.88 52.77 52.47 52.38 49.45 40.58 50.68 52.37 51.18 51.05 49.87 51.15 51.26 50.20 51.18 51.09 48.91 47.86 48.59 45.88 44.40 43.33 40.67 44.54 47.20 48.74 50.61 43.43 47.92 54.64 54.50 53.70 54.57 54.60 54.63 55.13
52.61 53.06 52.88 52.92 52.87 53.07 53.05 52.72 52.42 52.26 53.43 52.84 49.15 45.92 38.82 52.75 49.61 52.51 51.15 48.30 49.31 50.47 51.23 52.24 50.11 46.87 46.74 43.65 41.72 40.81 38.41 38.43 41.28 45.95 47.49 47.64 45.07 48.01 54.40 54.12 53.58 53.90 54.02 54.26 54.02
52.09 52.80 52.88 52.66 52.56 52.36 52.18 51.83 51.12 51.58 51.12 51.08 49.63 40.92 44.20 41.27 49.97 51.76 52.22 51.38 47.37 48.31 47.81 48.03 45.99 43.23 41.81 41.62 35.23 37.52 37.47 38.40 39.51 44.10 46.28 44.95 45.32 47.90 53.21 53.72 53.68 54.27 54.05 53.54 53.15
51.59 51.90 52.76 52.58 52.60 52.26 50.01 45.28 42.39 41.55 43.34 41.40 42.46 41.82 44.17 49.58 52.66 51.45 51.91 49.58 48.30 46.56 42.71 45.21 41.86 38.15 40.59 43.24 41.59 40.78 38.88 38.70 40.66 43.47 42.85 42.45 43.25 46.48 48.54 52.77 53.14 54.00 53.78 53.94 53.47
51.15 51.74 52.48 52.54 52.47 51.68 46.75 43.10 42.76 42.78 36.85 43.44 42.94 42.74 46.11 48.16 41.91 46.86 50.83 45.26 43.80 40.39 43.53 41.54 38.82 43.12 43.24 42.62 41.55 40.78 39.27 39.29 41.33 42.49 42.53 43.45 43.79 47.21 47.82 51.19 52.87 54.04 54.28 54.21 54.26
50.80 51.25 52.01 51.96 51.86 45.88 43.92 44.21 47.65 46.39 38.50 40.08 43.49 42.11 42.76 44.72 40.91 42.03 48.28 45.76 42.16 40.00 41.38 40.10 41.69 44.05 42.59 40.61 39.42 40.10 39.35 38.84 39.28 41.21 43.42 43.14 42.55 44.73 47.57 49.07 51.51 54.12 55.58 55.52 54.27
50.44 51.19 51.32 51.33 44.83 44.18 41.66 47.04 47.93 46.50 33.52 34.07 38.83 42.18 44.16 44.60 39.21 46.05 48.38 46.51 42.85 39.88 41.51 41.44 44.36 41.71 41.11 40.29 41.12 36.87 41.50 41.06 39.70 38.82 35.56 43.34 35.30 42.50 45.53 46.36 48.41 51.03 53.59 54.89 54.41
50.25 50.77 50.85 51.29 45.77 43.05 44.81 47.83 47.00 45.75 19.17 35.46 39.11 47.05 45.53 40.93 40.48 43.14 47.61 45.39 41.51 40.86 42.37 39.38 40.70 40.68 39.16 40.56 42.47 40.23 42.64 41.55 41.08 39.03 38.36 38.67 37.26 40.89 43.18 44.57 47.43 50.27 51.56 54.20 54.78
49.21 49.92 50.69 47.92 47.91 47.05 46.87 45.42 45.70 32.28 20.43 32.46 39.90 39.93 38.98 41.26 41.17 44.23 43.73 46.82 46.05 42.53 42.99 41.49 45.33 44.14 43.18 43.24 43.70 44.46 42.47 41.24 40.26 39.15 33.34 38.34 38.38 38.92 42.48 45.36 47.58 49.90 51.37 52.74 54.71
48.55 49.53 48.46 49.32 43.23 45.84 46.23 42.49 30.49 23.74 35.56 31.98 33.76 37.74 37.06 37.27 38.42 39.91 38.91 38.51 37.28 34.26 35.81 40.37 41.12 44.35 44.73 41.50 42.94 42.75 39.69 32.77 31.72 31.96 32.31 38.07 36.34 40.60 45.01 46.33 47.90 49.70 50.77 51.79 54.22
48.34 49.13 47.44 49.02 48.10 47.90 43.60 35.56 23.62 30.31 31.99 37.28 36.00 36.28 34.19 37.34 37.97 38.02 36.48 34.82 40.09 39.27 36.08 34.35 32.12 41.53 45.05 42.83 40.08 39.94 39.80 34.33 27.98 29.32 33.57 36.88 34.37 40.47 46.77 48.85 48.42 48.96 50.68 51.27 52.60
48.25 44.27 44.46 46.25 48.36 46.75 38.35 25.83 26.97 30.71 35.11 33.18 34.87 31.85 32.69 35.58 36.62 37.26 36.08 34.90 37.75 40.35 35.88 33.83 34.22 42.32 44.05 44.97 44.96 39.38 36.63 42.08 35.33 34.90 33.41 36.39 39.20 44.16 46.97 47.88 48.61 49.26 49.99 51.60 51.70
42.86 41.16 41.38 46.93 48.60 43.93 33.89 28.20 30.13 36.53 36.23 35.07 29.33 32.41 28.81 31.82 32.46 33.57 35.98 41.57 40.02 41.48 42.74 39.03 34.04 40.70 42.33 44.58 44.23 43.00 43.83 35.92 35.72 28.96 27.84 33.01 34.91 38.26 42.91 45.56 48.59 48.51 49.85 50.79 51.04
41.30 35.95 43.77 47.48 47.57 38.84 28.80 29.28 31.58 36.00 35.94 33.08 31.52 30.61 31.75 31.30 32.49 32.13 34.05 39.88 41.53 43.39 41.59 41.06 38.23 36.93 41.75 39.89 38.89 39.72 39.06 39.09 38.94 35.99 31.33 29.38 34.26 43.63 45.28 46.61 47.45 48.81 50.20 51.16 51.68
40.31 30.03 45.07 47.54 34.08 35.05 31.10 32.61 36.00 33.88 37.72 35.92 35.77 34.15 32.62 32.90 31.13 32.44 33.11 38.55 41.57 44.86 40.17 42.72 36.94 32.95 36.14 41.65 42.64 41.20 39.72 39.76 34.79 32.92 33.94 32.89 35.14 45.19 45.93 47.04 47.34 49.10 50.15 50.73 51.51
35.89 35.03 44.74 44.71 28.59 29.55 34.79 33.67 33.87 33.69 34.32 34.70 33.86 35.23 36.39 32.84 29.22 32.73 35.38 41.28 41.16 43.87 41.96 42.90 37.04 32.06 33.72 37.77 41.28 38.67 39.83 39.61 38.57 35.97 32.78 31.30 34.32 45.09 46.20 46.76 48.36 48.02 50.36 50.77 50.86
35.78 29.63 36.07 38.76 37.56 33.22 32.11 31.15 30.47 34.75 33.87 35.17 33.88 35.81 33.80 32.11 34.49 32.02 33.46 38.35 40.52 42.62 44.99 44.54 39.28 34.68 30.99 33.47 38.26 35.52 37.17 38.24 37.98 33.96 33.81 34.62 37.09 42.01 44.28 44.63 46.71 48.74 50.14 50.44 50.84
36.10 30.91 35.30 29.82 30.89 33.49 33.75 33.60 29.90 29.60 34.31 35.62 32.73 33.14 32.18 29.25 30.29 30.87 34.32 35.31 38.18 40.62 43.67 41.71 34.67 37.30 37.50 38.35 38.33 37.43 36.51 36.93 35.37 36.57 33.14 36.57 37.88 41.82 44.31 45.92 47.27 48.69 49.20 49.05 49.79
32.20 33.06 36.15 33.41 35.11 32.83 32.88 32.45 30.57 31.80 33.24 31.35 31.06 33.52 33.86 30.49 31.74 30.28 32.37 33.44 33.08 36.67 38.94 38.67 33.57 36.06 33.59 37.99 37.65 34.64 36.53 37.09 37.11 37.57 37.75 38.47 37.93 44.89 46.73 46.54 45.59 46.70 48.09 48.07 49.40
39.14 39.63 36.50 33.01 31.84 30.99 31.11 32.33 32.56 34.61 35.35 36.12 34.72 32.89 31.82 33.75 37.03 37.54 37.84 37.23 36.23 33.68 33.09 33.75 35.18 32.62 28.96 33.70 33.47 29.57 34.24 36.06 37.43 39.35 39.00 34.91 39.92 44.29 43.82 45.11 46.90 47.57 48.05 48.41 49.44

GFSSW_sfc_wetblb_054.txt.gz
Wetbulb
53.65 53.80 53.97 54.08 54.23 54.21 54.31 54.35 54.37 53.64 53.96 54.43 55.06 55.60 55.63 55.49 54.50 54.14 50.80 54.25 56.96 59.14 59.27 58.97 56.38 54.70 55.71 53.69 54.06 53.22 46.43 44.20 44.99 46.64 47.87 50.95 50.69 54.81 57.76 55.34 57.88 59.37 59.01 61.14 62.15
53.74 53.99 53.89 53.82 54.01 54.51 54.38 53.92 54.05 53.34 53.55 53.94 54.66 55.27 55.35 55.14 53.30 49.56 57.57 58.55 59.43 60.52 56.55 54.90 52.69 52.53 51.34 51.71 51.91 49.70 46.55 46.30 48.56 49.98 49.18 50.99 50.95 51.80 53.28 54.02 55.67 57.68 60.81 61.36 61.29
53.19 53.29 53.43 53.51 53.55 54.01 54.31 54.29 53.94 53.38 53.34 53.88 54.09 54.36 54.75 54.79 49.12 48.28 60.64 61.30 60.60 61.05 56.72 55.91 53.37 51.27 48.95 51.05 50.70 49.54 46.48 48.94 49.02 50.42 51.59 51.06 51.13 52.59 52.89 51.76 55.40 56.01 58.42 60.22 60.38
53.10 53.34 53.46 53.61 53.58 53.28 53.78 53.73 53.57 53.21 53.05 53.19 53.09 53.57 54.51 53.68 38.26 53.18 59.85 62.49 61.28 60.15 54.40 53.45 51.49 48.06 47.08 46.85 50.42 46.40 49.01 49.09 49.72 50.84 51.37 50.42 52.71 52.93 54.43 54.91 57.24 58.30 59.19 60.02 59.58
53.41 53.58 53.85 53.82 53.64 53.77 53.94 53.73 53.62 53.36 53.04 53.06 53.14 53.14 52.19 45.73 42.77 51.83 58.16 59.45 59.89 57.27 53.08 52.65 50.04 48.47 46.34 48.22 49.74 47.60 48.88 49.93 50.79 50.89 51.53 52.03 52.08 52.89 54.31 57.13 58.46 59.27 59.27 59.19 59.80
53.98 54.04 53.65 53.51 53.33 53.47 53.99 53.87 53.70 53.50 53.66 53.16 53.09 52.60 48.08 40.10 48.96 53.14 53.91 54.23 55.25 56.41 55.20 53.17 50.69 51.54 49.32 48.60 48.38 49.56 49.70 49.88 50.84 51.16 51.56 50.71 51.44 54.79 54.20 58.86 58.55 58.96 58.30 58.93 58.12
53.77 53.75 53.56 53.15 53.17 53.17 53.52 53.60 53.42 53.27 53.38 53.28 53.07 51.26 45.66 43.18 49.78 52.34 52.30 50.68 54.21 54.59 51.88 55.22 54.64 50.52 50.49 48.21 50.69 49.53 47.09 48.94 49.99 50.63 50.03 52.93 49.38 52.54 55.81 58.80 57.93 58.45 58.40 58.24 59.05
52.72 52.90 53.19 53.01 53.09 53.19 53.20 53.05 53.09 53.07 53.38 53.20 53.06 50.03 41.34 50.90 53.05 51.21 52.53 50.69 51.00 53.98 53.35 53.84 54.15 51.52 50.92 51.32 49.27 46.90 47.82 44.26 48.87 49.59 50.47 52.65 45.23 50.86 56.29 57.57 56.93 58.25 57.92 57.86 58.50
52.05 52.63 52.86 52.99 52.83 52.71 52.60 52.56 52.51 52.45 53.25 52.81 50.77 48.22 40.89 52.58 49.45 52.27 52.20 47.62 49.38 50.68 53.64 53.70 52.57 49.91 50.04 46.71 45.01 46.23 42.51 43.97 45.91 49.42 49.50 51.34 46.95 51.70 56.08 56.50 56.08 57.71 58.23 58.00 58.43
51.51 52.05 52.53 52.65 52.83 52.42 51.93 52.02 51.97 51.64 52.98 52.74 51.12 43.25 45.54 41.63 49.50 52.69 53.90 52.54 49.47 48.09 50.33 50.37 49.63 46.18 46.12 44.67 39.29 42.21 42.51 44.38 43.90 47.19 48.59 48.31 48.58 50.94 53.90 55.43 55.70 57.35 58.40 58.00 58.09
50.98 51.30 51.93 52.65 52.48 52.16 50.92 51.52 47.33 46.01 45.26 42.31 43.99 43.33 45.07 51.10 53.08 51.99 53.40 51.64 50.77 48.05 44.61 48.74 44.77 41.83 44.46 45.91 46.24 45.20 43.91 43.33 44.97 46.91 45.89 46.37 47.33 49.62 51.86 54.19 55.38 56.85 57.98 58.05 58.12
50.18 50.90 51.22 51.59 52.22 51.58 51.35 46.17 43.20 43.97 36.65 44.89 45.07 45.11 47.16 48.98 43.72 48.76 53.28 47.77 47.73 42.43 45.42 45.69 42.00 46.80 47.90 47.07 44.82 44.13 42.41 42.88 45.04 46.37 45.77 45.71 46.22 49.87 51.37 53.49 56.01 56.69 57.59 58.46 58.58
49.63 50.51 50.80 51.53 51.71 50.51 48.41 47.15 49.75 49.14 38.17 42.21 45.70 44.34 45.27 46.53 41.99 43.43 50.00 47.53 45.78 44.47 42.58 42.82 44.13 47.92 46.24 44.69 43.20 43.63 42.13 42.81 42.87 44.85 46.90 45.81 44.65 47.50 50.97 53.20 55.05 56.79 58.20 59.31 59.20
49.27 50.00 50.87 50.76 48.37 49.59 47.75 50.33 51.63 49.69 35.27 37.31 40.69 44.44 45.57 45.37 40.13 46.31 47.72 48.63 44.83 42.02 42.86 42.98 45.61 44.54 44.72 43.30 44.68 40.97 45.64 44.53 43.80 42.44 38.97 46.14 38.77 46.07 48.93 49.74 52.03 54.45 57.46 58.44 59.50
48.92 49.44 50.41 50.48 49.06 46.53 48.76 51.60 51.42 47.69 25.60 37.87 41.15 49.30 46.48 41.67 42.24 43.47 49.16 45.04 41.02 43.17 43.78 41.85 41.35 42.94 42.35 43.50 45.69 42.97 46.03 44.86 44.57 42.95 42.21 42.31 40.11 44.06 47.83 47.17 49.24 51.65 55.08 58.28 59.79
48.20 48.66 49.87 49.43 49.85 48.94 51.56 51.55 48.92 36.09 25.13 34.54 41.09 40.46 41.12 42.58 41.55 44.36 43.51 46.28 45.50 43.53 45.73 44.67 46.86 45.11 45.08 45.99 46.12 46.44 44.52 44.45 44.37 42.57 36.41 41.05 40.90 41.46 45.17 47.74 49.37 51.26 53.44 56.53 58.74
47.68 48.13 48.73 49.24 46.00 51.29 50.47 46.95 34.72 27.81 38.18 34.76 35.88 39.90 39.24 38.59 40.58 40.38 39.96 37.45 37.48 33.84 37.12 42.40 42.35 46.40 46.90 42.96 46.24 45.28 42.09 36.84 35.13 35.38 34.26 42.82 40.86 42.99 48.02 49.90 50.87 51.17 52.60 55.86 58.35
47.40 48.01 48.86 48.49 51.48 51.66 46.65 39.10 26.45 32.00 33.86 39.60 38.15 38.81 36.50 39.52 39.67 40.04 38.57 35.33 41.08 39.02 36.40 34.93 33.86 42.06 46.23 44.41 42.40 42.64 42.68 37.62 30.51 32.95 37.13 42.55 38.32 43.80 49.76 51.49 52.64 52.73 53.64 54.81 57.46
47.19 47.28 46.85 48.64 51.05 49.65 39.50 29.92 31.13 33.24 36.78 36.11 37.49 34.31 35.02 38.37 38.61 39.10 38.92 37.75 39.70 41.91 35.10 34.91 35.67 44.50 45.87 46.48 45.68 42.93 39.97 44.93 39.44 39.83 38.07 41.15 43.45 47.77 49.70 49.90 51.35 52.27 53.32 54.41 56.61
43.67 41.84 43.37 49.93 52.14 47.48 34.92 29.10 33.43 38.68 38.88 37.73 31.87 35.20 31.62 35.00 35.80 37.24 37.98 42.14 41.38 43.16 45.09 41.29 35.57 42.47 44.66 47.15 47.34 45.48 47.20 38.80 40.30 32.01 31.06 38.02 40.15 42.02 45.41 47.63 50.10 50.87 52.33 53.44 55.32
42.80 38.16 46.47 50.45 49.94 40.21 30.05 32.21 35.82 39.66 39.46 35.56 34.29 33.59 34.06 33.84 35.68 35.14 36.53 40.78 42.60 45.16 45.13 42.81 40.77 39.61 43.44 42.28 41.96 42.85 41.95 42.53 43.19 41.06 34.76 33.73 39.31 47.65 47.72 48.99 49.72 51.72 52.35 54.13 55.42
41.49 32.26 47.54 50.21 35.83 35.51 30.84 34.80 37.98 37.40 39.80 38.21 38.13 36.28 34.59 35.64 34.00 34.64 33.87 39.46 43.71 44.95 41.19 43.04 40.47 37.00 39.27 43.99 46.21 46.04 43.37 43.44 37.83 36.78 39.63 38.98 40.13 49.26 48.55 48.98 50.21 51.31 52.40 54.03 55.38
36.80 35.87 47.25 46.84 29.09 30.24 34.54 34.87 37.53 36.60 37.20 36.58 36.35 37.65 38.52 35.41 31.70 35.40 37.15 42.28 42.64 42.81 42.02 44.47 39.62 33.44 36.06 40.31 43.75 42.32 43.12 43.71 42.50 41.76 38.20 35.92 39.98 48.05 48.93 48.64 50.40 51.31 52.83 53.83 54.78
38.01 31.54 36.62 40.49 38.50 34.72 32.82 33.23 33.14 38.61 37.55 38.44 37.21 38.60 36.25 35.22 38.15 34.44 35.68 39.43 41.84 41.86 43.01 45.32 40.93 37.21 33.36 36.61 41.51 38.72 40.16 41.19 41.54 37.88 38.42 39.15 40.85 44.62 46.69 47.33 49.21 50.88 52.81 53.68 54.05
36.54 32.51 36.92 30.18 32.70 33.73 34.99 34.15 33.14 32.02 37.53 38.69 35.92 36.14 35.14 31.89 34.52 34.32 37.08 38.44 40.25 41.48 44.17 43.20 35.22 38.58 38.77 39.25 39.30 39.18 39.77 40.04 38.66 39.78 36.55 39.88 40.11 43.73 45.69 46.49 49.29 51.16 51.60 52.00 52.63
32.53 32.75 37.01 35.27 36.56 33.77 33.85 32.00 32.83 33.55 34.82 34.03 33.89 36.34 36.60 33.81 35.54 33.70 35.84 37.05 36.20 39.57 39.84 42.28 35.91 37.85 34.76 37.96 38.80 36.96 39.30 39.84 40.08 39.92 40.11 41.19 41.46 47.25 47.58 48.45 47.66 48.27 49.45 50.58 52.00
39.23 40.49 36.45 33.81 33.88 33.09 33.00 33.63 33.28 36.65 37.60 38.43 37.58 35.76 34.83 36.91 40.26 40.95 40.71 40.67 40.08 37.61 36.49 37.18 38.47 35.32 30.91 36.55 36.30 32.01 37.42 39.36 40.82 42.79 41.62 38.02 42.44 45.15 44.75 45.78 47.16 47.92 49.67 50.78 51.93

GFSSW_sfc_wetblb_057.txt.gz
Wetbulb
53.88 54.15 54.35 54.25 54.27 54.34 54.34 54.10 54.31 53.71 54.01 53.94 53.89 53.89 54.11 55.19 54.51 55.02 50.60 55.79 57.32 59.16 59.69 59.45 59.92 58.03 56.09 53.98 55.15 55.05 47.96 45.85 47.29 47.47 49.12 52.84 50.91 54.35 56.53 54.67 57.26 59.26 59.45 62.00 64.28
53.43 53.69 53.74 53.70 53.88 54.56 54.35 53.98 54.18 53.75 53.71 53.76 53.82 53.98 54.55 54.37 53.33 51.67 59.08 61.84 61.31 59.74 56.23 56.92 55.90 55.50 52.30 52.30 53.19 50.91 47.03 47.49 51.25 50.65 50.44 51.41 51.98 52.50 52.54 53.56 54.81 56.82 60.68 63.26 63.29
53.58 53.77 53.95 54.11 54.27 54.72 54.62 54.44 53.99 53.72 53.65 53.65 53.71 54.27 54.02 53.84 50.63 51.55 59.41 62.53 62.23 60.56 57.38 57.58 57.34 54.97 50.76 52.06 51.91 50.96 46.89 50.87 50.83 51.26 52.29 51.48 51.64 53.66 51.89 51.16 54.74 55.29 57.57 61.85 62.30
53.61 53.72 53.98 54.14 54.09 54.47 54.53 54.29 54.44 53.81 53.76 53.72 53.71 53.73 54.05 53.79 41.07 53.38 59.21 61.76 60.62 59.08 57.74 55.62 54.96 51.70 49.18 48.28 51.74 48.41 50.74 51.01 51.25 51.59 51.32 50.95 53.12 52.13 53.20 53.95 58.05 58.62 59.83 61.15 60.88
53.76 53.88 53.96 53.83 53.73 53.84 54.21 54.09 54.41 54.07 53.84 53.82 53.78 53.52 52.22 48.74 49.63 54.64 58.26 59.13 60.56 58.72 55.92 53.61 52.19 51.17 47.81 49.11 50.18 48.79 50.03 51.10 51.35 51.12 51.48 52.80 51.61 51.72 52.62 55.75 59.26 59.45 60.25 60.17 59.81
54.17 53.76 53.48 53.32 53.32 53.46 53.76 53.55 53.71 53.88 53.94 53.44 53.57 52.80 50.26 42.97 54.39 53.38 53.50 50.37 52.96 57.41 55.55 54.87 53.22 53.13 49.62 48.99 48.78 50.58 50.84 50.49 51.48 51.17 51.46 50.69 51.28 52.24 53.95 56.65 58.17 59.31 60.12 60.22 59.93
52.98 53.41 53.06 52.81 52.95 53.47 53.49 53.41 53.18 53.45 53.67 53.33 53.30 53.09 48.05 46.78 53.29 54.11 54.17 52.04 51.16 49.53 51.15 56.73 56.06 51.52 51.27 48.87 51.96 50.94 48.17 49.79 50.22 51.17 50.40 51.90 48.77 49.73 53.85 56.38 57.21 59.02 60.19 60.43 60.46
52.27 52.37 52.93 52.96 53.16 53.29 53.27 53.02 52.79 53.14 53.41 53.31 53.69 53.20 45.26 52.20 54.28 52.90 52.84 51.60 54.55 50.91 52.11 55.12 55.83 53.50 50.92 52.30 50.77 48.22 48.38 44.58 49.79 50.76 51.22 50.62 45.45 51.15 55.35 56.28 55.98 58.39 59.46 59.88 60.08
51.60 51.96 52.23 52.63 52.70 52.88 52.69 52.63 52.54 53.18 53.13 53.01 52.91 50.86 44.90 52.54 48.87 50.71 51.86 50.77 52.45 51.07 50.16 53.58 53.13 49.74 51.27 47.29 46.22 47.86 43.23 44.94 47.34 51.78 50.45 49.64 47.49 51.47 55.95 55.77 54.86 57.22 59.02 59.53 60.19
50.67 51.20 51.96 52.20 52.29 52.11 52.18 51.90 53.14 52.12 53.47 54.74 52.99 46.76 49.19 44.60 50.08 53.08 54.98 51.41 50.90 50.01 46.82 47.09 48.71 45.80 46.66 46.37 40.22 43.60 44.54 46.15 46.25 49.95 49.26 47.89 48.55 51.38 54.50 54.71 55.28 56.68 58.49 59.70 59.71
49.86 50.33 51.48 51.70 52.05 51.96 51.89 53.95 49.43 49.29 49.71 45.39 46.11 46.88 47.59 51.15 52.55 51.52 54.54 52.53 51.82 48.42 42.26 46.39 42.64 41.01 44.85 47.45 47.55 47.01 46.75 45.80 48.14 49.60 47.66 47.48 47.71 50.43 52.65 53.12 53.74 56.40 57.54 59.10 59.62
49.18 49.67 50.70 51.36 51.77 51.56 52.44 48.26 46.98 47.59 40.62 47.29 47.34 47.02 48.99 49.90 43.57 47.64 54.75 48.02 47.54 42.65 44.73 42.48 40.95 44.36 46.10 47.42 46.59 45.71 45.03 45.06 47.85 48.01 46.94 46.62 46.35 49.54 51.29 52.65 53.66 55.57 57.24 58.47 60.00
48.75 49.21 49.91 51.01 51.04 51.10 50.86 49.24 53.24 51.13 41.51 44.75 47.40 46.18 46.77 48.58 43.27 44.24 50.12 47.70 45.85 41.43 42.80 42.10 44.13 46.74 45.77 46.31 45.08 45.49 44.37 44.81 44.76 47.39 48.18 46.20 44.90 47.52 50.62 52.55 53.57 55.50 56.62 58.00 59.71
48.81 49.06 49.78 50.39 47.58 51.27 47.82 52.93 54.10 52.15 37.67 40.15 43.27 46.72 48.00 46.73 41.51 48.15 49.17 49.12 44.04 42.54 42.92 43.42 46.39 45.01 45.03 44.85 46.61 43.14 47.59 46.35 45.27 44.44 41.01 47.71 39.09 46.15 49.06 50.11 52.25 53.78 55.10 56.67 58.90
48.48 48.48 49.34 49.68 48.40 45.97 50.53 54.11 53.92 48.85 29.42 39.47 43.66 50.95 48.37 43.61 44.37 44.38 48.79 45.77 43.08 41.99 44.46 42.27 43.53 42.85 42.41 45.09 47.33 44.79 48.13 46.93 45.64 44.24 43.75 43.73 40.97 45.08 49.21 48.24 50.38 52.60 54.33 56.65 58.74
47.75 48.00 48.68 48.75 49.23 51.61 53.37 53.72 51.19 36.42 28.92 37.16 42.60 42.25 42.37 44.86 43.71 44.76 45.27 47.34 45.61 43.43 43.97 44.27 48.45 46.94 43.99 46.21 47.40 48.20 45.98 46.11 46.01 44.54 37.97 42.57 42.05 42.88 46.41 48.37 50.37 52.26 53.32 55.15 58.27
47.38 47.68 47.38 48.85 44.39 52.09 53.22 49.45 36.83 31.01 39.90 37.40 38.34 41.38 41.33 41.19 42.26 42.52 41.12 39.77 36.14 33.65 36.88 40.93 43.07 47.18 46.60 42.52 47.00 46.31 43.68 37.63 36.20 37.01 35.68 44.34 41.95 43.68 48.74 50.64 51.23 51.38 52.75 55.29 57.36
46.93 47.23 47.30 48.83 50.84 51.74 49.78 41.34 29.36 34.96 36.08 41.34 40.13 40.64 38.08 41.11 41.73 41.84 40.52 38.27 39.73 39.85 37.85 36.01 34.34 43.25 46.90 43.55 42.04 43.69 43.45 37.91 31.58 34.30 38.37 44.60 39.65 44.13 50.90 52.04 52.36 53.43 53.94 54.67 56.56
46.45 46.04 46.38 49.27 51.67 50.39 42.74 33.01 33.40 36.29 38.89 37.67 39.05 36.32 36.77 39.96 40.52 40.90 40.75 40.11 40.64 40.63 35.36 35.81 36.52 44.70 46.55 46.75 45.30 43.68 40.67 45.06 40.29 41.78 39.22 42.24 45.10 49.45 50.57 50.34 51.39 51.81 52.84 54.09 55.95
43.16 41.70 44.09 50.72 51.87 47.70 36.67 31.75 36.62 40.05 40.54 39.14 33.23 36.94 34.24 36.81 38.23 39.33 39.99 43.20 41.64 43.63 44.55 40.94 34.97 42.14 44.31 47.06 46.81 44.59 47.09 39.60 41.33 32.81 31.12 39.54 41.66 42.80 46.72 48.27 50.78 51.58 52.85 53.71 55.37
42.33 36.62 47.50 51.04 50.41 40.65 32.16 34.33 37.42 41.01 41.77 37.80 36.43 36.09 36.89 36.03 37.23 37.65 38.47 42.47 44.14 43.44 45.29 42.85 40.82 39.38 43.27 42.16 41.46 41.68 41.32 43.88 43.60 41.33 34.85 34.28 39.79 48.95 48.84 49.57 49.86 52.38 53.53 54.84 55.52
40.64 32.26 49.21 50.81 35.61 36.56 33.06 37.39 39.88 39.51 41.77 39.95 39.98 39.05 37.42 37.62 36.43 36.38 36.79 39.60 44.58 44.24 42.02 43.42 41.07 36.76 40.10 44.79 47.25 45.73 43.45 43.88 38.64 37.45 41.14 40.84 39.62 50.72 50.43 50.15 50.55 51.31 53.01 54.51 55.33
36.61 36.42 47.33 47.57 31.75 33.30 36.38 35.93 38.22 38.11 38.87 38.98 37.70 39.85 40.62 37.67 33.72 37.70 38.85 43.23 43.25 41.72 40.34 43.63 39.28 33.66 37.43 42.30 45.02 42.68 44.24 45.33 45.18 44.02 37.99 37.07 39.70 49.85 50.60 49.53 50.13 50.88 52.64 54.20 55.23
38.10 32.84 37.78 42.16 40.53 35.80 33.89 33.98 34.16 40.20 39.56 40.24 39.02 40.68 39.11 37.01 39.02 36.16 37.89 41.08 42.97 42.07 42.96 44.28 41.39 37.52 33.58 38.13 42.59 40.76 42.86 44.44 43.81 38.98 39.37 40.21 42.38 46.57 47.56 48.21 49.50 50.37 52.62 53.60 54.15
37.63 34.12 37.60 31.81 34.61 35.89 36.67 35.77 33.19 33.69 39.41 40.20 37.41 38.00 37.45 34.31 35.71 35.46 39.21 40.47 42.12 41.88 41.85 42.12 37.71 40.32 40.79 41.75 41.78 41.99 42.20 42.42 41.40 42.63 38.97 41.62 42.58 45.83 47.61 48.45 49.18 50.17 49.98 50.19 51.88
34.75 34.09 38.31 36.22 37.79 35.16 35.36 32.98 33.79 36.09 37.11 35.46 35.74 38.12 39.06 35.88 36.83 35.67 38.25 38.28 38.49 41.34 40.18 42.65 35.51 38.03 37.25 40.30 39.91 38.92 41.51 42.39 42.48 42.29 41.90 42.79 42.28 48.05 49.55 49.67 48.40 48.82 48.49 48.83 50.28
40.83 41.61 37.91 34.22 34.81 34.19 34.59 34.62 34.91 37.19 38.76 40.19 39.19 37.98 36.87 38.81 41.21 42.47 42.52 41.31 41.37 39.45 38.95 38.79 36.69 34.88 30.97 38.12 37.81 33.62 39.05 41.15 42.32 44.04 43.48 40.37 44.72 46.78 46.00 45.90 47.20 48.82 49.80 50.19 51.71

GFSSW_sfc_wetblb_063.txt.gz
Wetbulb
53.50 53.82 54.13 53.79 54.04 54.53 54.56 54.62 55.19 54.49 54.25 54.32 54.75 54.88 55.21 55.46 54.47 50.38 45.28 50.99 54.68 59.19 57.54 51.92 51.72 52.91 52.65 50.09 50.47 47.49 39.90 37.58 39.42 41.97 44.93 49.58 47.71 49.06 50.78 50.74 53.33 54.89 53.12 61.45 63.44
53.71 53.98 53.89 53.90 54.67 54.82 54.69 54.54 54.59 54.01 53.98 54.14 54.41 54.79 55.07 54.84 50.23 46.69 53.26 60.17 60.85 59.95 51.99 48.26 46.44 51.33 46.76 46.86 46.81 44.08 37.38 40.11 45.30 46.59 46.01 47.96 49.03 48.89 48.18 50.83 50.93 51.61 60.77 62.25 61.70
53.13 53.27 53.53 54.10 53.84 54.11 54.13 54.39 54.16 53.84 53.77 53.81 54.14 54.53 54.42 53.45 45.49 47.94 58.80 59.89 60.26 61.15 56.69 53.35 49.29 48.44 46.84 47.56 46.46 44.20 41.15 44.90 46.62 48.83 48.35 47.80 46.61 48.93 46.09 47.23 50.71 52.44 58.10 59.83 59.64
52.88 53.04 53.25 53.34 53.17 53.18 53.73 53.72 53.50 53.43 53.51 53.53 53.81 53.80 54.21 50.17 36.85 47.16 57.72 58.96 61.21 58.68 56.83 52.64 48.37 42.94 44.27 45.23 48.37 42.98 46.45 46.98 47.50 49.05 48.19 46.71 46.93 46.54 46.77 49.10 54.35 54.26 59.76 59.61 58.73
52.93 52.77 52.79 52.76 52.53 52.52 53.03 53.25 53.44 53.07 53.30 53.47 53.69 53.59 49.55 42.90 43.58 51.09 59.62 58.53 58.14 55.70 52.08 49.96 45.75 45.30 43.58 46.90 47.69 45.61 46.57 47.89 48.63 48.71 48.74 49.03 45.91 46.65 45.75 49.93 53.50 57.12 57.06 56.16 57.67
52.08 51.85 51.97 51.87 51.81 51.97 52.32 52.80 52.92 53.11 52.96 53.26 53.64 53.24 45.87 37.57 49.73 50.71 50.79 50.67 50.18 48.31 51.47 51.22 49.28 49.74 47.13 46.76 45.89 47.95 47.30 47.15 47.90 47.39 48.31 47.48 45.59 45.64 48.26 49.75 49.65 55.47 55.39 56.36 56.23
51.62 51.40 51.10 50.96 51.08 51.34 52.15 52.20 52.14 52.61 52.84 52.99 53.71 50.46 44.38 41.55 49.55 49.92 50.32 47.94 50.90 50.58 44.78 47.08 46.64 44.35 47.48 46.17 48.98 47.92 43.45 45.57 45.75 46.06 46.35 47.93 43.83 43.16 47.43 49.16 48.73 53.41 55.66 55.88 57.06
51.34 50.81 51.02 50.96 50.99 51.41 51.87 51.79 51.47 51.95 52.36 53.03 53.86 49.56 41.92 51.65 51.14 50.45 48.96 47.44 49.53 50.60 50.07 49.82 48.12 44.20 45.89 48.63 47.91 43.74 42.31 37.28 45.00 46.95 47.65 45.10 41.30 45.59 47.85 47.98 47.01 48.19 55.10 56.05 56.35
50.74 50.19 50.56 50.42 50.68 50.75 51.10 51.15 51.26 52.26 53.37 53.98 49.83 47.42 42.39 54.51 49.29 50.57 49.12 45.69 49.15 50.07 49.91 52.54 46.95 42.17 44.40 40.89 39.74 40.94 34.20 38.36 42.36 47.61 46.59 44.10 42.91 45.86 48.41 48.90 48.00 50.10 52.70 55.03 55.50
49.96 49.64 49.92 49.84 50.15 50.13 50.04 50.26 51.11 52.52 52.59 52.66 51.32 44.92 47.84 46.38 49.36 49.96 49.60 50.22 46.65 48.56 48.46 45.89 42.35 36.88 39.48 37.98 30.99 35.27 36.95 38.41 39.88 45.12 45.78 43.86 43.48 46.74 47.39 48.94 50.11 49.49 49.31 54.08 55.05
49.08 48.93 49.23 49.65 49.76 49.71 47.86 44.75 43.09 42.42 44.00 41.77 44.56 45.25 46.71 49.05 49.38 47.17 51.41 48.81 49.08 46.86 40.62 43.37 35.41 31.24 36.06 40.88 41.97 41.51 40.35 39.09 41.09 46.61 46.83 45.14 44.02 45.32 46.90 46.15 48.61 48.50 48.98 51.68 55.07
48.37 48.51 48.41 48.56 49.62 49.19 46.53 43.09 46.07 45.20 38.10 45.06 45.01 44.93 47.15 47.86 43.15 45.54 48.26 45.39 44.83 40.16 43.33 40.49 34.89 39.86 41.58 41.13 41.94 41.35 39.02 38.50 42.82 46.79 45.85 44.54 43.22 43.87 45.38 44.90 46.82 49.47 48.94 49.50 54.91
48.78 48.03 48.13 48.81 48.89 46.89 44.76 45.18 51.51 48.60 37.17 40.49 45.84 44.59 46.10 47.47 43.01 42.91 44.81 46.30 42.75 40.32 41.19 38.30 39.94 43.85 41.97 39.46 37.97 39.95 38.40 39.42 40.43 44.47 45.54 44.11 39.20 41.82 46.41 47.31 47.37 48.48 51.51 52.23 55.11
48.96 48.60 48.93 48.84 43.88 41.91 41.51 49.08 50.39 49.85 33.40 37.36 42.71 45.57 47.62 46.76 41.57 47.23 46.60 42.61 42.65 38.92 41.86 41.05 43.40 41.41 41.45 40.32 41.28 36.00 42.52 42.27 41.66 40.23 35.36 41.85 31.44 40.47 44.69 45.69 47.04 47.08 48.01 52.24 55.21
48.76 48.47 48.53 47.27 40.09 38.99 45.06 47.74 49.82 46.19 21.38 42.85 43.18 50.68 48.40 42.97 43.63 42.73 46.46 42.80 38.28 40.68 41.21 38.89 40.81 40.64 38.96 40.77 43.76 40.08 44.39 42.80 42.44 40.80 38.35 39.03 33.58 37.73 43.45 42.89 45.15 45.74 48.27 49.31 55.16
48.36 48.12 48.22 43.41 41.29 42.56 45.58 46.48 46.70 33.09 22.92 37.18 43.12 41.92 42.08 43.18 43.40 44.01 42.47 43.69 42.73 38.79 42.20 40.87 45.54 43.63 42.35 44.55 44.84 45.31 42.54 42.07 41.25 39.95 32.70 37.99 35.39 34.25 39.79 44.07 46.34 48.26 49.48 50.04 51.14
48.22 47.93 45.11 44.54 36.43 43.09 43.45 42.33 31.16 24.62 39.97 36.50 38.18 41.52 39.91 38.77 41.03 41.00 39.06 34.95 31.28 28.50 30.99 37.41 39.78 43.31 44.68 39.64 43.24 42.72 37.90 30.78 30.63 30.16 28.69 39.97 36.84 38.55 43.94 47.08 47.73 48.19 48.30 50.05 50.90
47.76 47.87 44.99 43.66 42.35 42.51 41.44 35.60 24.06 33.30 36.26 41.58 39.96 39.56 36.43 38.80 40.31 40.18 37.39 33.77 35.94 34.78 31.99 31.16 31.08 39.01 42.95 40.14 39.14 40.21 37.90 31.38 26.41 26.56 31.90 40.32 33.79 38.52 46.70 49.06 49.25 49.01 49.07 50.49 51.39
47.31 41.49 40.12 42.38 43.76 41.72 37.72 25.94 26.54 32.47 37.91 37.37 38.05 34.94 34.52 37.39 38.60 38.86 37.52 36.28 39.65 38.16 30.77 32.48 33.72 42.57 42.85 43.96 43.40 39.33 35.61 40.99 34.52 35.39 32.16 36.00 40.08 44.62 46.39 46.81 47.35 47.28 49.21 50.39 51.47
38.87 37.70 38.72 43.29 45.16 39.61 33.68 26.83 30.29 37.10 38.32 37.45 32.56 35.66 31.59 35.47 35.64 35.33 37.72 41.54 40.79 42.81 40.21 37.21 31.33 40.33 41.84 44.30 44.47 41.80 43.35 34.15 34.79 27.77 26.86 34.21 35.86 37.00 43.35 45.06 47.29 46.49 46.97 48.91 50.19
36.77 32.65 38.94 43.55 43.36 36.88 26.48 27.70 31.73 37.42 37.83 35.71 34.60 34.06 34.52 34.49 36.23 34.65 37.56 41.64 42.66 41.77 42.03 40.06 35.28 35.40 40.29 39.01 38.17 39.70 37.86 37.94 38.01 35.67 28.47 28.26 34.15 44.17 43.36 45.95 45.94 47.83 48.72 48.50 49.32
37.99 26.43 41.09 44.64 32.48 33.65 27.61 31.59 36.21 34.60 38.38 36.53 37.17 36.75 34.47 34.93 34.23 34.75 34.92 38.91 42.03 41.74 38.24 39.64 37.40 31.21 34.22 41.12 43.50 42.48 39.98 38.69 33.88 32.88 35.64 33.20 35.27 47.76 47.07 46.40 46.76 47.46 48.28 49.49 51.08
33.97 31.14 39.65 42.25 28.38 26.83 31.89 32.55 34.06 33.33 34.30 35.35 35.48 37.53 37.55 33.85 30.29 34.92 36.62 42.51 42.16 40.00 37.01 37.87 34.66 29.54 32.54 38.35 42.52 38.89 40.49 40.52 39.94 38.94 34.63 31.88 34.97 48.29 48.27 47.63 47.36 45.59 46.30 48.52 50.69
34.18 26.68 31.36 34.60 33.52 32.59 30.67 30.78 30.83 37.02 35.49 36.95 35.66 37.11 35.48 33.45 35.56 33.03 35.55 41.32 42.20 41.76 42.89 40.41 36.28 33.92 29.57 34.03 38.38 35.94 38.93 40.73 38.56 33.74 34.64 36.36 39.35 43.58 45.57 46.02 47.37 45.16 46.38 49.21 49.64
34.12 28.32 31.78 28.29 28.18 30.47 31.67 31.62 30.22 31.64 36.70 37.24 33.51 33.97 33.57 31.15 32.88 32.66 36.18 37.23 40.82 42.54 40.79 38.85 32.62 36.28 36.53 37.63 39.43 37.51 37.11 39.33 37.64 38.04 35.77 38.74 39.58 43.13 45.13 45.96 47.65 46.31 48.50 49.03 49.71
29.75 28.00 31.58 30.05 32.02 31.35 32.18 29.30 29.77 31.38 33.77 32.85 32.66 35.05 35.06 32.33 33.44 31.73 35.48 36.19 36.16 40.21 38.80 39.23 31.93 34.87 33.04 38.35 38.29 37.23 38.67 40.36 39.92 40.44 40.65 40.88 39.65 46.84 46.94 47.81 47.63 47.46 48.37 48.30 48.69
37.59 36.79 33.14 30.06 29.33 26.69 28.41 31.02 31.46 34.14 35.40 36.53 36.27 34.76 33.65 36.74 37.95 38.28 38.86 38.97 38.10 36.19 36.10 36.21 34.00 31.84 29.02 34.09 35.07 30.58 37.00 39.18 39.39 40.77 40.78 36.50 42.36 46.37 45.69 46.03 46.11 45.87 47.21 47.57 47.83

GFSSW_sfc_wetblb_069.txt.gz
Wetbulb
53.03 53.21 53.17 53.02 53.16 53.18 53.13 52.94 52.95 52.47 52.66 53.10 53.44 53.67 53.84 54.43 53.84 48.72 42.46 47.94 50.55 57.44 58.78 50.71 50.09 50.35 48.62 45.60 46.15 42.70 34.26 30.07 34.74 37.41 39.50 44.74 43.10 45.09 46.98 48.10 51.18 52.05 57.03 58.42 61.89
52.96 53.05 53.11 52.84 52.66 52.58 52.46 52.41 52.29 52.27 52.26 52.62 53.01 53.31 54.06 54.27 48.69 44.62 49.66 55.97 57.17 59.35 50.31 46.59 44.29 47.30 43.67 43.68 44.53 41.21 34.05 35.63 40.41 42.02 41.45 41.61 43.23 44.94 45.15 46.01 46.87 53.52 59.06 61.07 62.08
52.82 52.69 52.62 52.50 52.29 51.86 51.72 51.62 51.54 51.65 51.97 52.28 52.72 52.87 53.25 52.62 42.14 39.77 57.01 58.45 58.55 58.96 50.79 49.97 47.14 43.99 41.62 42.01 42.77 40.45 39.02 41.28 42.64 44.51 43.17 41.87 43.88 44.91 42.70 43.73 46.64 50.87 56.52 59.19 59.81
52.45 52.56 52.17 52.09 51.88 51.66 51.31 51.66 50.97 50.98 51.32 51.99 52.36 52.78 53.61 48.00 30.77 44.50 59.03 58.92 58.88 57.30 53.30 51.91 47.38 40.34 36.87 39.39 43.34 38.86 42.28 44.60 44.47 45.46 43.20 43.23 44.83 43.67 42.94 46.05 48.22 48.93 58.38 58.80 58.12
51.20 52.04 51.61 51.69 51.25 50.81 50.85 51.11 50.40 50.55 50.74 51.35 52.19 52.44 47.95 39.39 38.52 46.91 55.07 52.27 51.20 55.22 52.17 49.63 44.82 41.39 36.41 38.41 41.91 41.22 42.79 45.25 46.16 45.73 44.72 45.67 43.47 44.48 44.72 47.61 46.90 54.78 58.64 58.11 58.03
50.92 51.29 51.12 50.89 50.55 49.98 50.29 50.75 51.01 50.63 50.61 51.08 51.79 51.97 44.46 35.48 45.00 48.26 48.13 47.56 46.49 51.21 48.89 48.69 46.24 44.09 40.86 41.05 40.22 43.54 44.01 44.73 46.40 46.61 46.31 44.64 44.51 41.89 45.92 45.08 47.62 56.32 56.52 56.69 56.90
50.93 50.91 50.54 50.38 49.80 49.24 49.71 50.46 50.65 50.89 50.78 51.39 51.88 50.03 44.17 40.46 46.85 47.24 48.01 46.09 46.15 45.78 44.61 45.10 45.12 41.26 40.82 39.84 45.38 44.46 40.15 42.12 43.14 42.04 42.68 44.15 39.66 38.91 45.17 44.99 48.66 54.93 56.00 55.77 56.22
50.51 50.40 50.42 49.97 49.84 49.74 49.95 50.04 50.29 50.99 51.81 52.54 52.40 49.63 41.75 49.94 49.08 48.46 46.86 46.64 47.71 46.70 46.15 47.75 46.66 42.50 39.54 42.70 42.94 40.57 39.45 34.81 41.37 43.25 43.94 43.05 37.77 43.36 46.03 45.12 43.43 51.55 53.89 55.54 55.58
50.16 50.07 50.22 49.91 49.74 49.53 49.38 49.53 50.49 51.85 53.67 52.79 49.56 46.06 40.27 52.94 48.99 50.75 49.01 46.08 45.94 47.14 46.93 50.43 45.78 40.51 38.74 35.44 34.37 36.08 31.33 34.19 38.03 44.02 42.56 41.63 38.47 43.46 46.57 45.31 43.77 44.34 49.77 52.68 55.15
49.88 49.56 49.76 49.93 49.58 49.15 48.92 49.99 50.81 51.37 51.96 51.98 50.24 43.07 45.68 44.99 48.49 48.67 47.08 48.06 44.43 46.68 45.36 43.87 39.12 34.41 32.43 33.01 28.28 31.47 32.61 31.77 34.68 40.73 41.01 38.00 38.70 44.36 46.26 45.96 45.17 44.73 44.78 50.97 53.21
49.63 49.47 49.45 49.70 49.32 49.04 47.15 44.89 43.13 41.91 44.21 40.15 42.64 43.62 45.31 48.91 48.82 46.14 46.98 46.98 47.97 44.71 37.56 40.79 34.25 30.85 32.27 34.52 37.07 37.82 35.41 33.65 36.13 43.43 39.23 38.43 38.84 41.50 45.05 43.82 42.98 43.17 41.91 49.91 52.55
49.31 49.11 49.01 48.79 48.96 48.78 42.93 41.40 40.76 41.66 36.44 44.18 43.81 43.07 46.00 47.41 41.31 44.06 46.76 41.57 42.39 36.73 40.66 37.82 32.92 37.87 39.00 37.39 35.49 34.85 33.81 34.73 39.37 43.78 40.19 37.77 37.98 42.09 44.40 44.63 44.13 45.09 43.04 46.01 52.01
48.43 48.74 48.78 48.76 48.61 41.95 38.33 41.58 44.21 42.57 36.06 38.07 42.02 41.64 42.70 44.30 39.47 39.87 43.68 42.27 40.72 38.08 38.68 34.53 37.88 42.57 39.63 36.83 35.23 34.85 32.65 35.02 35.88 40.02 40.23 38.27 36.66 39.41 44.71 43.99 44.75 44.92 45.67 47.95 51.53
48.31 48.49 49.05 48.63 39.60 39.36 38.21 42.79 42.61 42.52 31.30 33.69 39.03 42.68 44.00 43.82 37.78 44.33 44.56 44.46 40.61 37.46 39.19 37.94 41.66 40.46 39.23 37.54 37.69 31.89 38.71 39.48 36.41 34.06 28.47 36.92 27.91 37.11 41.74 42.77 42.93 44.50 44.28 45.77 51.42
47.93 47.88 48.61 47.50 38.84 35.13 40.47 41.50 42.85 42.95 18.33 37.03 41.90 48.67 45.53 40.88 41.27 40.68 44.02 40.40 38.30 38.06 38.73 35.03 38.22 38.69 36.68 38.15 41.00 36.31 42.91 40.57 38.96 34.56 32.09 33.83 30.20 35.01 39.23 39.92 41.60 43.37 44.17 44.69 51.41
47.54 47.41 47.86 41.54 38.24 38.56 39.63 41.03 41.47 29.23 18.30 34.29 41.67 40.07 39.39 40.83 40.34 40.32 39.98 41.29 39.57 36.10 39.03 37.34 42.19 40.35 39.26 41.69 42.24 42.53 40.82 39.79 39.16 34.45 27.02 32.82 32.34 32.67 38.30 41.37 43.12 45.23 45.87 44.28 49.46
47.21 47.29 44.89 43.46 34.98 39.17 39.04 36.84 25.82 21.59 33.92 33.37 34.59 37.93 38.54 37.81 38.49 37.71 35.73 33.94 30.45 26.90 26.45 31.63 34.69 39.94 43.11 38.03 41.75 40.66 36.96 29.29 27.34 25.64 25.38 35.99 33.39 36.24 42.44 44.48 44.65 45.26 46.98 45.14 48.71
46.71 46.49 43.84 42.76 39.85 38.91 36.37 31.59 19.04 26.84 30.04 36.61 34.99 35.01 34.28 37.80 37.26 36.47 32.93 29.68 33.24 30.55 27.04 25.35 24.34 35.41 41.68 38.48 36.42 36.89 37.54 30.65 23.96 25.45 27.72 37.05 30.93 36.98 45.37 46.31 47.22 47.41 47.93 47.46 47.02
45.00 37.79 37.36 38.49 40.57 38.40 32.99 22.32 21.62 27.01 32.91 30.87 32.62 31.50 31.51 34.90 33.99 35.46 32.47 30.99 33.44 32.93 27.27 26.70 29.17 36.70 41.36 42.05 40.93 37.66 33.90 39.39 33.05 34.31 28.53 32.37 37.65 43.04 44.92 43.53 45.46 44.63 45.15 45.42 48.23
36.35 34.46 34.21 38.68 40.36 37.56 29.81 22.47 25.61 32.65 32.35 31.14 26.79 31.36 27.12 30.26 30.62 30.66 33.09 37.46 38.16 36.43 35.85 33.27 27.87 35.76 38.80 41.26 41.44 39.02 41.77 33.33 34.93 27.36 24.73 31.28 35.13 35.71 39.76 40.30 43.90 44.05 44.04 47.32 50.35
33.45 28.86 34.69 39.48 39.82 34.28 22.56 23.32 28.28 33.02 33.68 30.66 29.69 29.30 31.18 29.69 31.18 31.41 34.76 38.83 40.21 39.94 37.69 36.34 33.41 31.23 37.26 35.46 35.23 37.52 36.91 36.22 36.71 35.06 28.09 26.86 33.52 42.98 43.17 43.18 42.27 44.54 46.04 46.49 48.59
31.16 20.08 34.86 40.69 29.57 27.64 22.52 27.95 33.17 31.50 34.55 32.25 32.89 32.10 30.98 31.54 29.98 32.04 32.15 37.21 41.07 40.54 37.01 38.59 35.95 30.06 33.11 38.30 41.31 40.04 37.77 38.07 32.24 31.29 34.04 33.59 33.70 46.06 45.66 44.47 44.36 45.08 46.50 47.78 49.71
31.08 28.28 35.38 35.14 15.18 26.27 28.16 29.19 31.23 30.04 30.02 30.80 30.58 33.25 35.08 30.59 26.75 32.66 33.84 41.05 40.45 37.30 34.52 35.69 32.29 27.49 28.99 33.70 38.75 36.92 39.02 39.12 38.51 37.40 32.54 30.61 32.89 46.60 46.57 45.04 45.19 44.93 45.74 47.01 48.18
33.42 20.72 25.18 30.42 30.19 27.08 25.12 27.30 26.50 33.47 32.55 33.61 31.96 33.18 31.07 30.16 33.57 30.52 33.05 39.07 40.98 39.53 42.05 38.99 33.07 30.12 25.30 31.31 36.17 34.08 35.76 39.16 38.22 33.09 32.78 33.02 38.13 42.08 43.34 44.13 44.34 45.93 45.83 46.55 47.20
33.12 25.63 27.24 14.39 26.62 27.53 28.34 28.51 27.50 27.37 33.13 33.58 30.16 31.11 30.61 28.38 29.58 28.75 33.89 36.29 39.43 41.51 38.10 34.31 28.26 32.59 33.48 34.18 34.72 35.39 34.82 37.15 36.51 37.03 33.83 34.89 35.97 41.33 43.17 44.65 45.02 47.14 45.89 45.85 45.04
28.74 25.17 28.09 27.15 29.39 27.38 28.09 26.92 26.44 26.97 28.44 29.70 29.20 31.76 32.28 30.13 31.38 29.51 33.75 33.40 33.38 37.25 35.86 36.73 28.45 31.11 29.29 34.30 32.91 30.82 34.35 37.45 38.24 37.96 38.25 38.09 37.10 45.95 45.45 46.02 45.64 46.30 44.85 44.08 43.72
36.77 35.85 28.53 25.52 25.50 24.06 24.83 26.00 27.27 29.38 30.52 32.71 31.60 31.10 29.88 31.76 35.84 37.01 36.85 36.34 35.90 33.78 33.25 33.91 31.39 28.37 25.32 30.86 29.67 26.79 33.37 35.01 38.59 38.95 38.18 36.15 40.17 45.65 44.87 44.36 45.64 44.12 43.98 42.93 41.89

GFSSW_sfc_wetblb_075.txt.gz
Wetbulb
52.17 52.49 52.97 52.56 52.60 52.34 52.15 52.13 51.82 51.61 51.47 51.63 51.87 52.17 52.66 53.22 53.53 49.50 43.75 48.20 49.89 55.94 56.27 53.42 52.12 52.29 51.56 49.25 48.78 45.68 40.66 37.66 38.29 39.19 41.92 46.33 45.27 47.95 49.41 48.26 48.93 51.33 54.19 59.92 63.18
51.62 51.98 52.94 52.88 52.17 51.69 51.69 51.42 51.12 51.12 51.19 51.43 51.32 51.80 52.17 53.30 48.80 44.73 50.49 53.29 54.88 56.40 51.57 48.49 47.03 50.13 47.96 47.40 48.00 45.06 39.88 40.13 42.14 43.72 43.14 45.54 45.14 46.62 46.84 47.17 48.38 49.43 56.59 61.91 63.54
51.26 51.57 51.81 51.81 51.77 51.60 51.45 51.01 50.59 50.47 50.73 51.00 51.36 51.55 52.35 52.43 41.75 41.11 57.65 56.26 56.31 57.02 51.86 49.89 48.69 48.77 44.76 46.50 46.25 45.00 40.28 42.85 43.81 45.31 45.28 45.27 45.94 47.83 46.35 45.07 48.62 48.72 51.09 57.38 61.86
51.16 51.32 51.26 51.60 51.31 51.02 50.68 50.94 50.10 50.04 50.31 50.76 51.23 51.82 51.97 48.07 33.66 47.69 55.61 55.85 57.21 56.12 52.88 50.15 45.92 42.45 41.08 40.92 45.14 40.57 43.87 44.97 45.30 46.74 46.18 45.08 47.63 46.58 47.31 47.98 51.30 51.61 51.89 51.46 55.19
51.00 51.01 50.98 50.89 50.94 50.55 50.31 50.52 49.84 49.81 50.24 50.84 51.18 51.55 49.21 41.17 41.14 46.74 51.82 51.40 56.73 54.26 50.93 49.69 44.67 42.26 39.67 39.95 40.90 40.96 42.40 44.64 45.98 46.45 46.60 47.39 45.75 46.17 47.18 49.82 51.58 50.73 50.99 50.97 51.62
51.06 50.73 50.62 50.63 50.57 50.07 49.96 50.58 50.51 49.92 50.64 51.53 51.60 50.95 45.48 36.25 47.78 48.14 48.80 49.12 49.61 53.03 51.24 50.59 47.87 47.06 43.54 41.62 40.63 42.67 43.07 43.54 45.05 45.36 46.25 44.90 45.63 46.36 47.98 50.42 49.57 50.01 50.30 51.16 53.89
51.05 50.83 50.73 50.47 50.22 49.92 49.71 50.33 50.37 50.37 51.15 52.51 52.06 49.30 44.02 41.40 49.83 50.27 49.51 49.03 48.32 50.92 48.27 49.85 49.92 43.89 43.49 39.88 43.71 43.34 40.37 43.34 43.92 44.65 44.46 47.29 43.01 43.80 49.05 50.76 49.17 49.60 49.91 50.83 54.06
50.20 50.30 50.13 50.01 49.67 49.82 50.27 50.14 50.34 50.60 53.17 53.65 52.64 48.09 41.00 50.93 51.35 49.28 49.08 48.57 49.42 48.80 47.73 48.76 48.15 45.23 42.79 43.95 41.68 40.10 40.94 36.57 43.03 43.90 45.43 45.12 38.27 45.71 48.50 47.59 47.75 49.03 48.95 49.11 52.77
49.30 49.30 49.04 49.72 49.94 49.97 49.71 50.03 50.36 51.95 53.01 52.62 48.17 45.40 39.53 52.63 48.31 51.65 50.91 46.74 47.08 47.19 47.11 48.49 46.94 43.59 41.55 37.62 35.64 37.19 33.59 36.02 38.97 45.16 44.40 42.87 41.04 46.42 47.23 46.80 46.94 48.18 49.33 49.96 52.38
48.78 48.48 48.54 48.83 49.54 49.12 49.29 48.76 49.64 52.26 51.55 51.29 48.86 41.53 44.12 44.09 49.32 49.52 49.82 48.70 45.65 45.76 46.00 45.39 42.91 38.53 36.55 35.94 29.55 32.12 33.51 36.05 36.22 42.22 43.11 41.61 40.90 44.41 46.82 47.14 47.53 48.38 49.47 50.04 50.23
48.50 48.31 48.24 48.40 48.60 48.97 45.19 42.75 38.36 38.52 39.02 37.57 39.70 41.92 41.54 45.93 49.40 47.04 48.18 46.66 48.61 45.35 37.91 42.08 37.11 33.62 35.79 36.84 37.72 36.60 34.99 34.00 37.38 41.24 39.96 39.38 41.02 43.51 46.30 46.36 46.56 47.93 48.34 49.44 49.77
47.94 48.01 48.02 48.24 47.89 46.24 43.19 37.74 36.57 37.18 32.04 39.41 39.06 39.61 42.73 44.52 38.93 43.61 47.56 41.85 43.28 38.15 42.02 39.32 34.63 39.44 39.80 38.35 36.22 35.78 33.81 33.72 37.33 39.73 39.21 38.72 38.90 43.83 45.31 46.07 47.08 48.28 49.07 49.03 50.29
47.56 47.81 47.78 47.55 45.55 40.95 39.20 37.71 41.97 40.08 33.04 36.89 41.40 40.37 41.91 43.32 38.80 39.85 43.28 41.78 41.08 37.51 39.05 35.40 37.74 41.78 39.51 38.88 36.75 36.82 34.77 35.21 34.70 38.75 40.67 38.56 36.70 39.65 43.87 46.60 47.25 48.09 49.28 50.05 49.60
47.21 47.41 47.59 46.53 39.66 38.84 38.43 40.98 41.23 40.33 30.06 31.97 38.67 42.43 43.23 43.06 37.50 44.45 44.78 42.94 41.52 36.56 38.97 38.24 41.34 39.75 39.29 37.85 39.00 33.58 39.32 37.95 36.75 35.18 30.49 38.95 30.01 38.43 42.21 43.72 45.73 47.55 49.20 49.60 50.83
46.82 47.20 47.29 45.28 38.71 35.78 38.80 40.82 41.31 40.73 20.61 33.76 40.18 47.73 43.81 39.85 41.48 40.82 45.31 43.34 38.37 38.92 39.68 35.56 38.72 38.79 37.16 37.78 40.92 36.67 41.10 39.08 38.85 36.88 35.74 35.80 32.63 37.03 41.63 40.68 44.08 47.23 48.54 50.15 50.86
46.43 46.77 46.86 41.92 39.23 39.37 39.78 39.61 40.71 26.39 20.57 30.39 39.28 37.07 36.77 40.37 40.37 40.70 41.41 43.25 43.60 40.27 40.73 39.27 42.71 41.63 40.48 41.52 41.74 42.36 39.53 39.37 38.94 36.71 29.36 34.75 33.91 34.92 38.11 41.46 44.24 47.34 49.30 50.16 50.95
46.11 46.03 44.29 43.10 35.68 39.78 39.47 37.71 24.99 21.40 30.74 29.41 31.19 33.09 33.22 34.14 38.28 38.07 36.90 35.40 33.32 29.82 30.06 33.43 35.07 40.89 42.51 37.82 41.01 39.45 35.56 29.50 27.41 27.59 27.32 36.59 33.51 36.46 41.64 43.95 45.69 46.63 48.29 50.18 50.78
45.71 44.18 40.94 41.44 39.78 39.45 37.40 28.91 20.67 25.02 26.30 32.41 30.67 31.20 32.05 34.61 34.85 35.76 34.38 33.08 35.32 33.42 30.08 28.11 27.87 34.75 40.61 37.63 34.87 36.68 35.55 30.14 23.46 25.67 29.52 36.07 31.03 37.00 44.64 46.93 47.62 48.08 48.82 50.39 51.52
43.39 37.16 36.60 38.65 40.68 38.35 30.34 19.02 21.92 25.81 28.48 27.41 29.10 29.20 29.52 32.93 32.55 32.96 33.74 32.50 34.83 35.33 30.80 28.13 29.17 36.97 40.37 41.40 39.88 36.45 33.62 39.03 33.87 33.40 29.45 34.02 38.21 43.41 45.25 45.00 46.08 46.99 48.99 50.30 52.09
35.95 33.67 34.69 38.92 40.42 35.33 25.02 22.05 24.12 29.96 30.09 29.70 23.49 29.49 26.09 26.54 29.27 29.84 31.25 37.55 36.87 36.10 37.56 34.32 28.73 36.11 39.73 42.54 41.98 39.33 41.13 33.62 34.25 24.73 24.84 31.46 34.38 36.02 40.11 42.11 44.26 45.23 46.14 49.13 52.57
33.33 29.81 37.34 39.18 38.56 29.83 19.05 22.38 26.33 31.14 32.34 27.64 26.48 24.91 26.05 24.39 28.10 28.00 31.46 36.63 37.23 39.33 37.24 36.07 34.17 32.75 39.29 36.89 35.64 36.77 35.49 36.25 35.40 33.67 28.07 27.80 33.04 41.69 41.25 42.91 43.20 44.09 44.31 45.12 47.71
31.58 22.72 35.21 37.95 27.18 26.29 23.78 26.90 31.07 29.65 31.60 29.34 30.36 28.52 27.17 28.03 28.23 29.36 30.08 34.24 38.44 38.56 36.54 39.37 35.87 29.90 32.58 39.04 41.47 40.04 37.13 36.98 30.82 30.32 33.96 32.84 32.84 44.86 43.89 43.38 43.59 42.47 43.30 44.29 44.91
28.71 28.51 35.76 34.81 18.93 22.91 27.57 28.20 30.08 28.78 29.18 28.98 28.33 30.68 31.54 27.57 24.45 28.81 32.42 37.66 38.74 36.25 35.70 38.42 34.17 28.99 30.19 35.90 38.97 35.92 37.70 38.29 37.28 34.80 31.40 30.43 33.40 45.61 45.09 42.98 42.54 40.85 40.53 41.06 42.78
28.24 20.22 27.43 32.16 27.92 25.24 22.43 24.28 25.06 32.63 30.79 32.05 30.12 31.61 29.52 27.62 30.46 27.32 30.62 35.53 37.89 37.09 40.02 39.46 33.69 30.77 26.20 29.25 34.27 32.08 34.59 36.18 35.31 29.67 30.02 33.12 36.35 41.31 41.17 42.90 41.62 40.95 40.04 39.22 39.36
29.00 24.10 27.82 21.64 27.10 27.00 26.81 26.32 24.72 25.07 30.33 31.21 30.38 28.50 27.06 26.08 27.43 27.56 30.88 33.33 36.57 37.09 37.73 36.38 29.30 32.32 33.58 34.36 34.38 32.69 32.80 33.52 31.88 34.37 31.09 34.36 34.26 38.79 42.65 43.61 44.15 42.25 39.82 38.30 37.08
28.74 26.82 29.89 27.84 28.01 26.26 25.62 23.93 24.26 25.97 26.45 25.45 26.74 28.19 27.13 26.69 27.78 26.97 29.97 31.21 32.62 36.03 35.43 37.66 30.72 32.83 29.90 34.02 31.97 29.94 32.57 33.26 33.84 33.94 35.15 36.92 36.53 43.47 45.20 46.98 43.82 41.64 39.81 37.73 36.41
35.87 34.95 30.64 26.95 26.16 24.32 24.25 25.01 24.76 27.26 29.18 30.44 29.59 26.76 26.04 30.43 33.96 34.82 35.08 34.96 35.34 34.28 33.32 33.29 32.07 30.19 25.59 30.67 30.26 26.47 30.87 31.88 34.11 37.35 38.16 34.43 39.42 44.54 44.22 44.85 43.23 41.68 39.61 37.19 36.27

GFSSW_sfc_wetblb_078.txt.gz
Wetbulb
51.79 51.99 52.55 53.33 52.88 52.17 52.03 52.02 51.71 51.54 51.49 51.76 51.91 52.30 52.49 52.75 53.36 52.93 47.91 51.47 52.89 56.25 55.47 56.99 56.31 55.19 53.65 51.16 52.62 52.55 45.53 43.87 45.46 44.41 46.04 49.20 47.98 50.93 52.32 50.59 51.88 53.43 54.36 57.48 62.29
51.34 51.80 52.00 51.96 51.91 51.96 51.76 51.50 51.26 51.07 51.10 51.34 51.54 51.75 52.36 52.70 51.15 48.33 54.65 53.45 53.85 55.66 52.44 52.33 50.14 53.13 51.19 50.90 50.59 47.80 44.74 45.28 49.20 48.40 46.77 49.03 48.82 49.50 49.31 49.90 50.55 52.01 54.58 59.88 61.66
51.26 51.48 51.38 51.47 51.43 51.56 51.22 50.96 50.83 50.78 50.87 50.89 51.26 51.79 52.57 52.65 46.50 44.85 57.19 55.50 55.51 56.20 54.10 52.07 50.69 50.40 48.25 50.47 49.97 48.54 44.47 48.57 48.13 48.73 49.11 47.96 48.04 50.09 48.68 47.62 50.04 50.58 52.55 54.81 55.93
51.05 51.27 51.13 51.26 51.32 51.12 50.84 50.85 50.72 50.57 50.67 51.17 51.67 51.99 52.41 51.04 37.72 51.10 54.85 55.06 57.17 56.89 53.64 51.58 49.97 47.20 45.49 44.74 48.52 44.97 47.94 48.37 48.87 49.25 48.67 47.78 49.77 48.51 49.13 49.83 52.29 52.81 53.65 54.10 54.76
51.02 51.09 51.05 51.20 51.20 50.77 50.53 50.25 50.40 50.17 50.52 51.41 51.92 51.95 51.09 45.26 45.14 49.76 51.78 53.89 56.18 54.81 52.50 50.60 47.93 46.80 43.69 44.66 45.72 44.36 45.67 46.97 48.03 48.29 47.73 48.33 47.01 47.54 48.64 51.53 52.89 52.91 52.97 53.65 54.93
51.10 51.02 50.95 50.93 50.78 50.42 50.08 50.14 50.10 50.22 50.71 51.54 51.90 51.75 48.36 39.80 50.86 50.97 50.95 50.94 52.34 53.71 52.27 53.57 50.17 50.60 47.27 46.09 44.39 46.12 46.21 46.84 47.84 47.75 48.27 46.55 47.22 48.50 49.52 52.50 52.37 52.87 52.77 53.66 54.86
50.08 50.38 50.56 50.31 49.86 49.61 49.71 49.86 50.31 50.40 51.11 52.60 53.19 51.13 46.88 44.88 52.13 52.91 52.30 50.43 51.83 52.11 50.20 53.09 53.31 49.08 47.82 44.86 47.61 45.77 42.63 45.41 46.79 47.76 47.22 48.51 45.08 46.39 51.05 52.49 51.74 52.20 52.51 53.34 54.73
49.33 49.24 49.13 49.15 49.15 49.28 49.35 49.85 50.30 50.61 52.48 53.65 53.27 50.43 45.17 52.10 55.07 53.24 53.57 51.88 53.80 52.38 51.31 51.91 52.93 49.15 46.62 47.46 44.37 41.80 42.71 38.98 45.06 47.03 48.22 47.76 41.83 47.32 50.78 51.12 50.96 52.12 52.77 52.69 54.31
48.85 48.70 48.74 48.77 49.41 49.56 49.61 49.51 49.86 52.58 53.25 53.29 51.19 48.54 43.63 53.25 50.62 53.79 54.31 49.91 50.87 52.08 51.07 50.35 49.49 46.76 45.32 40.96 39.13 40.43 36.21 38.63 41.64 47.01 46.41 45.91 43.80 48.23 50.77 50.15 50.08 51.74 52.39 52.82 53.83
48.53 48.46 48.51 48.55 49.24 49.38 49.15 48.62 50.21 53.02 52.79 52.95 49.60 43.00 48.05 46.09 51.18 52.09 53.83 51.61 48.51 47.86 46.44 46.02 45.76 41.95 41.27 38.58 32.57 36.69 37.42 39.47 38.70 43.09 43.88 43.47 44.25 48.29 49.85 50.27 50.31 51.64 52.51 52.97 53.82
48.35 48.22 48.40 48.36 48.23 48.33 48.73 49.57 45.78 44.49 44.11 41.31 41.71 43.64 44.19 47.66 50.47 49.04 50.74 49.52 48.77 46.38 41.19 43.77 39.60 36.86 37.90 40.55 40.97 39.66 36.42 36.22 39.24 42.42 41.23 41.33 42.88 45.87 48.13 49.81 50.17 51.24 51.80 52.46 53.36
47.62 47.75 48.17 48.03 47.37 46.45 48.24 42.56 40.10 40.95 37.00 42.10 42.64 42.64 45.28 46.53 40.40 44.92 50.58 45.41 45.48 41.31 43.88 41.57 37.33 41.64 41.99 41.23 39.61 38.83 36.86 36.42 40.22 43.15 42.63 42.56 43.17 46.53 47.32 47.74 49.40 50.96 51.79 52.59 53.46
47.34 47.37 47.94 47.68 45.17 47.00 43.31 40.89 44.64 44.30 37.64 40.36 43.76 43.64 44.90 45.75 42.04 43.20 46.34 46.18 43.20 40.99 41.33 38.75 40.37 43.51 42.04 40.26 38.36 39.38 38.41 38.76 38.99 42.19 44.42 43.62 42.10 44.71 47.67 48.54 48.98 50.78 52.21 53.00 53.58
46.76 47.24 47.69 46.82 43.22 44.37 42.33 44.40 45.70 45.93 37.24 35.68 42.51 44.82 45.86 45.80 41.91 46.97 47.13 45.06 42.42 39.02 40.63 40.33 42.74 40.39 40.47 39.52 41.19 36.35 41.72 40.28 39.33 39.20 36.21 43.09 34.71 42.81 45.44 46.47 47.51 48.98 51.36 52.68 53.76
46.42 46.98 47.15 45.45 44.31 42.71 42.38 46.33 46.69 44.38 26.81 37.93 42.82 49.96 46.39 42.85 44.92 43.89 47.58 43.87 39.15 39.82 40.33 37.53 39.68 39.82 37.61 38.99 42.34 38.19 42.33 40.49 40.75 39.57 39.51 40.01 37.56 42.20 44.90 43.88 46.48 49.30 51.34 53.21 54.78
46.24 46.45 46.39 45.38 46.12 43.97 46.25 46.27 46.59 34.19 25.33 34.08 41.17 38.22 39.04 41.96 43.12 44.32 43.90 45.97 46.11 41.66 42.53 40.82 44.56 43.29 42.53 43.47 43.11 43.07 40.36 40.37 41.18 39.74 32.34 38.70 38.25 41.01 42.99 44.66 47.32 50.16 51.24 53.25 54.68
46.03 45.93 45.25 45.83 41.02 46.07 46.00 45.12 32.62 27.70 34.23 32.13 33.55 35.59 35.59 37.48 39.80 41.58 40.64 39.80 38.24 34.58 35.42 38.22 39.40 43.46 43.90 39.26 42.37 41.36 36.60 31.00 31.14 29.98 31.34 39.56 37.57 40.71 45.75 48.12 48.88 49.43 52.32 54.47 56.08
45.32 43.42 42.98 45.28 46.11 46.50 44.94 36.21 26.32 28.99 29.95 34.87 33.28 34.77 32.92 36.71 37.21 38.62 38.86 37.86 41.13 39.34 36.01 33.30 31.47 37.43 42.57 40.20 36.54 37.67 36.74 31.90 25.66 29.08 33.75 39.93 34.85 41.97 47.75 49.68 50.89 51.90 53.74 55.61 56.90
42.45 44.98 45.49 45.52 47.23 46.22 38.45 29.25 28.78 29.58 30.87 30.25 33.39 31.23 32.38 35.11 34.84 36.30 37.19 37.49 39.26 40.88 34.63 33.99 33.64 40.19 42.26 42.68 41.86 38.80 35.60 41.32 34.72 36.32 31.82 36.61 41.23 45.81 48.28 48.41 50.01 50.94 51.39 51.87 55.28
42.89 43.21 42.01 45.89 47.54 42.68 36.01 27.38 29.34 32.38 32.64 31.66 26.40 30.67 28.09 31.10 31.46 33.38 34.92 40.28 39.37 41.62 42.48 37.95 32.01 39.27 41.51 43.86 43.03 41.64 43.42 33.29 35.92 27.54 27.54 35.83 37.66 38.92 43.21 45.36 48.16 48.30 48.23 47.97 50.32
42.22 38.08 43.06 45.73 45.66 39.36 29.29 27.94 29.28 32.90 33.62 29.41 28.21 27.83 29.00 28.55 30.03 30.70 32.63 38.26 40.57 40.99 43.34 39.93 37.25 36.42 40.98 38.85 37.88 38.66 37.60 37.77 36.35 35.98 30.79 30.67 35.22 41.95 41.20 43.08 43.87 45.68 45.18 44.93 46.13
40.05 33.22 42.36 44.33 34.31 35.76 30.48 29.89 31.44 31.74 34.15 31.92 32.09 30.65 28.92 29.84 28.49 29.51 30.25 34.91 41.35 41.41 37.16 40.79 37.41 32.98 36.12 42.10 43.76 42.44 39.38 39.44 33.69 31.27 35.26 33.89 36.68 44.79 42.87 41.96 42.11 41.91 42.08 43.14 43.86
36.54 35.44 43.38 41.57 28.97 29.47 30.92 29.86 31.67 31.05 31.93 31.14 30.17 32.30 33.51 30.08 26.20 30.33 31.92 37.29 40.26 38.84 35.85 37.62 35.06 30.78 32.78 38.04 41.65 38.94 39.96 38.08 35.62 35.88 32.58 31.06 36.00 43.59 43.82 41.79 41.50 40.47 39.83 40.16 41.20
36.83 30.25 36.55 38.54 36.46 30.80 26.87 26.37 27.98 34.04 32.18 32.29 31.72 33.61 31.00 29.87 33.13 28.90 30.93 36.15 39.47 38.84 38.34 37.47 35.26 34.19 30.30 30.56 38.04 35.73 37.96 39.46 37.01 32.65 33.54 33.12 35.54 40.17 42.47 41.76 42.20 40.14 39.27 38.36 38.32
36.69 31.40 34.07 28.11 30.88 31.06 30.95 28.92 26.40 23.61 31.27 33.18 30.81 27.57 27.68 25.27 29.23 29.39 32.39 33.61 36.88 38.84 38.40 34.88 33.26 35.07 34.99 34.00 36.02 35.54 35.62 36.50 35.58 36.34 32.38 34.95 36.39 40.50 44.20 44.55 43.70 42.34 39.47 37.20 35.75
32.81 34.21 35.83 32.48 31.09 29.33 28.32 27.56 26.36 28.18 28.76 27.92 27.23 30.87 30.90 26.79 28.45 28.08 31.10 32.44 32.26 36.62 35.39 35.02 32.61 35.44 32.38 33.62 36.15 33.94 36.11 35.71 36.34 37.14 37.14 38.11 37.95 45.27 47.36 47.73 43.38 41.32 39.41 37.01 35.23
37.46 37.99 36.96 29.92 29.83 29.63 28.95 27.88 27.23 29.86 31.38 32.77 31.54 30.51 30.07 31.04 34.70 35.76 36.50 35.85 35.21 32.37 33.11 32.69 32.41 32.72 27.95 34.37 33.41 29.64 34.44 35.57 36.19 38.51 39.35 35.46 40.60 45.93 44.98 44.13 42.66 41.11 39.79 36.96 34.04

GFSSW_sfc_wetblb_081.txt.gz
Wetbulb
51.16 51.44 51.75 52.16 52.09 52.02 52.24 52.19 51.80 51.70 51.62 51.68 51.94 52.20 52.56 52.95 53.42 53.80 50.45 53.97 55.01 56.73 56.52 57.35 56.71 54.04 53.87 52.58 55.59 55.09 47.77 45.28 46.86 47.33 48.98 51.60 50.14 52.84 53.65 51.53 52.35 53.96 54.62 56.43 61.63
51.12 51.60 51.84 51.77 51.75 51.70 51.71 51.70 51.50 51.20 51.42 51.49 51.64 51.96 52.48 52.90 51.99 50.59 55.98 55.21 52.92 54.94 50.97 52.12 52.45 54.17 51.60 50.89 51.99 50.30 46.58 46.75 50.40 50.95 49.79 51.15 50.91 51.02 51.03 50.52 51.06 51.80 54.53 56.42 60.61
51.08 51.39 51.57 51.51 51.42 51.45 51.52 51.20 51.19 51.28 51.08 51.17 51.66 52.37 52.53 53.18 49.44 48.54 57.03 54.93 54.86 55.54 55.97 51.85 53.04 51.36 49.78 51.27 50.66 49.51 45.61 49.49 49.82 51.19 51.33 50.41 50.35 51.92 50.23 49.13 51.70 51.74 53.20 55.27 56.71
50.93 51.57 51.66 51.57 51.62 51.59 51.26 50.93 50.94 51.03 50.78 51.15 52.06 52.57 52.58 52.91 40.53 53.96 55.29 55.34 57.58 56.14 55.37 51.99 49.52 47.23 46.72 46.44 50.29 47.29 49.76 50.06 50.19 50.86 50.62 49.07 50.78 49.50 50.37 50.94 53.40 54.04 54.01 54.81 54.79
51.09 51.53 51.47 51.56 51.54 51.28 50.81 50.53 50.47 50.60 50.72 51.40 52.11 52.39 52.42 47.67 47.94 54.53 54.25 54.66 56.78 55.67 53.08 51.81 48.80 47.99 45.21 46.68 47.52 46.36 47.42 49.03 50.08 49.55 49.08 49.97 48.51 48.80 49.50 52.40 53.77 53.81 54.23 54.11 54.16
50.62 50.60 50.94 51.15 50.91 50.36 50.08 50.17 50.33 50.40 50.76 51.62 52.15 51.98 50.19 43.19 52.33 52.44 51.26 52.69 54.10 54.66 53.05 52.96 50.52 51.03 48.07 47.36 46.48 47.68 47.68 47.69 48.64 48.30 48.65 46.94 47.43 48.72 49.66 51.90 52.01 52.75 53.27 54.42 54.50
49.43 49.89 49.71 49.55 49.48 49.46 49.59 49.80 50.01 50.42 51.07 52.06 53.17 52.78 49.27 47.24 53.56 53.59 52.44 50.83 51.57 52.55 51.69 53.16 53.99 50.73 49.74 46.68 49.66 48.18 44.61 46.22 46.93 47.62 46.80 48.40 45.44 46.91 50.99 52.00 51.79 52.09 53.38 54.53 55.14
48.93 49.01 48.94 49.05 49.07 49.18 49.28 49.66 50.02 50.59 52.48 54.06 54.28 53.25 45.94 53.34 54.92 53.19 53.89 52.22 52.55 52.34 51.30 52.45 52.97 51.26 49.09 49.38 46.44 43.59 44.07 40.26 45.74 47.59 48.43 48.33 42.27 48.65 51.95 51.02 51.10 52.50 53.37 54.06 54.76
48.50 48.83 48.70 48.81 48.86 49.30 49.30 49.55 50.00 53.08 53.15 53.59 53.02 51.23 46.07 53.12 51.51 54.78 54.85 50.52 51.72 52.52 51.60 51.13 50.27 48.11 47.46 42.79 39.97 41.69 36.51 40.26 42.47 47.59 46.64 46.79 44.53 49.46 51.85 51.50 50.66 51.80 53.15 53.80 54.20
48.31 48.35 48.40 48.68 49.26 49.31 49.21 48.89 50.51 52.66 53.21 54.46 52.58 46.86 50.18 47.66 51.26 53.46 55.22 53.39 50.24 49.98 48.13 47.36 46.28 43.67 43.75 41.69 35.12 37.18 39.10 41.33 41.04 44.20 45.80 44.88 44.37 47.06 49.42 50.49 50.89 51.77 52.37 53.16 53.92
48.16 48.05 48.22 48.49 48.52 48.82 48.14 50.72 48.71 48.26 48.51 44.74 44.31 45.27 45.62 48.60 49.99 49.51 52.48 50.84 50.49 47.88 42.35 45.56 41.43 39.17 41.29 43.11 42.22 41.19 39.50 38.35 41.48 43.50 42.23 41.60 42.96 44.65 47.17 48.10 48.84 51.17 51.90 53.10 54.42
47.70 47.60 47.75 48.24 47.92 47.97 49.68 46.70 43.61 43.92 40.47 45.43 45.25 45.79 48.24 49.35 43.93 46.85 50.55 46.55 46.50 42.73 45.31 43.54 39.17 43.45 44.00 43.10 41.32 39.75 38.36 37.18 41.12 43.79 43.73 43.35 43.68 46.56 47.66 47.54 48.96 49.61 51.52 53.17 54.52
46.91 47.17 47.69 47.96 47.46 47.67 45.90 43.88 47.72 47.41 41.88 43.18 47.09 46.97 47.59 48.60 45.31 45.73 47.49 46.94 44.30 42.87 43.42 41.27 43.63 44.91 43.17 41.92 39.40 39.91 38.36 38.67 39.39 43.75 45.13 43.22 41.92 44.71 48.06 49.08 50.14 51.18 51.74 52.97 54.52
46.44 47.03 47.51 47.05 43.92 47.81 45.62 46.76 48.54 49.05 39.84 39.42 44.62 47.16 48.58 48.57 45.03 49.43 49.00 46.31 43.84 41.09 42.84 42.59 45.25 43.07 41.45 40.17 41.55 37.32 43.10 42.26 40.82 39.67 36.01 44.63 35.64 42.99 45.62 47.25 49.34 50.68 51.71 52.37 54.01
46.09 46.55 46.67 46.89 46.87 45.61 45.46 48.01 49.94 47.66 29.38 39.68 44.59 51.04 46.59 44.49 46.25 46.66 49.29 45.46 41.02 42.07 41.46 39.40 41.58 41.29 39.73 40.05 43.25 40.26 44.02 42.11 41.35 38.13 38.35 39.47 37.86 41.11 46.34 45.47 48.14 50.37 51.12 52.17 54.12
46.05 46.31 46.74 47.98 48.16 47.29 48.65 48.75 48.21 38.23 27.90 36.93 42.78 40.64 39.80 43.25 44.01 46.45 46.02 47.85 47.19 43.40 43.42 41.93 46.09 43.50 43.13 44.65 44.39 44.19 41.60 41.45 41.28 38.58 31.90 38.10 38.98 39.55 44.30 46.41 48.80 51.29 52.91 53.29 54.45
45.56 45.66 45.33 47.14 45.05 48.85 49.08 47.19 37.25 30.38 36.47 35.29 36.97 38.31 37.52 37.43 39.56 42.22 42.32 42.04 40.05 37.00 38.08 42.07 42.44 45.09 44.91 40.88 43.76 42.14 38.65 31.18 31.31 32.08 31.47 41.00 38.63 41.25 46.29 49.34 49.73 50.52 52.46 55.23 56.95
44.93 44.01 44.06 47.65 49.16 49.47 47.29 40.59 29.02 32.99 33.77 37.57 36.31 37.04 34.64 37.40 38.69 39.19 39.12 37.76 42.02 41.18 38.07 35.26 33.57 41.25 44.19 41.90 39.88 39.91 38.34 31.52 25.74 28.33 32.14 40.58 36.13 41.59 49.47 51.00 51.91 53.20 54.06 54.70 56.08
43.66 46.20 46.83 47.82 49.52 48.46 41.76 32.86 32.77 34.11 34.55 33.53 35.04 33.15 34.41 36.54 36.60 37.07 37.59 37.49 40.15 42.43 36.69 35.57 35.34 43.12 44.05 44.75 43.52 39.60 36.07 41.12 34.90 36.91 32.60 36.01 40.64 47.51 49.36 49.00 50.64 51.21 52.73 52.27 53.41
44.62 43.98 44.60 48.06 49.00 45.56 38.13 31.26 33.22 35.35 34.81 34.15 29.17 32.63 31.05 34.29 33.15 35.29 35.33 40.59 40.43 43.52 44.73 39.55 34.03 41.48 43.24 44.76 44.75 41.98 43.78 34.64 36.27 27.26 27.46 35.44 37.61 38.24 42.98 45.42 47.44 47.39 47.63 48.38 48.70
43.45 40.31 44.38 48.14 48.26 42.09 34.17 33.11 32.60 35.45 35.30 32.11 30.68 30.76 31.65 30.80 32.18 31.70 32.77 38.06 41.87 41.40 44.04 42.91 38.67 37.21 41.61 39.99 38.96 40.19 38.46 39.17 38.41 36.62 30.05 30.05 34.91 42.84 41.36 43.38 43.12 44.44 45.65 44.07 43.68
42.93 36.64 44.98 46.97 39.23 39.60 35.38 33.59 31.94 34.07 36.32 34.28 34.20 32.62 31.00 31.96 31.35 31.55 31.29 34.45 40.31 41.31 36.65 41.01 39.06 33.77 36.66 42.88 44.95 42.66 40.70 39.35 33.17 32.45 36.34 35.56 35.71 43.21 44.25 42.91 42.82 44.11 42.76 41.58 41.43
40.11 38.89 45.25 44.98 33.70 34.26 33.53 32.68 34.34 33.64 34.10 33.42 32.46 34.18 35.47 32.41 28.49 32.27 33.49 38.07 38.88 38.05 35.66 35.99 35.63 30.76 33.44 38.57 42.46 39.73 41.14 41.78 39.95 38.05 33.49 31.67 34.81 43.44 44.85 45.81 44.77 42.90 41.85 39.68 39.06
40.79 34.36 38.96 41.92 40.14 34.26 31.41 30.94 31.19 35.86 34.36 34.76 33.80 35.19 33.36 31.94 34.64 31.31 32.93 36.64 38.66 39.17 39.30 37.88 32.12 32.44 29.48 32.56 37.51 36.01 39.33 41.13 39.54 34.05 34.14 35.62 37.73 41.72 45.02 45.23 45.34 43.16 42.03 38.06 36.73
40.85 35.51 38.24 32.53 34.59 34.59 34.19 32.14 29.96 28.60 34.45 35.53 31.04 30.84 27.65 27.38 30.12 30.83 33.55 34.98 37.39 38.40 38.08 37.36 30.35 32.59 36.17 38.42 38.07 35.51 35.97 39.19 37.41 38.05 33.59 36.54 37.30 41.24 45.31 46.78 46.03 43.72 40.69 37.41 35.39
34.95 37.97 37.83 36.55 35.29 32.95 30.04 30.68 29.47 31.33 31.40 31.02 28.08 32.81 33.51 29.97 31.69 29.36 32.82 33.46 32.41 36.91 35.80 36.82 29.93 33.42 29.90 37.59 37.61 34.24 37.14 38.28 38.22 37.69 37.85 38.74 38.63 45.75 47.69 49.06 45.93 41.91 40.13 36.45 35.28
42.11 42.37 39.60 33.06 33.95 32.50 32.56 31.03 30.25 32.04 33.50 34.64 33.69 32.47 31.53 33.78 37.06 37.62 37.88 37.34 36.68 34.26 32.97 32.52 32.15 29.48 25.03 36.26 34.80 28.87 35.27 37.37 37.87 39.51 39.12 36.22 41.41 46.18 43.77 45.48 43.04 40.01 38.55 36.27 34.82

GFSSW_sfc_wetblb_084.txt.gz
Wetbulb
52.02 52.06 52.16 52.62 52.57 52.44 52.49 52.40 52.20 51.99 52.02 52.23 52.23 52.45 52.71 53.05 53.44 51.95 48.58 54.24 55.40 57.86 55.07 51.53 56.13 54.22 51.59 50.93 53.93 54.93 46.13 43.51 44.69 45.72 47.60 52.00 50.51 53.30 53.62 51.32 52.10 52.76 53.24 56.60 62.17
52.06 52.42 52.42 52.39 52.07 52.16 52.40 52.40 52.01 51.83 51.86 51.93 51.98 52.35 53.06 53.67 50.54 49.16 57.07 57.53 56.65 54.83 50.02 47.54 50.88 52.48 48.21 48.39 48.87 48.72 46.11 45.34 49.26 49.96 49.05 50.78 50.76 51.43 51.00 50.66 50.98 51.72 55.07 56.84 59.61
51.92 51.92 52.28 52.25 52.14 52.25 52.25 52.21 51.74 51.68 51.76 51.64 51.68 52.55 53.42 53.11 48.56 50.84 57.44 55.90 55.35 54.59 50.33 49.27 50.68 51.95 48.76 49.85 48.62 47.24 44.56 48.49 49.46 50.30 50.61 49.56 49.61 51.82 50.04 48.79 51.68 51.74 53.42 55.40 57.11
51.71 51.68 52.15 52.27 52.25 52.20 52.07 52.30 51.47 51.16 51.33 51.48 52.01 52.71 53.24 51.88 41.01 53.89 58.77 57.35 56.39 52.99 52.15 51.97 48.58 46.85 45.60 45.05 49.19 45.20 47.67 48.33 48.69 50.30 49.86 48.35 50.25 49.27 50.01 50.61 53.11 53.45 54.36 54.79 54.43
51.53 51.75 52.03 52.03 52.03 51.70 51.32 51.25 50.70 50.81 50.90 51.36 52.10 52.60 51.49 47.47 48.41 55.25 57.77 56.14 56.79 53.95 52.33 51.47 47.92 46.05 42.91 44.75 46.00 45.06 46.54 48.20 49.72 49.35 49.56 49.67 47.81 47.54 48.62 51.62 52.95 53.19 53.61 53.53 54.09
51.56 51.07 50.97 51.05 50.90 50.31 50.15 50.34 50.53 50.42 50.89 51.50 52.18 52.15 48.92 41.55 52.80 53.92 51.85 51.99 52.61 53.63 52.45 51.48 49.83 50.15 47.18 46.42 45.68 47.13 47.02 46.74 47.58 47.52 47.94 46.37 46.65 47.27 48.41 50.56 50.55 51.06 51.62 52.86 54.08
51.07 50.05 50.04 49.70 49.66 49.67 49.80 49.78 49.95 50.30 50.89 52.04 52.82 51.78 47.85 45.90 53.35 54.08 52.45 50.09 50.65 51.42 50.96 52.99 52.44 50.08 49.77 46.29 49.20 47.70 44.11 45.90 46.51 46.96 46.02 47.63 44.08 44.71 49.14 50.17 49.88 50.67 51.96 52.13 53.37
49.73 49.30 49.39 49.29 49.16 49.40 49.46 49.59 50.02 50.46 51.85 53.81 54.33 52.57 44.65 53.90 54.73 52.10 53.05 51.69 52.61 51.27 50.83 51.85 52.56 50.04 48.72 49.82 47.08 43.66 43.45 38.22 43.89 45.21 46.34 45.69 40.31 46.21 49.90 49.98 49.49 50.61 51.42 52.40 53.26
49.23 48.96 49.05 48.96 49.38 49.71 49.77 49.70 49.96 51.06 54.19 54.22 52.56 51.10 45.04 54.15 50.70 53.54 54.97 50.74 51.39 50.88 50.72 50.70 49.41 46.40 47.01 43.11 39.95 41.71 36.28 38.67 41.05 45.67 45.46 45.09 42.39 47.47 50.68 50.39 49.90 51.01 51.24 52.34 53.31
48.95 48.68 48.73 48.70 49.45 49.51 49.62 49.78 51.29 52.73 53.00 54.67 53.31 47.27 49.89 47.50 51.51 52.91 54.87 53.38 50.20 49.89 48.42 46.68 44.86 41.86 42.16 40.27 33.12 36.94 37.91 39.75 39.10 42.87 44.41 43.01 42.96 46.59 48.77 48.10 48.30 49.41 51.09 52.19 52.81
48.47 48.46 48.34 48.21 48.69 49.12 48.45 50.78 47.94 48.00 51.35 48.34 47.31 47.01 46.50 49.02 51.03 48.24 50.20 51.36 49.99 47.74 42.10 45.11 40.11 37.23 40.64 42.50 42.24 41.14 39.16 37.62 40.60 43.46 41.59 41.48 41.77 43.78 46.27 46.64 46.72 47.34 48.97 51.16 52.28
48.05 47.71 47.46 47.80 48.14 48.89 47.90 46.85 44.31 44.47 39.22 48.17 45.91 46.61 49.29 50.21 45.19 47.78 49.40 45.83 45.27 41.21 44.35 42.08 37.97 43.13 44.40 43.81 41.89 40.72 38.06 37.43 40.43 42.53 42.17 41.73 41.65 45.31 47.28 47.97 48.14 47.34 48.37 50.03 52.31
46.81 46.81 47.33 47.85 47.79 46.84 46.17 44.80 48.18 48.19 39.94 44.16 47.37 47.85 48.38 49.22 46.19 46.45 47.14 45.46 43.62 41.76 42.60 40.25 42.55 45.77 44.15 42.41 40.77 40.19 37.81 37.56 37.79 41.21 43.12 41.88 39.92 42.76 46.32 47.04 48.58 49.57 49.96 49.80 51.03
46.22 46.49 47.01 47.11 44.08 46.93 45.95 46.97 48.58 49.55 36.97 39.64 43.03 47.20 48.95 48.87 45.00 50.00 50.01 46.10 43.60 40.47 42.32 41.81 45.10 43.44 42.25 40.85 41.34 36.72 42.19 41.21 40.47 38.68 33.74 42.08 31.78 40.42 43.36 45.64 48.12 49.18 49.68 50.20 50.80
46.06 46.40 46.71 46.63 45.15 45.09 45.55 48.11 49.42 48.04 27.70 41.46 44.61 51.35 47.92 44.66 45.26 47.13 50.24 46.22 40.88 42.06 41.97 39.12 41.17 40.81 39.60 40.36 42.13 38.53 43.19 41.91 40.82 38.64 37.74 37.38 34.07 38.47 43.57 43.31 46.06 48.79 50.96 51.22 52.06
45.85 46.32 46.52 46.80 47.35 47.76 48.56 48.52 47.83 37.07 27.71 37.19 44.43 42.35 40.32 42.98 43.96 46.82 45.87 48.06 47.26 42.36 43.13 41.48 45.30 43.41 41.70 43.42 43.85 44.49 41.58 40.72 40.27 38.01 30.75 36.09 35.11 35.69 39.85 44.49 47.73 50.74 52.42 54.71 53.53
45.49 45.64 44.41 46.04 44.28 48.86 48.94 45.48 36.12 29.68 38.89 35.84 37.88 39.46 38.00 37.39 38.47 40.42 41.08 41.73 39.20 35.77 36.89 41.28 41.95 44.32 45.01 40.60 43.27 42.12 38.09 29.74 28.36 29.16 28.34 38.24 35.94 38.90 45.51 48.07 49.14 49.84 52.04 54.01 54.93
45.39 44.74 46.79 47.69 48.79 49.54 46.49 39.16 28.14 34.33 35.62 38.67 37.06 37.20 34.52 37.16 37.36 38.14 38.21 36.65 40.63 39.29 36.57 34.15 32.43 41.04 44.84 41.93 39.25 39.19 38.12 31.16 23.23 25.87 29.49 37.57 32.78 39.74 47.95 50.48 50.16 50.50 50.77 51.68 51.41
44.43 45.35 46.39 48.38 49.12 48.00 40.50 31.42 31.58 34.74 36.31 34.48 35.13 33.04 34.17 36.88 36.80 37.26 37.00 36.07 38.62 39.80 34.68 34.33 34.84 43.08 43.82 44.51 42.95 38.94 35.15 40.53 33.83 35.04 30.13 34.23 38.33 44.58 45.97 46.69 47.46 47.16 47.76 47.47 47.79
41.88 43.42 43.38 47.73 49.04 45.17 37.81 32.75 34.46 36.49 35.66 35.20 29.93 33.41 30.88 34.18 33.77 34.22 34.46 38.27 39.15 43.14 43.86 39.51 32.64 40.24 42.46 44.39 44.18 41.21 43.05 34.28 34.21 25.39 24.89 32.35 35.14 35.94 39.47 41.82 44.60 44.55 44.89 45.48 45.50
41.94 39.71 44.48 47.74 47.76 41.47 33.84 33.78 34.46 36.81 36.26 33.05 31.92 31.29 32.07 31.15 32.37 31.45 31.90 35.64 37.90 39.56 40.67 39.49 36.18 36.38 41.05 38.46 38.15 39.03 37.66 38.25 37.67 34.85 27.65 26.87 31.94 39.17 40.06 42.48 42.86 44.26 44.15 42.79 41.81
42.23 37.55 45.27 47.84 38.14 38.91 34.85 34.94 32.82 35.30 37.14 35.16 34.83 33.20 31.52 32.37 31.19 31.42 31.22 34.52 38.88 38.31 33.56 38.08 35.12 31.27 35.77 42.32 44.16 42.05 39.38 39.57 32.20 30.27 34.56 33.37 33.21 43.89 44.46 44.97 44.64 43.37 43.04 41.56 40.03
38.80 38.58 44.35 45.01 34.52 34.30 34.63 33.88 35.57 34.48 34.92 34.40 33.35 34.88 35.84 32.29 28.52 32.34 33.49 38.26 38.57 36.67 34.66 36.89 32.73 26.75 31.04 37.29 41.06 37.80 40.06 40.28 39.96 37.97 32.06 28.78 32.32 44.02 45.33 45.68 45.15 43.59 42.19 40.01 38.67
39.90 34.65 38.48 40.69 39.84 36.14 32.42 32.12 31.76 36.23 35.12 35.62 34.62 35.55 33.56 31.88 34.53 31.14 32.26 36.56 38.73 38.05 38.49 37.89 32.28 28.56 25.77 30.81 34.59 33.18 37.07 39.17 38.58 33.40 33.28 34.05 35.19 40.36 43.64 45.14 45.56 42.37 40.32 38.10 36.74
39.99 36.67 38.83 33.26 34.55 35.65 34.87 33.12 31.29 29.89 35.19 36.63 33.09 32.99 32.01 28.54 30.32 30.25 33.52 34.58 37.05 38.88 37.64 35.62 27.36 30.58 32.45 34.93 34.79 34.18 34.37 35.69 34.83 36.82 33.46 36.08 36.11 41.18 44.21 45.82 43.52 42.12 40.25 37.35 35.12
35.43 36.98 38.62 36.86 36.24 34.35 31.47 31.41 31.30 32.68 32.13 32.23 30.55 33.18 33.86 30.05 31.06 29.14 32.44 32.93 31.77 35.81 34.65 35.84 28.27 30.86 28.42 33.27 34.25 32.80 36.41 36.36 36.08 36.48 36.64 37.03 37.57 43.78 44.91 46.08 42.95 40.90 38.83 36.17 34.98
41.39 42.11 39.34 34.58 33.97 32.78 32.78 32.61 31.51 33.13 34.30 35.39 34.21 32.88 31.35 33.00 36.04 37.01 36.82 35.97 34.86 32.49 31.97 31.41 29.21 27.80 24.43 31.96 32.17 29.32 35.41 36.44 37.39 38.81 38.87 35.12 39.61 42.10 39.58 38.38 38.14 37.59 36.46 34.35 33.72

GFSSW_sfc_wetblb_087.txt.gz
Wetbulb
53.06 52.63 52.69 52.87 53.00 52.84 52.86 52.70 52.70 52.72 52.52 52.46 52.69 52.76 52.92 53.56 53.91 50.01 44.91 50.44 53.42 57.78 57.25 50.70 48.20 51.64 47.93 43.47 45.34 49.38 41.23 39.57 41.52 42.76 44.63 49.59 48.27 50.50 50.04 47.94 49.30 50.31 49.78 57.42 61.07
52.78 52.55 52.82 52.85 52.63 52.62 52.61 52.66 52.59 52.57 52.28 52.27 52.38 52.36 52.82 53.90 49.27 46.34 52.89 58.72 59.36 57.82 48.37 45.56 43.21 46.79 42.13 42.21 43.14 41.05 39.98 41.59 46.13 47.00 46.25 48.45 47.53 47.24 47.81 48.19 49.07 48.57 52.10 57.02 58.39
52.78 52.51 52.39 52.38 52.60 52.61 52.68 52.91 52.28 52.27 51.99 51.74 51.93 52.23 53.14 52.98 46.22 47.90 58.79 57.83 57.22 55.60 48.03 46.77 45.36 44.49 42.86 43.44 41.95 40.29 38.69 43.31 46.60 48.96 48.80 47.18 46.46 47.37 45.29 45.47 48.52 48.24 50.15 51.76 55.09
52.56 52.31 52.19 52.42 52.57 52.61 52.58 52.65 51.88 51.62 51.40 51.53 51.74 52.36 53.18 49.53 36.79 49.29 58.74 58.20 57.61 50.97 47.81 48.54 47.68 40.33 39.90 40.65 45.21 40.12 44.15 44.53 45.31 47.23 47.06 45.43 46.77 46.37 45.69 46.73 49.34 49.25 49.48 50.43 50.61
52.34 52.00 52.22 52.35 52.33 52.01 51.85 51.53 50.79 51.01 50.90 51.05 51.75 52.42 49.44 44.13 45.88 54.51 58.78 57.76 55.10 51.15 47.49 46.99 46.04 43.30 39.26 41.11 42.22 41.00 42.53 44.65 45.78 45.78 45.36 46.73 44.91 44.99 44.71 47.02 47.88 48.94 49.57 48.30 49.60
52.36 51.96 51.45 51.08 51.18 50.63 50.26 50.34 50.26 50.28 50.64 51.25 51.80 51.74 46.73 38.76 49.41 53.93 53.05 51.47 52.18 51.26 49.97 50.17 47.81 47.45 43.38 42.18 40.34 43.00 43.51 43.48 44.35 44.23 44.49 44.04 43.36 42.97 45.70 46.20 46.62 47.35 47.78 48.76 48.88
52.62 51.80 50.63 50.12 50.16 49.96 49.76 49.76 50.08 50.11 50.72 51.32 52.38 50.49 45.83 42.65 50.98 49.85 51.30 47.71 47.53 47.73 47.29 50.24 49.69 45.94 45.67 43.11 46.65 45.11 40.25 42.03 42.56 42.41 42.83 44.39 41.34 41.94 45.91 46.52 46.16 47.11 48.36 48.56 49.13
52.23 50.79 50.15 49.85 49.70 49.70 49.59 49.87 49.87 50.30 50.98 51.84 53.98 49.83 42.72 52.05 50.62 50.19 49.69 48.87 49.28 49.21 47.42 48.15 48.19 45.18 43.78 45.65 43.85 40.06 39.56 33.95 39.69 42.07 43.30 40.93 36.27 43.15 46.03 45.59 45.31 46.79 47.71 48.38 49.40
50.91 49.76 49.46 49.90 49.83 49.86 49.90 50.15 49.85 50.61 51.80 54.28 50.51 48.50 43.27 54.72 49.78 51.44 49.24 47.30 48.89 49.00 47.65 49.35 45.70 41.25 41.97 36.55 34.00 36.14 30.77 33.59 37.63 43.27 42.21 40.51 38.10 43.21 45.43 46.73 45.48 44.86 45.20 46.90 48.92
49.55 49.31 49.31 48.99 49.45 49.55 49.67 49.86 49.51 50.53 52.43 52.76 51.63 44.63 48.42 46.52 50.52 51.68 50.18 51.91 49.06 47.82 44.87 43.49 39.68 35.79 35.01 32.05 27.22 30.93 31.87 32.54 33.09 37.63 40.23 37.63 37.40 41.92 43.61 43.69 44.05 43.76 45.41 46.34 47.42
49.53 48.95 48.78 48.41 48.47 49.29 47.50 44.98 43.43 43.92 47.74 44.64 45.86 44.31 46.57 47.73 49.56 46.80 48.44 47.55 47.88 44.33 37.93 41.09 33.54 30.16 33.56 36.55 37.91 37.13 35.26 34.23 36.76 40.25 38.54 37.56 37.61 39.96 42.96 43.57 43.95 43.98 45.47 45.72 46.74
49.02 48.15 47.66 47.66 48.16 48.54 45.70 42.03 42.12 41.18 34.85 46.46 48.38 47.51 46.98 48.14 43.88 47.07 48.26 41.43 42.97 37.32 40.60 37.90 33.08 38.88 41.02 40.48 39.10 37.65 34.91 33.19 36.39 39.69 39.23 37.37 36.40 39.43 43.36 43.87 44.46 45.41 46.26 46.12 47.16
47.47 46.96 46.92 47.66 47.72 45.19 43.06 42.86 46.41 45.90 35.08 41.85 44.52 46.37 45.86 48.06 44.58 44.65 44.46 42.45 40.88 38.64 38.93 35.25 38.88 43.05 41.20 39.93 38.46 37.36 34.94 34.66 35.06 38.29 39.25 37.17 35.68 38.29 43.05 44.70 45.96 46.67 47.68 48.19 46.81
45.64 46.14 46.92 47.41 43.67 44.30 42.37 45.29 46.78 46.44 33.10 39.00 40.56 45.36 47.90 47.73 43.87 49.58 48.47 43.43 39.99 37.33 38.72 37.60 42.45 41.40 40.11 39.52 39.74 34.12 39.90 39.52 37.43 35.20 30.11 37.50 28.10 36.93 41.03 41.90 44.31 48.45 48.40 46.65 47.94
45.40 46.07 46.55 46.55 41.23 41.10 43.92 45.73 46.35 44.93 24.96 39.81 42.04 50.71 48.99 44.79 44.35 45.40 48.64 44.14 38.48 38.61 38.63 36.36 38.36 37.67 37.22 37.98 40.75 36.75 40.72 38.38 37.14 34.41 32.47 34.38 30.48 34.32 40.49 39.36 42.20 47.44 50.79 48.82 47.60
45.45 46.07 46.39 44.41 43.27 44.56 45.68 45.43 44.27 34.05 25.19 38.19 43.73 41.49 40.84 42.33 42.30 45.49 44.57 45.68 44.53 39.82 39.54 38.03 41.93 39.44 38.51 41.43 41.06 41.77 39.51 38.27 37.03 33.59 26.26 33.03 32.00 32.32 37.15 40.10 46.05 48.91 49.30 48.90 49.06
44.68 45.53 44.12 44.19 40.67 45.95 45.63 41.84 33.28 26.83 39.55 35.09 37.55 39.46 38.16 37.07 38.74 38.85 39.79 38.04 34.85 30.85 31.80 37.34 38.06 41.19 42.02 37.00 39.94 38.02 33.70 25.56 23.27 23.75 23.81 36.56 32.89 35.96 43.04 45.92 46.53 46.68 47.20 47.40 47.85
44.50 45.11 44.26 44.68 45.59 45.99 43.35 35.55 26.73 34.34 33.72 38.35 36.62 36.47 33.68 36.21 35.46 36.18 35.23 32.25 36.44 35.34 31.14 28.88 27.64 36.78 42.17 38.52 36.08 35.32 33.86 26.05 21.14 22.32 26.37 35.52 29.52 36.57 41.82 46.25 47.08 47.03 46.95 46.32 45.03
44.83 41.13 42.37 45.21 45.72 43.79 37.02 27.65 27.86 32.75 34.84 33.02 34.32 31.06 32.02 35.17 34.77 35.24 34.13 33.36 35.50 38.12 30.87 31.04 31.54 40.84 42.42 42.52 40.58 36.18 31.49 37.78 31.02 32.18 26.67 30.81 34.84 42.44 43.71 44.26 45.14 45.04 44.39 42.62 42.19
39.07 40.51 41.25 44.32 44.72 41.96 33.76 31.10 32.52 35.30 35.02 34.75 29.35 33.00 29.34 31.19 31.07 30.58 31.42 35.60 33.36 38.48 37.24 34.20 28.12 38.63 40.68 42.52 41.06 38.30 39.95 27.79 31.07 24.41 23.04 30.04 33.20 34.46 37.98 40.36 42.95 42.48 41.48 40.83 40.50
37.94 35.69 41.40 44.12 43.34 37.48 29.16 31.30 33.32 36.56 36.17 32.36 31.08 29.95 30.31 29.57 30.62 29.44 30.70 34.04 35.53 34.61 35.15 34.81 32.51 31.87 36.83 35.79 34.51 35.33 34.14 34.83 34.55 32.33 25.26 24.22 29.62 38.84 39.51 41.78 42.21 41.84 40.85 39.12 38.63
37.76 32.00 41.69 43.24 34.18 35.96 30.41 34.47 34.88 34.84 37.12 35.15 34.82 32.81 31.07 31.77 29.88 29.88 29.55 32.80 37.86 35.82 30.39 35.51 32.34 25.32 29.02 36.51 39.07 38.07 36.71 35.95 28.41 28.10 31.07 30.53 31.34 42.32 43.05 43.74 42.88 40.72 40.08 38.59 37.87
34.80 33.51 40.34 41.92 28.99 28.81 33.24 33.40 35.48 34.14 34.44 33.90 32.99 34.72 34.45 31.00 26.78 31.62 32.03 36.83 37.52 35.22 32.04 33.03 27.99 22.11 24.80 31.91 36.45 33.94 35.95 35.55 36.28 35.88 30.69 27.46 30.59 43.57 43.99 44.36 41.86 38.28 37.35 36.68 36.19
35.56 29.81 33.18 36.39 35.41 32.75 30.10 30.85 30.64 35.75 34.07 35.25 33.95 35.31 32.33 30.39 32.17 29.25 30.36 35.78 37.68 36.46 39.64 36.46 29.20 25.81 20.44 24.89 31.32 29.28 32.25 34.39 34.17 30.65 31.61 31.42 33.95 39.69 42.74 41.39 39.69 37.65 36.77 35.72 35.22
36.51 32.70 34.84 27.46 28.92 31.80 32.92 32.69 30.99 29.92 34.95 35.34 31.39 31.72 30.40 25.78 27.43 26.83 30.97 32.71 35.27 37.73 34.90 32.58 24.07 27.27 28.63 30.05 30.99 30.22 30.47 32.82 31.19 33.00 30.77 34.33 34.73 39.99 40.97 40.08 39.39 38.63 37.04 35.26 34.46
32.28 32.27 34.36 32.24 33.57 31.65 30.59 29.62 31.08 31.88 31.70 30.69 29.57 32.26 31.06 26.69 28.45 25.30 29.31 29.49 29.24 32.94 31.26 31.86 23.63 27.37 24.36 28.89 29.99 28.71 31.37 33.31 34.27 35.46 36.06 35.57 35.10 41.90 42.13 41.30 38.53 37.33 35.80 33.61 33.15
36.65 37.77 34.71 32.81 29.75 28.07 28.21 31.82 31.60 32.73 33.79 34.32 32.48 30.23 28.97 30.40 32.43 32.38 32.55 32.28 31.85 29.32 27.09 26.42 23.23 25.38 20.54 28.20 28.56 24.80 30.77 32.57 35.29 37.68 36.16 32.13 37.39 39.86 35.79 34.84 34.94 34.74 33.79 32.42 32.38

GFSSW_sfc_wetblb_090.txt.gz
Wetbulb
55.06 54.00 53.31 53.12 53.46 53.28 53.04 53.05 53.06 53.18 53.12 52.98 52.86 52.90 53.05 53.32 53.77 49.50 43.29 48.31 50.47 55.60 57.14 49.32 48.35 46.94 46.25 40.10 42.98 45.32 36.69 34.23 37.00 40.24 42.72 48.91 47.02 49.46 47.91 46.76 48.77 49.70 48.66 55.42 61.27
54.93 53.93 53.30 53.23 53.18 53.20 53.00 53.00 53.07 53.00 52.86 52.64 52.40 52.44 52.62 53.88 49.10 46.08 51.54 56.84 57.36 59.29 48.68 47.25 44.99 43.24 42.66 39.05 41.18 39.61 35.09 38.36 43.95 45.12 43.75 46.92 47.42 47.68 45.85 46.30 47.71 48.25 51.62 57.47 59.71
54.82 53.79 53.25 53.08 52.97 53.03 52.96 53.43 52.54 52.52 52.45 51.97 51.99 52.12 52.85 52.74 45.14 46.42 58.39 57.37 60.24 57.82 47.48 46.80 45.10 42.39 40.97 40.51 40.38 38.22 37.65 41.70 43.05 44.66 45.53 45.81 46.74 48.93 45.60 43.78 46.55 46.83 48.59 50.84 54.75
54.59 53.42 53.03 52.75 52.84 52.92 53.21 53.11 52.14 51.94 51.60 51.47 51.69 52.06 53.02 49.13 33.79 48.18 58.57 59.33 58.37 50.76 46.42 45.19 45.30 39.78 37.47 39.38 42.04 37.72 42.37 43.04 43.45 45.26 44.35 43.16 45.67 44.69 44.24 45.75 48.46 48.16 47.95 47.85 49.46
54.40 53.67 52.63 52.80 52.85 52.44 52.65 51.99 50.99 50.80 50.95 51.04 51.40 52.17 48.89 43.55 44.21 51.76 59.34 58.60 53.22 48.87 46.30 45.83 44.36 42.70 38.10 38.86 39.90 39.58 42.28 44.16 44.86 44.70 44.45 44.92 43.06 43.45 43.82 45.29 46.57 46.70 47.16 46.30 46.88
54.01 53.52 52.57 52.47 51.83 51.28 50.72 50.94 50.66 50.35 50.52 50.90 51.37 51.47 45.70 35.76 46.10 51.81 55.12 53.18 53.19 49.59 48.37 46.81 46.52 46.69 42.45 40.28 38.03 41.19 40.94 40.93 42.21 42.23 42.62 41.91 41.54 40.89 43.82 45.31 45.39 45.51 45.89 46.34 46.53
53.67 53.28 52.79 51.60 50.81 50.31 50.29 50.22 50.58 50.26 50.39 50.88 51.54 49.62 44.71 40.71 47.35 50.26 51.76 47.86 48.79 50.88 47.67 49.36 48.81 43.60 42.87 41.03 44.80 43.36 38.86 40.33 40.50 40.13 39.85 40.73 39.23 39.11 43.27 44.01 43.53 45.10 46.44 46.88 47.86
52.92 52.43 52.16 50.54 50.00 49.85 49.88 50.18 50.24 50.07 50.75 51.41 52.04 49.07 41.00 50.91 49.63 49.27 48.40 47.32 47.73 46.94 46.47 46.55 45.78 43.22 41.31 42.74 40.99 38.43 37.20 31.97 38.04 40.70 41.96 39.15 35.02 41.30 43.75 43.19 43.30 44.83 45.41 46.23 46.82
52.46 52.18 50.07 49.73 49.89 49.76 49.49 49.60 49.90 50.07 50.77 52.00 50.59 47.16 42.09 54.28 49.89 52.04 50.01 47.03 47.59 47.17 46.39 49.03 44.39 39.80 39.47 34.57 31.81 33.61 28.71 32.42 35.83 40.43 39.92 38.23 36.17 40.71 43.01 43.66 42.11 42.89 42.69 44.33 45.52
51.96 49.96 49.17 49.14 49.00 49.54 49.80 49.18 49.41 49.36 50.41 52.53 50.55 44.64 45.73 45.61 49.81 50.34 48.87 48.56 45.77 46.26 43.46 41.53 37.87 34.07 32.59 30.64 25.19 28.58 29.95 29.80 30.27 35.17 37.86 36.60 35.98 40.08 41.27 40.67 41.75 41.10 41.03 42.13 44.19
50.24 49.05 49.33 48.87 48.37 48.72 47.69 44.03 43.32 42.76 45.69 43.17 42.75 43.40 46.26 47.42 48.16 46.23 48.32 47.24 46.09 43.42 35.54 39.13 32.92 29.19 31.48 33.72 35.11 34.79 32.89 31.61 34.89 38.02 35.77 35.32 35.31 38.47 41.04 39.93 40.51 42.41 43.60 44.56 45.55
49.43 49.60 48.97 48.14 47.85 48.16 45.28 39.97 42.39 41.49 35.16 45.39 46.90 46.84 48.36 49.06 43.08 45.92 46.78 40.72 39.93 36.37 38.28 35.32 31.28 37.25 38.34 37.45 36.03 34.89 32.33 31.86 35.95 38.15 36.80 36.45 35.81 39.47 39.81 39.88 42.38 43.52 43.94 44.99 46.50
49.98 48.61 47.28 47.12 47.34 43.97 40.91 41.82 46.82 44.89 34.19 38.90 42.53 45.08 47.05 47.81 42.84 44.19 44.71 41.17 39.39 37.35 36.85 33.15 37.14 41.39 38.97 37.33 35.60 35.02 32.76 32.58 34.02 37.16 36.49 33.74 34.08 37.52 40.20 41.78 43.92 45.15 46.10 48.66 48.38
47.78 46.60 46.18 46.82 41.95 41.37 40.38 44.56 45.78 45.12 28.44 35.80 39.93 43.27 47.02 47.08 42.36 47.94 44.98 41.58 38.49 36.00 37.41 36.08 40.79 39.34 38.13 36.76 37.43 32.40 38.99 37.74 35.72 32.18 27.72 35.29 26.17 34.28 38.38 40.22 42.62 43.80 46.90 47.01 47.26
46.35 45.53 45.73 46.03 39.92 39.41 43.02 43.89 44.76 43.72 22.15 39.76 40.12 49.10 47.82 43.59 44.45 44.15 47.55 43.32 37.25 37.51 36.94 34.96 36.67 35.96 35.01 35.95 38.99 35.47 39.63 37.11 35.33 31.49 30.02 32.33 27.54 31.07 39.42 40.77 42.91 46.21 47.05 46.95 46.49
45.35 45.13 45.60 43.17 41.53 43.04 44.00 43.96 43.59 32.76 22.99 36.33 42.64 41.65 41.40 43.43 42.51 44.71 44.20 45.28 43.56 38.53 37.54 36.52 39.70 37.77 37.20 39.61 39.41 40.03 37.37 36.10 34.60 31.38 25.33 31.21 28.78 29.07 37.62 39.40 41.28 45.16 46.15 46.36 45.41
44.13 44.11 43.08 43.54 39.67 44.50 44.13 40.87 32.31 26.50 39.31 35.49 37.69 40.93 39.98 38.15 39.32 41.82 39.86 37.29 34.76 30.34 30.39 35.24 36.56 38.86 40.27 35.27 37.36 36.51 31.85 24.35 22.64 21.69 22.38 33.29 30.25 32.52 39.46 41.99 42.73 44.33 45.17 44.57 44.43
43.78 44.00 42.90 43.19 43.56 44.58 42.24 34.83 27.31 32.32 32.72 36.58 36.20 36.49 33.88 36.02 35.29 35.11 34.45 31.70 37.58 35.20 30.21 27.03 25.76 34.31 39.79 35.82 33.73 33.27 32.41 25.25 20.60 20.85 24.48 33.58 26.39 34.46 42.69 43.85 44.52 46.48 45.12 43.50 42.05
43.34 40.49 39.64 44.04 43.94 43.23 37.28 27.96 27.16 31.60 33.65 32.59 34.23 31.09 31.86 34.35 33.50 34.59 32.65 31.95 33.53 33.44 29.30 26.70 28.77 37.46 40.07 39.34 37.26 34.21 29.78 35.83 28.52 29.89 25.33 28.16 33.92 40.39 43.31 43.12 44.47 45.19 43.41 40.52 39.97
38.54 39.04 40.48 44.60 43.85 41.14 33.32 30.61 30.27 34.47 35.04 34.56 29.62 31.55 27.67 29.45 29.24 29.81 30.81 33.97 32.83 34.19 33.80 31.30 23.84 35.85 36.43 39.09 39.32 37.79 38.78 26.66 26.53 21.33 21.03 26.97 30.85 33.00 38.07 40.31 43.30 42.66 40.25 38.08 38.43
37.41 34.87 41.18 43.64 43.07 37.11 27.08 29.78 32.55 36.07 36.25 32.50 30.20 28.98 29.76 28.66 29.61 28.47 29.96 33.59 34.73 33.69 34.22 32.44 29.74 28.34 32.99 33.07 29.35 30.28 30.01 32.58 31.97 29.71 23.40 21.13 25.04 39.20 39.16 41.18 42.18 40.14 38.68 36.02 36.21
36.46 30.48 40.75 42.55 33.75 34.78 28.27 33.64 36.76 34.90 37.40 35.05 34.38 32.92 30.60 31.31 29.30 29.41 29.03 32.05 36.74 35.33 30.08 33.37 29.83 24.90 26.54 34.05 35.84 35.23 33.65 35.50 28.99 26.49 28.75 26.87 27.81 42.26 41.77 42.71 39.90 37.36 37.13 35.95 35.53
33.72 32.57 39.36 41.40 26.35 27.03 32.65 33.30 34.76 34.33 34.10 33.97 32.78 34.32 33.98 30.28 26.29 30.94 30.82 35.74 36.66 34.13 30.47 31.32 25.99 19.79 21.63 27.59 33.39 30.80 32.72 33.09 32.90 32.81 27.09 26.29 28.01 42.77 43.63 38.99 38.31 36.42 34.94 35.08 34.75
34.84 26.28 31.07 34.05 34.92 31.19 29.02 30.63 30.26 35.69 33.85 35.19 34.16 34.64 31.38 29.59 31.27 27.78 29.26 34.31 35.85 35.40 39.39 35.12 26.90 24.31 18.27 22.63 28.07 24.96 28.57 31.08 30.82 26.84 28.21 28.84 32.84 38.26 40.04 38.48 37.69 35.96 34.68 35.01 34.31
33.46 29.86 33.80 26.47 29.25 30.79 32.22 32.78 30.21 29.05 34.52 35.34 30.82 31.09 29.44 25.44 26.09 25.56 29.18 30.72 33.32 35.88 33.11 30.60 23.53 26.20 27.32 28.39 28.63 27.77 27.46 28.80 28.11 29.21 27.33 31.96 33.08 37.64 39.10 38.20 37.23 36.70 35.49 34.12 33.03
31.13 31.56 34.08 30.76 33.29 30.64 30.38 29.32 30.39 31.09 32.17 30.26 28.44 31.54 29.56 24.91 26.61 24.55 27.43 27.69 27.20 31.35 29.04 29.22 22.70 25.21 21.91 26.89 27.37 25.18 28.47 29.36 30.34 31.08 32.47 32.71 34.94 36.41 37.90 38.09 35.82 35.08 33.93 32.37 31.62
35.67 36.39 33.73 30.49 28.97 27.78 27.30 30.71 30.62 32.16 33.07 32.72 31.08 28.66 27.41 29.00 30.88 30.93 31.01 30.79 30.04 27.77 25.79 25.15 21.11 21.10 17.80 25.84 25.84 21.60 27.35 29.37 30.89 35.06 35.52 31.64 36.65 37.17 33.16 31.65 31.24 32.31 31.70 30.62 30.60

GFSSW_sfc_wetblb_093.txt.gz
Wetbulb
56.44 55.88 54.94 53.81 53.54 53.67 53.43 53.21 53.12 53.40 53.36 53.31 52.85 52.75 52.98 53.11 53.23 48.66 42.02 46.08 49.11 55.18 56.47 47.80 47.12 46.58 44.21 39.41 41.27 43.73 35.86 31.49 34.97 38.13 39.85 46.66 44.82 47.04 48.38 46.28 46.82 47.82 47.56 52.51 60.94
55.98 55.83 55.16 54.11 54.16 53.49 53.35 53.16 53.11 52.90 52.88 52.64 52.31 52.29 52.47 53.18 48.12 44.23 49.91 54.39 55.76 57.99 48.57 46.25 44.00 43.64 40.94 39.22 38.96 38.41 33.69 36.11 41.90 42.56 42.36 45.01 45.06 46.40 44.94 46.44 46.70 46.84 49.49 51.20 57.43
56.32 55.78 55.20 53.94 53.58 53.26 53.06 53.33 52.72 52.67 52.17 51.83 51.77 51.83 52.44 52.04 40.73 41.13 57.38 56.57 58.07 57.58 47.59 45.89 44.50 41.76 38.54 38.71 38.27 36.98 36.67 40.34 42.15 44.11 42.85 41.58 43.28 46.35 43.64 42.90 45.68 45.70 47.18 48.83 48.82
56.62 56.33 54.93 54.00 53.52 53.22 53.54 53.63 52.41 51.94 51.26 51.22 51.22 51.68 52.38 47.88 33.18 45.28 58.63 57.89 58.79 53.18 45.67 43.04 41.96 37.13 35.13 38.20 41.68 36.34 39.79 40.92 40.24 43.02 41.63 41.24 43.45 42.15 43.18 44.00 46.92 47.63 47.18 46.44 47.65
56.14 55.84 55.05 53.77 53.28 53.19 53.35 52.45 51.28 50.97 50.76 50.64 51.06 51.61 47.66 40.78 41.44 47.60 59.34 58.66 53.66 46.91 44.54 44.62 42.66 40.08 36.16 37.26 37.98 37.37 39.94 41.74 43.31 43.20 42.71 43.51 41.26 41.78 41.86 44.84 45.07 45.62 45.90 44.66 46.28
55.56 55.19 54.31 53.33 53.11 52.74 51.77 51.36 50.86 50.52 50.35 50.29 50.74 50.63 44.62 33.15 44.55 47.99 53.85 53.62 49.35 46.04 46.08 45.07 44.45 44.99 41.71 40.29 37.16 39.42 39.09 39.32 39.87 40.34 40.00 40.66 40.18 38.89 41.74 44.63 43.46 43.49 43.67 44.98 45.62
55.18 54.57 53.82 52.81 52.77 51.61 50.71 50.62 50.66 50.33 50.20 50.40 50.67 48.69 42.97 39.40 45.06 45.86 52.65 48.85 48.77 49.64 46.81 48.60 48.34 44.15 42.06 39.36 43.00 42.20 37.81 38.75 39.66 39.01 39.30 40.31 37.81 37.02 41.67 41.64 40.79 41.86 43.40 43.92 44.48
54.75 53.89 53.13 52.76 51.51 50.28 50.32 50.13 50.07 50.03 49.99 50.82 51.33 48.53 39.32 50.01 47.88 47.24 46.17 46.82 48.20 47.71 48.86 47.13 45.62 42.47 40.66 42.12 39.84 36.64 35.83 31.58 36.70 39.23 40.59 37.38 33.92 39.61 42.66 40.68 40.78 41.72 43.33 44.09 44.02
54.12 53.20 52.39 50.87 49.64 49.59 49.73 49.48 49.47 49.86 50.06 50.54 49.71 46.05 38.68 52.32 48.63 50.75 48.33 46.08 47.58 45.54 44.93 47.93 43.06 39.24 38.85 34.07 31.68 31.91 27.94 30.74 34.24 38.66 37.56 35.95 34.94 38.52 41.74 41.54 40.36 41.08 40.97 42.20 43.92
53.54 52.53 51.58 49.79 48.87 48.51 48.84 48.84 48.67 49.28 49.26 51.00 49.94 41.30 44.10 44.01 49.72 49.78 48.82 48.23 45.27 44.79 42.65 41.45 37.22 33.58 31.86 31.13 26.06 27.66 28.12 26.37 28.79 35.13 34.76 34.26 35.30 40.02 39.61 38.77 39.80 39.13 40.12 41.46 42.06
52.76 51.82 49.67 48.88 48.17 47.88 47.28 43.29 43.33 42.49 43.74 41.75 41.77 40.97 43.28 47.52 46.92 45.30 47.92 46.07 45.21 42.22 34.79 37.15 31.77 29.59 31.92 33.03 33.81 32.83 30.78 29.20 31.71 35.94 33.61 34.64 35.30 37.22 39.17 37.35 37.74 40.53 41.61 41.91 43.10
52.13 50.26 49.43 48.92 48.57 47.97 45.90 38.69 42.46 40.73 34.01 44.03 45.16 43.74 46.62 47.65 43.92 44.68 45.79 41.54 39.61 35.92 37.77 34.09 30.74 36.58 36.90 35.45 33.81 32.29 29.76 29.69 33.34 36.92 34.18 32.82 34.49 38.29 38.16 38.09 38.68 40.12 41.74 45.40 46.80
50.30 49.73 49.54 48.49 47.34 45.08 41.51 40.32 46.54 44.46 31.10 36.65 42.98 43.11 45.13 47.88 43.85 43.08 43.64 40.32 36.93 34.86 35.67 31.44 36.25 40.01 37.50 34.77 33.08 32.19 30.20 31.22 31.55 35.03 35.28 33.00 32.58 35.59 38.38 39.97 46.08 46.35 46.88 47.06 46.36
49.82 49.33 47.78 47.33 40.89 40.81 37.67 42.69 44.92 44.22 24.20 31.13 35.93 41.66 45.80 45.88 40.11 46.52 44.63 41.02 37.06 34.64 36.10 34.88 40.04 37.99 35.92 34.77 35.37 29.67 36.78 36.10 34.66 31.03 26.71 33.38 24.44 34.45 35.64 41.68 43.89 45.00 44.60 45.00 45.86
48.06 46.83 46.82 45.29 39.54 37.70 41.39 42.74 46.67 43.33 17.46 35.84 37.82 46.94 46.09 41.40 42.59 42.93 44.75 41.46 35.32 35.77 34.96 33.03 35.32 34.45 34.10 35.23 37.61 34.24 38.54 36.26 34.59 30.83 29.82 30.42 24.89 30.48 37.96 38.44 40.72 42.29 44.61 44.48 44.84
46.33 46.10 45.83 42.91 40.94 41.24 42.80 44.61 42.99 30.39 18.67 34.37 40.61 39.19 39.45 41.83 42.18 43.38 42.36 43.53 42.08 36.63 35.10 35.46 38.45 36.92 36.26 38.80 38.38 39.28 36.60 34.78 32.61 30.36 23.70 29.64 27.06 25.39 34.69 37.79 40.65 43.46 45.62 44.81 44.13
45.46 45.25 43.40 43.08 38.75 43.82 43.85 41.33 29.02 23.28 35.82 34.78 36.56 39.78 38.86 38.49 39.88 40.52 38.70 36.16 31.79 28.90 29.39 34.50 35.73 38.48 39.59 34.82 37.22 36.00 31.40 23.77 22.10 21.77 21.93 30.57 27.54 29.09 38.17 41.50 42.32 43.30 44.78 43.37 43.13
44.39 44.05 42.65 42.32 42.35 43.50 42.24 35.13 23.93 29.12 31.70 35.06 38.13 39.15 35.95 35.31 34.79 36.45 35.59 31.75 32.89 33.66 30.05 27.51 26.75 34.86 38.95 35.82 33.27 32.34 31.27 24.77 20.24 20.93 22.89 30.95 24.62 30.32 42.01 43.79 45.70 46.61 43.18 42.42 40.82
43.38 40.08 39.23 43.23 42.95 42.87 36.89 26.71 26.82 30.00 33.19 32.04 34.19 31.50 30.87 33.00 32.77 33.00 31.23 30.58 31.40 31.24 28.55 25.87 28.34 35.66 37.89 36.49 35.98 32.93 28.34 33.86 28.97 27.20 24.16 26.40 30.69 38.64 42.20 42.38 44.50 42.72 40.63 38.67 38.61
38.05 38.70 39.72 44.72 43.68 41.06 34.41 30.14 30.59 33.94 34.38 34.27 28.86 31.58 26.91 28.94 29.42 30.31 29.92 32.04 30.78 32.75 33.72 30.21 23.96 33.93 34.31 37.61 35.86 32.62 35.93 25.60 26.75 22.84 20.40 24.70 26.49 27.42 36.08 38.88 42.52 39.46 37.31 36.43 37.06
37.41 34.49 40.73 43.52 43.48 37.73 27.77 30.05 32.27 35.77 35.80 32.16 30.16 29.08 29.54 28.70 29.59 28.55 29.22 32.21 33.23 32.32 34.43 31.48 27.63 27.18 31.08 29.33 27.15 28.43 29.80 30.92 32.36 29.36 23.31 20.12 22.09 36.07 36.95 39.92 38.35 37.01 36.16 35.29 35.09
35.96 29.13 39.28 42.25 33.61 34.19 29.89 33.08 36.69 34.41 37.03 34.74 34.84 32.80 30.53 30.75 28.49 28.90 27.74 31.36 36.07 34.46 29.55 32.02 27.67 23.37 24.26 32.06 33.15 30.94 32.14 32.39 26.17 24.60 26.71 27.06 25.04 39.13 38.53 38.69 37.69 35.78 35.53 35.37 34.56
32.43 29.57 38.65 40.51 27.67 27.31 31.48 32.41 34.07 33.76 33.09 33.21 32.03 33.88 33.50 29.40 25.54 29.31 30.46 34.94 35.23 33.67 28.87 29.25 24.58 18.36 20.16 25.96 30.66 28.45 29.72 30.68 29.97 29.72 24.76 23.86 25.61 39.21 39.64 37.85 36.93 34.76 34.80 34.37 33.70
32.89 24.05 29.51 34.48 34.74 30.70 29.37 30.39 30.07 35.61 33.20 34.87 33.39 33.69 30.37 28.86 30.40 27.83 28.92 33.03 34.69 34.90 38.48 34.20 26.40 23.03 16.87 21.53 25.98 24.31 26.72 28.54 27.16 19.45 22.54 24.60 27.01 34.95 37.68 38.26 36.32 35.06 34.54 33.71 32.88
33.05 28.17 32.45 26.14 28.51 30.87 31.36 32.10 29.36 28.77 33.72 34.66 30.35 30.58 29.23 25.91 26.40 25.52 28.50 29.64 32.16 35.13 32.33 29.36 22.81 25.33 25.79 26.60 25.80 24.23 24.28 25.73 24.81 25.87 22.18 25.12 27.84 33.46 36.12 35.28 35.05 34.82 34.17 32.71 31.74
31.11 30.18 32.21 30.55 32.61 29.71 29.45 29.11 30.05 30.63 31.68 29.54 28.53 29.95 29.12 25.26 26.15 24.22 26.92 26.72 26.18 29.62 27.34 27.97 22.19 23.99 22.13 24.21 24.05 23.05 26.15 26.94 26.92 27.60 27.51 28.61 28.13 37.76 37.07 35.90 33.35 32.41 31.69 30.45 30.59
35.19 35.69 32.44 29.76 28.27 27.12 27.51 30.26 30.38 31.33 32.09 32.44 31.08 28.39 27.11 28.33 30.38 30.53 30.52 30.04 29.07 27.54 25.48 24.38 20.74 19.94 17.46 24.50 24.36 19.99 25.79 29.19 27.95 29.81 30.58 25.44 32.82 35.88 32.85 30.21 29.52 30.18 30.23 29.52 29.75

GFSSW_sfc_wetblb_099.txt.gz
Wetbulb
58.97 58.76 58.21 57.35 56.99 55.88 54.69 54.17 53.92 53.58 53.39 53.37 53.01 52.60 52.75 52.95 53.27 48.91 43.14 48.96 51.40 54.16 55.65 50.71 50.58 48.66 48.03 45.43 48.32 46.70 40.24 36.75 38.58 39.49 41.69 47.30 46.91 49.93 51.82 50.06 49.93 50.95 51.64 53.16 54.84
59.37 59.22 58.31 57.67 56.91 56.23 55.12 54.24 53.94 53.42 53.30 52.89 52.14 52.04 52.27 52.95 48.59 44.46 50.77 53.27 56.48 56.51 49.64 47.87 45.64 46.99 46.06 44.32 43.94 45.37 39.84 38.83 43.26 44.37 44.07 46.48 46.57 47.61 47.31 47.92 48.13 49.28 51.73 52.90 53.25
59.52 59.12 58.74 57.98 57.18 56.45 55.17 54.37 53.55 53.22 52.91 51.71 51.60 51.73 52.58 52.30 41.30 42.66 56.26 56.10 56.24 57.20 50.06 49.85 47.92 45.97 42.86 43.53 41.48 41.59 38.78 42.21 44.28 46.54 47.23 46.11 45.93 48.15 46.58 44.73 47.21 47.59 49.37 51.21 51.29
59.47 59.09 58.59 58.12 57.38 56.49 55.13 54.21 53.27 52.70 51.81 51.11 51.06 51.49 52.39 48.29 39.97 46.85 59.02 56.72 57.21 55.50 48.28 46.27 43.61 41.50 39.90 40.22 43.02 38.07 41.24 42.92 44.05 46.11 45.75 44.64 46.92 44.47 45.07 46.06 49.61 49.70 50.06 48.80 49.58
58.87 58.43 58.40 58.19 57.59 56.53 54.77 54.03 52.61 51.55 51.05 50.85 50.50 51.29 47.61 39.36 38.74 52.65 58.83 57.14 55.64 52.13 46.79 44.94 42.77 40.35 37.78 38.59 40.76 40.34 41.89 43.91 44.49 44.70 44.57 45.11 43.62 44.42 44.62 47.66 48.68 47.48 47.60 48.17 48.27
58.56 57.92 57.80 57.71 57.21 56.12 54.52 53.20 51.35 50.61 50.36 50.50 50.42 50.45 44.54 31.84 44.67 49.10 49.47 55.15 50.90 48.89 46.01 44.99 43.65 43.49 40.46 40.83 40.02 42.08 41.90 42.79 43.14 43.24 42.71 42.06 43.42 42.38 45.16 47.40 46.54 45.97 46.59 47.37 47.70
58.35 57.73 57.29 57.13 56.67 55.35 53.78 51.96 50.43 49.74 49.82 50.10 49.84 48.38 42.30 37.87 46.40 47.33 49.38 51.85 49.41 46.90 44.19 46.21 47.51 46.13 45.15 41.47 44.18 42.90 39.89 41.87 42.47 43.61 42.99 43.87 40.70 40.27 46.27 44.99 44.97 46.36 46.89 47.26 47.76
57.18 57.71 56.64 56.40 55.71 54.09 52.23 50.74 49.33 48.33 47.71 48.84 50.03 47.61 37.74 47.42 49.49 47.10 47.38 45.75 48.66 49.01 49.23 49.66 48.76 46.17 43.17 43.40 41.15 39.12 38.85 35.22 41.00 41.88 42.63 42.99 37.03 43.32 44.86 44.10 44.58 45.36 46.13 46.25 46.79
56.11 57.47 56.37 55.35 54.10 52.74 50.90 48.99 48.06 47.70 48.23 50.06 47.13 45.03 37.14 50.02 45.85 48.93 48.07 43.75 45.10 46.65 47.35 48.45 46.24 42.40 41.11 37.90 35.51 35.85 32.84 34.26 37.47 41.94 41.18 40.34 37.05 42.82 45.58 44.13 43.52 44.70 45.24 44.52 46.52
55.66 57.37 56.21 54.59 53.05 50.84 49.37 48.26 46.77 47.41 48.80 49.22 48.33 40.18 42.74 42.06 46.29 49.55 48.99 46.48 43.30 44.48 43.01 42.86 41.46 37.92 37.34 35.87 29.90 31.97 32.49 34.43 34.71 38.52 38.66 37.94 37.27 41.21 43.24 42.69 43.08 44.04 43.47 47.65 50.38
56.02 56.90 55.45 53.52 51.67 49.40 46.86 44.80 41.70 40.44 43.83 40.44 40.95 40.79 41.18 46.77 49.29 47.10 47.73 44.37 44.24 41.92 36.85 39.37 35.76 32.35 35.11 37.38 37.15 35.87 33.97 33.46 36.23 38.82 36.08 36.83 37.97 40.19 43.07 42.17 42.54 43.17 48.29 48.80 49.26
56.61 56.15 54.24 52.59 50.64 48.96 44.94 41.11 42.66 43.57 37.40 42.39 42.20 42.98 45.68 45.96 40.25 43.84 48.20 41.98 40.28 35.12 38.24 35.54 32.98 37.46 38.31 36.95 35.90 35.13 33.07 32.37 35.73 37.66 36.69 38.04 37.67 40.96 42.11 42.03 43.16 47.70 47.42 47.82 48.56
56.03 54.77 53.29 51.74 49.59 45.64 41.27 41.62 46.36 44.97 34.43 37.50 41.08 40.85 42.43 43.97 39.88 41.13 45.04 42.57 38.95 36.70 36.21 33.73 36.90 39.26 36.89 34.83 33.13 33.78 32.33 33.13 34.20 36.98 38.83 36.60 36.03 37.41 40.17 44.36 47.28 48.00 47.31 47.81 47.70
55.23 53.12 51.18 49.81 44.60 43.45 40.40 45.13 45.31 43.13 28.66 33.93 34.73 39.23 43.07 43.24 37.92 45.99 46.55 43.21 38.83 36.51 36.69 36.45 40.40 36.88 36.20 34.99 36.17 31.88 36.84 36.85 35.21 33.93 31.34 37.36 29.27 35.15 39.37 41.04 45.15 45.50 46.62 47.79 47.37
52.74 51.02 49.63 46.34 40.73 39.48 42.56 43.89 43.87 40.53 21.59 35.29 34.87 44.74 43.63 40.09 41.13 41.22 48.06 41.39 37.60 36.29 37.67 35.53 36.26 35.83 34.69 35.94 37.63 35.03 39.08 36.67 35.91 33.56 32.83 33.62 31.43 34.28 38.01 39.01 42.60 44.75 46.92 46.63 46.37
48.12 46.70 45.18 43.06 42.37 43.90 45.27 45.24 43.90 26.30 19.88 31.42 37.58 37.02 36.09 38.78 39.69 41.73 42.02 43.57 42.38 37.29 36.66 37.33 39.74 38.67 38.01 39.20 39.08 40.29 37.22 36.74 35.08 34.05 27.65 32.94 32.08 31.93 36.22 39.85 41.99 44.58 46.28 44.70 43.97
46.44 45.98 43.79 43.89 38.92 44.63 45.02 41.50 26.16 21.16 33.51 31.59 33.84 37.50 36.67 34.95 35.65 38.81 36.76 35.98 33.77 29.66 30.26 34.17 35.59 39.02 39.92 36.37 38.54 38.08 34.75 27.48 25.50 25.60 25.39 32.42 30.56 34.64 38.63 42.06 43.53 44.34 43.64 42.76 41.81
45.96 44.83 43.95 42.77 44.60 45.31 42.77 33.77 20.28 26.93 27.78 34.25 34.62 36.71 33.13 35.49 36.55 37.08 35.47 31.52 33.48 35.04 31.04 29.01 26.70 34.89 38.06 37.28 35.41 34.65 34.55 28.33 21.02 23.04 26.53 31.94 28.42 34.61 41.89 45.27 44.20 42.44 41.44 40.68 39.55
44.30 38.78 40.21 41.66 44.24 44.59 36.84 24.83 24.93 28.29 32.49 31.07 36.84 32.28 30.65 33.97 33.72 33.03 31.38 29.99 31.34 32.97 31.12 29.70 28.62 36.83 36.59 36.89 37.22 34.13 31.79 35.66 29.74 30.26 27.30 30.82 33.45 39.00 42.72 42.30 41.32 40.28 39.43 38.46 37.66
39.51 37.24 37.72 43.99 43.86 41.68 32.53 26.47 28.41 33.45 33.67 33.79 28.60 30.99 28.22 29.95 31.15 31.25 30.69 32.67 31.64 34.87 36.04 31.07 26.04 32.86 34.74 37.76 35.83 35.59 37.07 30.86 31.58 22.66 21.27 27.23 29.60 31.85 36.29 37.64 38.58 38.48 37.84 37.41 37.07
37.86 33.79 40.02 44.46 44.38 36.29 26.44 28.07 32.05 36.14 35.56 32.90 30.34 28.41 29.42 28.80 31.24 29.06 28.72 32.23 33.70 33.14 35.11 33.22 30.49 28.33 32.16 29.97 27.87 30.03 29.90 32.54 32.60 30.83 24.85 23.04 27.86 37.19 36.50 36.93 36.72 36.67 36.83 36.61 36.21
36.03 29.41 40.80 43.21 31.68 33.37 28.20 31.76 35.92 34.31 37.12 35.24 34.35 32.14 29.94 30.55 29.05 28.70 28.08 30.82 35.09 34.52 29.85 32.36 29.96 24.53 25.92 32.26 34.16 33.46 31.69 31.35 25.88 24.38 27.21 26.79 27.93 39.22 38.25 37.56 37.36 35.99 36.36 36.04 36.18
34.22 34.98 40.89 40.78 26.72 27.68 31.93 31.84 34.23 33.59 33.84 33.80 32.53 33.41 32.89 29.35 26.47 29.33 29.43 33.76 36.07 33.47 30.72 31.70 26.75 21.04 23.18 28.60 31.65 28.34 29.66 29.59 28.64 28.01 22.21 22.89 27.07 38.89 37.70 35.67 35.08 34.64 34.93 35.05 34.87
31.04 27.48 32.53 35.73 34.64 31.34 29.23 30.22 30.09 35.17 33.68 35.16 33.96 34.17 31.69 28.53 30.84 27.96 28.08 31.97 35.06 36.12 36.96 35.12 27.71 24.12 21.18 23.68 27.72 24.73 27.01 28.13 26.39 22.84 22.40 24.99 27.21 31.73 33.58 35.06 34.92 34.70 34.25 34.02 33.48
33.20 27.50 31.72 25.30 28.51 30.34 30.49 32.10 29.71 28.99 33.83 34.47 31.49 31.39 30.31 26.06 26.48 25.71 28.45 30.04 32.39 34.18 32.30 31.79 24.32 26.49 26.96 27.37 27.23 26.45 26.00 26.12 23.63 25.00 20.58 24.51 24.95 29.43 32.37 34.71 34.23 33.32 33.37 31.94 30.96
30.10 31.06 32.65 30.25 32.59 29.63 29.99 30.22 29.72 29.59 31.62 29.82 28.95 30.03 30.30 26.93 27.81 25.25 28.08 28.16 27.81 30.71 29.38 29.92 24.60 25.41 22.77 26.80 26.58 23.67 26.01 25.80 25.96 26.13 25.95 27.41 27.78 35.21 36.33 35.23 32.36 31.32 30.88 29.99 29.40
36.05 36.12 33.48 30.01 29.26 28.43 28.95 31.04 30.39 31.33 31.56 33.31 31.44 29.38 27.98 29.14 31.70 32.13 32.08 31.53 31.24 29.05 27.11 26.70 24.85 21.57 17.37 24.08 23.76 19.63 24.53 25.90 28.07 30.56 30.01 25.13 30.65 35.80 32.06 30.89 29.93 29.47 29.99 29.32 29.20

GFSSW_sfc_wetblb_102.txt.gz
Wetbulb
60.04 59.70 59.32 58.76 57.97 57.36 56.48 55.06 54.34 53.80 53.71 53.84 53.59 52.78 52.75 53.02 53.40 51.85 48.44 53.52 53.99 55.85 55.38 54.21 53.13 52.41 53.51 51.03 51.92 50.54 44.70 43.66 45.82 45.50 46.95 49.11 48.55 52.18 54.08 52.17 52.98 53.96 53.86 55.70 56.59
60.35 60.18 59.99 59.29 57.92 57.35 56.71 55.48 54.73 53.79 53.66 53.48 52.62 52.35 52.43 53.01 50.70 48.46 56.15 53.19 55.93 56.80 52.00 49.99 49.34 50.59 48.66 49.05 49.81 47.62 44.68 45.46 48.62 48.35 47.10 48.51 49.10 49.79 49.05 49.37 50.19 52.14 54.58 55.11 55.53
60.75 60.39 60.08 59.43 58.48 57.55 56.75 55.55 54.65 53.74 53.43 52.53 51.75 51.75 52.48 53.03 47.53 49.97 55.42 55.88 57.52 57.41 52.34 51.78 51.09 49.89 46.82 48.83 47.43 47.09 44.02 48.30 47.21 48.10 48.52 47.98 48.22 50.25 48.55 47.20 50.10 50.14 51.72 53.71 54.32
60.28 60.15 59.84 59.59 58.77 57.79 56.61 55.13 54.50 53.67 52.55 51.39 51.31 51.52 52.34 50.00 47.10 51.53 58.39 57.58 57.47 56.78 52.20 50.52 49.37 46.49 45.35 44.71 47.89 42.67 45.61 46.30 47.01 47.52 48.08 46.69 48.63 47.30 48.13 48.71 51.05 51.31 52.56 52.95 52.78
57.81 59.07 59.70 59.60 58.98 57.79 56.19 54.92 54.29 52.92 50.99 50.66 50.55 51.23 48.52 44.19 46.78 54.81 58.44 57.08 55.54 54.65 50.52 49.52 47.34 46.71 43.43 44.27 45.67 43.81 44.78 45.79 46.66 46.47 46.66 47.32 46.15 46.84 47.82 50.84 51.82 51.83 51.51 52.02 52.02
56.10 56.38 58.58 58.84 58.71 57.70 56.13 54.47 53.24 51.79 50.49 50.15 49.91 50.49 45.92 40.99 54.06 49.25 53.60 55.48 54.30 52.55 50.17 49.48 47.27 47.67 44.65 43.69 43.24 45.58 45.57 45.99 47.36 47.48 47.74 45.89 46.47 47.43 48.28 51.11 50.66 50.87 50.70 51.16 51.26
55.92 55.25 56.07 58.16 58.07 57.28 55.44 54.17 52.10 50.71 50.01 49.55 50.13 48.94 45.18 46.67 53.48 51.37 50.89 50.64 53.30 51.62 48.39 49.60 49.21 46.36 46.42 43.73 46.82 46.18 42.73 44.92 46.02 46.48 45.72 47.59 44.27 45.23 49.38 50.76 49.11 49.55 50.40 50.78 51.30
56.31 56.08 55.65 56.91 57.20 56.51 54.74 52.51 51.34 49.68 48.14 47.83 49.44 48.99 43.93 52.37 53.87 51.24 51.34 49.35 52.57 53.15 50.63 50.57 50.69 48.39 47.48 47.98 44.83 42.83 43.89 40.47 45.51 46.40 46.90 46.02 41.81 46.33 48.84 48.16 48.06 48.94 49.98 50.27 50.85
56.04 55.97 55.45 56.07 56.27 55.02 52.98 51.45 49.94 49.23 48.45 48.52 46.29 45.19 42.12 52.05 48.36 51.92 52.00 48.16 48.49 51.10 50.94 51.17 49.94 46.49 47.26 42.57 41.09 42.39 38.74 40.97 42.55 46.74 45.86 45.13 42.47 45.98 48.24 47.38 47.23 48.80 49.90 49.78 51.11
55.72 55.86 55.38 55.69 55.36 53.11 51.43 49.93 48.86 47.90 48.44 49.37 48.14 43.20 47.62 48.27 50.01 50.07 53.35 50.51 46.42 46.20 46.55 46.13 44.22 42.50 42.91 41.11 35.17 38.85 39.20 41.07 40.63 43.94 43.81 42.89 42.53 44.97 46.46 47.40 47.46 49.05 49.35 50.19 52.40
56.34 55.83 55.32 55.85 53.70 50.94 48.65 46.47 43.04 41.44 44.52 45.54 46.08 46.60 49.16 50.25 50.96 49.89 51.40 48.14 45.75 43.65 40.14 41.90 36.60 37.24 40.99 42.13 41.32 40.74 40.38 40.07 42.08 44.07 40.82 41.32 41.24 43.45 46.92 47.89 47.78 48.34 49.31 51.45 53.07
56.13 55.54 55.34 55.21 52.26 50.53 49.85 44.50 47.14 48.17 43.81 47.73 47.56 48.43 50.10 49.46 44.65 47.71 51.07 43.77 39.85 38.22 40.59 38.73 35.25 42.28 43.41 42.16 39.82 39.83 38.30 38.66 41.47 42.66 40.68 41.10 41.94 45.06 46.63 47.21 47.32 47.70 50.82 51.36 52.45
55.63 55.48 55.46 52.51 50.83 48.78 46.79 46.04 48.00 48.51 38.75 45.43 48.00 46.73 48.56 49.14 45.31 47.96 48.76 46.54 41.23 37.00 36.47 34.85 39.40 41.10 40.51 38.91 36.51 38.03 37.31 37.89 37.28 41.33 42.93 41.95 40.58 43.16 44.52 46.26 49.11 50.74 51.24 51.76 51.15
55.19 55.05 52.64 50.47 46.24 44.61 41.95 45.10 46.49 46.25 34.48 40.36 40.87 44.08 46.83 46.99 42.97 50.58 50.11 46.60 41.22 38.32 37.09 34.39 38.15 36.51 38.38 37.41 39.06 35.08 40.07 38.70 38.51 38.36 35.52 41.96 35.10 40.28 42.67 44.77 47.43 49.51 50.25 51.20 50.98
54.73 52.58 50.05 50.90 44.36 42.38 44.14 46.36 45.51 43.70 25.32 40.77 40.12 47.53 46.39 43.37 44.86 45.60 51.63 44.82 40.74 39.30 38.09 36.22 36.77 35.77 33.69 38.31 40.38 37.44 40.89 39.52 39.99 38.77 38.54 38.68 35.34 39.55 42.53 41.60 45.62 48.50 49.87 49.99 49.99
51.10 49.38 47.01 44.99 44.80 44.14 46.00 46.61 44.31 33.56 25.35 36.75 39.93 38.86 39.71 41.96 42.54 44.76 45.89 46.03 44.33 38.42 38.40 38.50 41.49 39.10 37.66 39.62 40.33 41.60 39.24 39.97 40.34 38.64 31.77 36.96 36.52 37.75 39.76 42.45 45.35 48.42 48.78 48.45 48.46
47.47 46.74 45.08 45.74 40.04 45.92 45.80 42.14 29.97 27.81 36.93 36.25 36.86 39.63 38.98 37.73 38.57 41.15 39.93 36.00 34.04 32.31 32.43 36.69 36.81 40.80 42.01 37.90 40.55 38.93 35.59 28.82 27.00 27.66 28.75 37.46 35.93 38.47 42.58 45.10 46.47 47.48 47.19 47.29 47.84
46.88 45.85 45.16 45.04 45.78 46.32 44.22 35.56 26.72 32.11 34.03 37.20 36.42 38.51 36.24 39.00 38.22 39.34 39.14 35.27 39.16 37.79 34.34 29.95 27.62 37.30 41.51 39.19 36.57 36.56 35.93 29.29 22.72 26.64 31.25 36.54 32.06 38.43 46.17 47.73 47.56 46.86 46.31 46.66 46.50
45.33 43.55 42.60 44.70 46.86 46.66 38.98 29.84 30.24 32.32 35.53 33.89 36.08 34.84 36.32 37.71 37.66 38.29 38.37 37.35 38.30 39.24 32.94 32.11 31.11 39.13 39.47 40.37 40.82 37.49 34.53 40.32 33.38 34.22 31.75 34.93 37.83 43.21 43.65 43.53 44.17 44.43 44.77 44.72 44.77
42.59 42.21 39.38 43.94 45.99 42.64 36.31 30.79 32.30 35.93 35.67 35.63 31.26 31.72 33.10 35.03 35.24 36.28 36.20 36.66 34.97 37.48 39.27 35.16 29.16 36.57 37.38 39.93 39.26 40.17 42.00 33.10 34.88 25.55 25.09 32.35 34.13 36.45 38.78 40.43 41.61 42.05 42.89 43.54 43.63
42.43 38.28 40.81 44.10 44.87 37.05 31.30 32.38 34.06 37.57 37.00 34.69 33.22 31.32 31.26 31.53 35.20 32.67 33.91 34.95 35.70 34.42 38.13 35.53 33.63 32.56 35.26 34.06 33.99 35.74 35.80 36.82 36.41 34.25 27.57 27.11 33.12 40.16 39.56 39.75 39.96 41.53 42.32 42.59 42.38
41.96 33.50 43.23 44.99 33.79 35.22 32.28 34.07 36.73 35.59 38.41 36.91 37.10 34.45 31.52 32.64 32.88 31.98 30.80 33.77 37.49 36.95 32.98 36.22 33.25 28.98 30.21 35.80 36.68 35.15 34.59 34.47 30.19 29.05 32.41 31.39 31.89 42.16 41.44 40.48 40.22 40.64 41.11 41.07 41.26
36.75 35.29 41.77 41.79 30.98 31.90 34.76 33.94 35.55 34.78 36.02 36.15 34.08 35.12 35.10 32.77 29.39 33.29 32.06 35.28 36.61 35.18 33.15 34.89 30.99 25.58 27.39 32.16 34.48 31.79 32.85 33.00 32.26 31.92 28.38 26.37 30.55 41.91 40.19 40.01 39.57 38.39 39.17 40.08 39.16
38.65 31.50 36.30 37.85 37.09 34.02 32.16 32.20 31.74 37.50 36.22 37.44 36.22 36.05 33.20 31.23 34.21 31.51 31.31 33.93 38.04 37.21 37.02 36.46 31.56 28.95 26.04 27.87 31.66 27.86 30.26 31.32 29.74 27.15 27.72 29.06 31.04 36.31 37.16 36.70 39.37 39.35 38.08 38.56 37.35
38.44 34.62 36.72 30.56 32.59 34.18 34.83 34.07 32.10 31.63 37.05 37.41 34.42 33.74 32.91 28.80 29.94 29.53 31.63 33.01 34.88 35.22 35.69 34.84 27.63 28.84 29.17 29.93 29.80 28.95 29.26 30.02 28.20 29.37 24.85 29.16 28.96 33.01 36.81 39.10 39.86 38.34 37.35 35.67 33.64
35.83 35.10 36.67 35.39 35.69 33.80 33.28 32.34 32.36 33.46 34.71 32.71 32.47 33.76 34.49 30.56 30.95 28.70 31.42 32.68 31.69 33.54 33.06 33.25 26.94 28.57 25.81 29.11 29.09 27.20 29.82 30.33 30.03 30.02 29.72 30.23 30.39 38.83 39.54 39.38 35.54 35.48 34.80 33.26 32.89
43.04 42.28 38.63 34.39 33.34 32.02 32.74 33.56 34.06 35.46 34.74 36.18 35.65 33.22 32.13 32.20 35.46 35.88 36.46 35.62 34.85 32.43 30.26 29.26 28.56 25.15 22.35 26.64 26.17 23.35 28.25 30.09 30.78 32.18 32.41 28.72 33.52 36.44 35.60 34.77 33.13 33.17 32.12 31.44 31.04

GFSSW_sfc_wetblb_105.txt.gz
Wetbulb
60.80 60.59 60.24 59.76 58.97 58.57 58.08 57.32 55.95 54.72 54.34 54.19 54.37 53.50 53.07 53.54 53.27 56.73 55.45 57.33 57.42 56.47 54.93 54.79 54.65 54.30 54.18 53.03 53.86 53.40 47.03 46.01 48.30 49.13 50.66 53.42 50.02 54.00 54.85 53.58 54.40 55.61 55.44 57.02 58.66
61.19 61.16 60.97 60.24 59.13 58.33 57.75 57.16 55.97 54.86 54.18 53.95 53.50 52.90 52.98 53.73 52.81 55.85 59.52 57.07 56.43 57.87 50.81 51.51 50.65 52.26 51.16 51.72 52.41 50.04 47.35 48.19 52.19 51.78 50.74 51.91 51.27 51.72 51.97 52.00 52.26 53.05 55.99 57.29 56.77
59.18 60.58 60.98 60.43 59.56 58.61 57.70 56.69 55.71 54.63 54.02 53.53 52.52 52.10 52.94 52.96 54.68 54.76 55.59 55.81 56.49 57.56 54.40 53.57 52.97 51.58 49.12 51.62 51.17 50.57 46.77 51.50 52.20 52.73 51.59 50.39 50.20 52.05 50.19 49.31 51.84 51.88 53.89 55.61 55.70
57.61 57.91 58.96 60.21 60.18 59.07 57.72 56.36 55.62 54.61 53.98 52.46 51.93 51.76 52.58 51.76 49.20 55.92 58.67 56.72 58.25 56.14 53.48 52.24 50.87 49.42 48.16 47.97 51.30 47.26 49.55 49.49 50.55 51.57 49.91 48.96 51.35 50.07 50.81 50.93 53.22 53.49 53.62 53.72 54.13
56.70 57.07 57.26 58.35 59.68 59.32 57.61 56.16 55.47 54.62 53.25 51.17 50.90 51.33 51.58 49.97 51.73 60.31 59.49 57.54 56.39 56.05 52.35 51.98 50.07 50.07 47.36 49.76 49.98 48.64 49.23 50.12 50.10 49.25 49.06 49.29 47.87 48.23 48.88 51.72 53.21 53.56 53.34 53.03 53.58
55.85 56.23 56.48 56.55 57.07 58.77 57.72 55.85 54.88 54.17 52.15 50.92 50.11 50.53 48.49 46.17 59.95 60.68 54.84 56.10 54.44 54.19 53.13 52.88 51.36 52.16 49.10 47.93 47.09 49.09 48.64 48.57 49.54 49.23 49.39 47.18 47.70 48.71 49.97 52.22 51.81 52.16 52.26 53.03 53.24
55.02 55.64 55.98 56.17 56.28 57.18 57.66 55.45 54.35 53.22 51.65 50.35 49.61 50.07 48.19 50.19 60.07 59.62 54.45 54.77 57.44 55.73 53.20 54.90 53.83 50.44 49.96 47.44 50.20 48.72 44.92 47.43 48.01 48.88 48.50 49.72 46.40 47.19 50.85 52.08 51.08 51.93 52.58 52.90 53.24
54.86 54.84 55.28 55.71 55.74 56.06 56.92 54.62 53.47 51.98 50.49 48.53 48.52 49.17 46.45 57.71 59.86 58.15 58.68 54.34 54.84 55.57 54.53 54.63 53.78 50.04 47.63 49.57 48.07 46.32 46.61 42.35 48.48 49.41 49.33 48.26 42.97 49.80 51.85 51.01 50.66 50.97 51.92 52.03 53.00
54.89 54.74 55.05 55.39 55.22 55.49 55.43 53.65 52.36 50.91 49.16 48.82 49.37 49.59 47.77 56.02 52.76 55.65 56.55 53.62 54.05 53.29 54.14 53.88 51.28 48.52 47.38 43.09 41.29 45.32 39.98 43.53 46.26 50.70 48.48 47.61 44.63 49.53 51.86 49.90 49.47 50.55 51.02 51.93 52.16
54.87 54.99 55.08 55.18 54.96 55.11 53.33 51.86 50.46 49.46 48.35 49.78 50.10 44.74 50.40 50.09 54.84 53.35 55.26 54.32 51.83 51.46 49.40 49.29 47.15 44.99 45.16 41.84 34.98 40.34 41.27 44.75 43.58 48.32 47.32 46.43 45.40 48.72 49.81 49.12 48.85 49.86 50.87 51.78 51.50
55.31 55.49 55.25 55.37 54.94 52.62 49.73 47.97 44.62 42.71 44.64 48.00 48.87 48.68 51.34 54.83 54.52 52.33 55.15 52.57 50.91 47.61 42.70 46.72 41.98 40.12 43.89 45.56 45.02 43.95 42.40 43.40 45.99 48.95 46.26 44.67 45.10 47.11 48.83 48.64 48.28 49.48 50.50 50.99 52.63
55.85 55.69 55.59 55.23 54.11 51.02 54.28 47.30 51.34 51.45 45.71 49.00 50.25 51.20 53.31 54.71 48.92 51.63 54.35 47.64 47.11 42.64 45.83 41.68 37.94 44.32 46.41 44.17 42.16 42.26 41.00 41.28 44.18 46.86 45.17 44.22 43.68 46.00 47.45 47.61 49.21 49.94 50.28 51.66 53.33
56.01 55.89 55.65 54.76 51.76 51.70 49.76 51.51 50.90 51.81 42.12 47.04 51.10 50.54 51.26 52.26 48.28 49.21 52.37 49.13 45.28 42.73 42.96 41.02 42.92 44.16 42.17 40.58 37.32 38.59 38.14 39.42 38.07 42.54 45.13 43.07 40.91 44.07 47.59 49.15 49.80 49.73 51.82 53.35 52.80
55.67 55.27 54.43 52.23 48.72 49.82 46.90 48.09 50.50 51.82 36.68 42.04 45.75 48.36 50.64 50.87 46.07 52.42 53.36 50.24 45.27 42.23 42.36 41.34 45.15 42.17 39.64 37.71 38.49 32.76 40.89 39.91 39.56 38.71 34.54 43.43 34.82 43.33 46.00 45.46 46.89 50.02 51.65 52.57 52.95
54.85 54.33 52.02 51.31 46.74 45.47 45.25 48.89 47.00 47.48 26.69 43.04 46.13 51.17 49.32 46.67 47.25 47.82 52.88 49.16 43.19 41.46 40.59 39.87 39.79 39.23 37.87 39.03 39.47 36.87 40.44 38.81 39.95 36.69 38.15 39.06 37.66 41.56 44.74 42.92 45.42 49.02 51.37 52.30 51.99
54.03 51.99 50.95 48.85 49.46 50.42 49.48 47.77 47.17 34.22 25.90 40.40 43.69 41.60 42.50 45.42 45.65 46.95 46.82 50.43 47.17 40.17 39.69 40.05 43.78 41.77 40.97 40.83 39.14 40.15 38.13 38.34 39.45 38.10 30.49 35.72 37.19 39.28 40.99 43.55 46.00 49.18 50.86 50.76 50.62
51.20 49.99 48.08 48.85 43.60 50.90 49.40 45.48 31.47 28.30 40.69 38.99 39.46 42.28 41.55 41.61 42.20 43.23 42.30 40.21 38.17 32.75 33.51 38.24 38.64 40.71 41.99 37.92 39.40 37.62 34.18 26.98 25.72 27.49 29.20 38.75 36.36 38.28 42.97 46.18 47.74 48.52 49.39 49.76 50.45
47.41 46.70 46.17 46.08 48.32 47.28 45.18 37.22 27.77 37.15 37.67 41.01 40.49 41.68 39.14 42.26 42.13 42.03 40.22 37.05 41.13 39.52 36.52 33.53 31.40 38.65 41.05 37.93 36.70 36.15 34.02 28.25 22.08 23.32 27.86 36.53 31.68 37.24 46.57 49.49 49.57 49.77 49.59 49.15 48.69
46.35 44.93 44.07 45.46 47.37 46.67 39.41 31.76 34.00 36.81 40.49 37.95 38.46 36.74 38.05 40.59 41.31 40.95 39.30 38.87 39.99 41.69 34.81 33.45 33.64 42.33 41.99 42.28 40.81 36.02 33.32 38.61 32.52 34.61 31.35 33.21 37.83 43.22 45.12 45.26 47.04 47.02 47.34 46.92 47.23
43.54 41.19 41.23 46.31 48.18 43.90 35.87 34.30 38.44 41.14 39.62 38.55 32.82 36.07 35.15 38.09 38.49 38.41 37.99 42.12 40.69 43.30 44.02 36.88 31.54 39.80 40.92 41.92 42.25 39.62 42.07 32.10 33.34 25.69 25.31 32.58 33.52 35.39 40.16 42.34 44.62 43.80 44.10 44.95 45.99
44.71 38.91 41.36 45.68 45.88 37.58 34.30 36.48 39.30 41.93 40.44 37.41 36.09 35.55 36.19 36.57 38.52 37.61 37.96 38.67 41.86 39.94 41.39 38.52 36.18 34.08 38.01 36.76 34.47 37.42 36.18 36.48 35.93 33.31 27.67 27.27 31.50 41.49 41.35 42.44 42.32 42.76 43.21 43.27 43.95
42.51 36.22 42.24 45.01 33.94 35.32 34.23 37.31 38.30 39.14 40.81 39.11 39.43 37.74 36.22 37.41 36.22 36.32 37.07 37.91 40.20 40.66 37.37 40.36 36.57 31.93 34.22 38.39 39.30 38.26 37.00 36.22 30.25 29.05 31.99 31.51 31.99 43.15 43.52 43.24 42.02 41.71 41.91 42.95 43.49
39.29 36.53 42.67 42.32 31.72 32.32 36.92 37.41 38.43 37.31 38.01 37.67 36.83 38.91 39.14 36.37 32.51 35.80 37.14 38.85 40.11 39.89 38.05 38.78 33.79 29.11 30.47 34.90 37.92 35.41 37.00 37.14 36.32 34.96 29.92 27.70 30.04 43.67 42.89 42.40 42.27 40.78 42.41 42.62 42.15
39.23 33.53 34.63 36.41 37.80 36.18 33.55 34.11 34.48 39.99 38.61 39.41 37.63 38.85 36.89 35.28 37.98 35.00 34.85 37.38 39.01 39.16 36.82 37.55 35.01 32.55 27.54 30.63 35.73 31.63 34.04 35.52 33.63 29.43 30.30 31.31 33.03 38.09 37.85 38.18 41.17 42.86 42.17 41.90 40.14
40.35 37.13 39.14 31.44 33.59 36.38 36.93 35.65 34.28 33.90 38.81 39.65 36.67 36.73 35.79 31.81 33.57 33.33 36.19 35.90 37.56 36.69 37.25 37.25 29.94 32.61 32.41 32.57 32.66 32.45 32.76 33.34 31.34 32.22 27.86 30.92 31.38 34.43 38.50 39.38 40.22 40.65 40.13 38.82 36.34
37.52 37.68 39.91 37.83 37.72 34.98 35.10 34.74 34.96 36.11 36.91 35.37 34.92 36.62 37.41 33.52 33.83 32.54 34.98 35.36 33.46 35.89 35.72 35.62 30.56 31.53 29.79 31.95 31.58 29.55 32.13 32.67 32.33 32.53 32.43 32.51 31.65 39.14 40.12 40.57 37.67 36.61 35.92 34.86 33.65
43.34 44.16 40.11 36.54 36.37 33.89 34.91 35.89 36.38 37.93 37.73 38.72 37.86 36.49 35.47 35.82 38.25 39.81 39.94 38.37 37.69 35.79 34.18 32.96 31.69 28.61 25.92 29.12 28.89 25.86 30.69 32.17 32.97 34.32 33.70 29.66 34.81 37.01 35.31 32.79 32.49 33.49 33.07 32.05 31.62

GFSSW_sfc_wetblb_108.txt.gz
Wetbulb
61.40 61.37 61.04 60.54 59.90 59.32 59.01 58.51 57.91 56.42 55.46 54.83 54.71 54.52 53.77 54.23 53.06 57.22 56.29 58.87 58.83 57.10 54.39 52.11 54.85 54.66 55.12 51.84 53.26 53.63 45.90 43.76 46.21 47.84 49.89 54.02 52.34 53.71 54.91 52.95 54.16 55.05 54.89 56.92 59.17
58.55 60.00 61.64 61.23 60.14 59.24 58.63 58.14 57.51 56.55 55.33 54.71 54.60 53.68 53.47 54.00 50.77 54.49 58.40 58.85 58.95 57.24 50.31 50.78 51.97 53.07 50.60 50.83 51.86 49.39 45.64 46.34 50.92 52.00 51.12 52.54 51.79 52.46 51.57 51.90 52.31 53.42 56.37 57.75 58.18
57.26 57.59 57.92 58.99 60.00 59.75 58.79 57.81 57.19 56.00 55.34 54.62 54.01 53.08 53.42 52.15 52.77 52.61 57.08 58.09 57.54 56.91 52.00 54.00 53.96 52.48 49.93 51.26 50.66 49.66 46.04 49.28 50.61 52.38 52.47 51.34 50.82 52.62 50.50 49.28 52.05 52.08 54.14 56.34 57.09
56.54 57.01 57.30 57.90 57.91 59.02 58.89 57.53 57.15 56.08 55.19 54.41 52.84 52.29 53.15 51.58 47.29 55.00 58.32 57.84 58.41 55.04 52.69 52.98 52.30 49.52 48.34 47.66 51.46 47.08 49.77 50.41 50.56 51.57 50.35 49.07 51.09 49.57 50.69 51.54 54.02 54.09 54.42 54.19 53.68
55.82 56.04 56.45 56.63 57.53 57.14 58.13 57.56 56.90 56.19 54.93 53.33 51.87 51.79 51.05 49.68 51.93 61.21 60.34 57.70 55.41 53.04 52.73 52.41 50.38 49.92 46.98 49.37 50.40 48.77 49.83 50.85 51.41 51.33 50.96 50.66 48.19 48.49 48.86 51.72 53.00 53.20 53.21 53.18 53.63
55.42 55.22 55.55 56.32 56.80 56.61 56.54 57.48 56.26 55.65 54.52 52.50 51.21 50.59 48.54 44.61 58.84 61.13 59.09 57.83 54.55 53.97 53.20 54.05 52.22 52.99 49.92 49.20 48.07 49.44 48.96 48.93 49.62 49.21 49.63 48.27 48.60 48.83 49.76 51.76 51.38 51.81 52.13 53.12 53.30
55.28 54.92 55.08 55.54 55.83 56.33 56.18 56.93 55.59 54.88 53.45 51.95 50.76 50.28 47.04 48.13 58.16 59.65 59.56 57.03 56.13 56.09 53.52 55.40 55.44 52.18 51.72 48.52 51.71 49.79 45.82 47.54 48.31 49.13 48.50 49.69 46.25 46.92 51.27 52.01 51.20 51.29 51.92 52.42 53.17
54.82 54.65 54.72 54.79 55.03 55.64 55.88 56.00 55.13 54.27 52.58 50.64 49.19 48.51 44.82 56.62 58.87 57.10 58.00 56.95 58.71 56.04 54.79 55.68 55.57 52.32 50.14 50.87 48.17 45.29 45.73 41.50 47.86 49.36 50.25 48.81 42.40 48.49 51.95 51.36 50.36 50.98 51.90 52.66 53.09
54.65 54.70 54.68 54.50 54.56 55.07 55.35 55.71 54.28 52.82 50.72 49.79 48.11 48.33 45.62 57.52 54.14 56.75 57.27 54.21 56.49 56.03 54.42 54.53 53.37 49.12 48.47 44.03 42.24 44.19 39.14 41.42 44.68 50.42 49.55 48.76 45.60 49.62 51.25 51.15 50.16 50.60 51.46 51.74 52.33
54.30 54.82 54.94 54.86 54.76 54.78 54.67 53.23 51.79 50.10 48.77 50.16 50.48 44.95 49.25 48.54 53.93 55.54 55.79 55.66 53.03 53.15 51.29 49.58 48.03 44.51 44.34 41.61 35.37 38.60 40.14 42.94 43.04 47.89 49.45 47.33 47.17 49.28 50.77 50.59 49.56 49.91 50.69 51.24 51.66
54.44 54.76 54.90 55.29 54.68 53.45 50.40 48.62 45.62 43.80 44.60 47.09 47.77 47.15 50.40 54.27 55.28 52.96 54.26 53.04 51.75 49.60 43.81 47.31 42.08 39.05 41.58 43.83 44.18 43.32 41.61 40.68 44.21 47.54 46.31 45.56 44.82 47.49 49.74 49.90 49.15 48.91 49.55 50.55 51.97
53.97 54.19 54.84 55.41 54.75 51.85 52.23 48.41 49.98 52.05 45.51 48.12 50.03 50.26 52.30 53.14 48.24 50.82 54.70 48.18 46.91 42.38 45.26 42.70 39.07 43.43 44.81 44.12 43.08 42.31 40.25 39.55 43.46 45.85 44.98 43.68 41.72 44.21 48.28 48.67 49.47 48.85 49.01 50.29 51.88
53.35 54.11 55.15 55.17 53.24 51.14 50.05 50.61 53.07 54.30 45.05 46.67 50.10 49.14 50.26 52.18 47.82 48.45 51.94 49.22 45.27 42.46 42.76 39.97 42.44 45.60 43.76 41.98 40.06 40.05 39.13 38.70 38.40 42.30 43.34 41.47 38.71 41.99 47.10 48.58 49.10 50.06 50.13 51.28 52.82
53.38 54.26 54.69 53.71 49.07 50.19 49.10 50.41 53.54 54.53 38.65 41.10 45.52 49.06 51.06 51.43 46.63 52.64 53.20 49.68 46.26 42.34 43.30 42.00 45.54 43.25 42.02 40.49 40.95 35.76 42.37 40.95 38.84 36.36 31.52 40.68 30.48 38.84 43.65 45.27 46.72 48.46 50.09 51.95 52.37
53.36 55.21 53.34 52.51 50.37 48.27 47.18 49.28 52.56 49.58 26.32 41.74 45.02 52.35 50.48 47.21 47.72 48.30 52.99 49.39 43.49 43.48 43.22 40.22 41.73 40.94 39.04 40.37 42.42 38.27 40.60 38.94 38.00 35.25 34.32 34.76 31.19 36.66 42.93 41.84 44.90 48.05 50.56 51.49 51.26
54.71 54.30 52.18 49.48 51.10 49.17 48.89 50.03 49.43 35.38 25.59 39.37 45.19 44.25 44.22 46.12 46.57 48.08 47.28 50.13 48.93 44.11 44.71 41.96 45.69 42.93 41.78 43.19 43.04 41.54 37.52 37.64 37.21 34.49 27.32 33.26 31.93 32.80 38.76 42.81 45.09 48.43 49.69 50.11 50.34
54.00 53.47 52.05 50.83 45.12 48.64 48.99 46.85 33.26 28.95 40.84 38.20 40.73 43.04 42.02 41.97 43.24 44.55 43.16 41.78 39.64 34.79 35.50 40.10 39.84 43.57 43.75 39.05 41.42 38.60 33.43 27.16 25.65 26.48 25.82 36.48 32.57 34.73 42.21 45.02 46.85 47.13 48.45 49.21 49.50
48.38 48.05 46.90 47.88 49.42 48.42 47.69 38.60 29.45 35.85 36.71 43.50 42.74 42.52 39.42 41.86 42.04 42.86 41.18 38.58 42.48 39.98 36.55 32.99 31.83 39.86 43.18 39.65 37.23 36.02 33.73 27.95 21.70 24.12 27.67 35.83 29.79 34.55 44.95 47.81 47.91 47.99 47.76 47.78 47.11
46.70 45.73 44.64 46.31 49.55 48.72 41.36 31.80 32.73 37.91 42.15 41.12 41.50 37.98 38.70 41.43 41.44 41.37 40.51 39.42 41.62 42.04 34.14 34.18 34.41 43.42 43.31 42.97 41.37 35.93 31.50 37.14 30.26 31.01 28.41 31.91 35.61 40.62 44.96 44.95 45.37 45.59 45.40 44.68 44.94
43.67 41.85 41.78 47.37 48.61 44.48 35.88 34.00 37.93 43.29 43.58 42.35 35.52 37.12 34.76 38.15 38.23 38.76 39.03 42.50 40.83 43.97 44.32 38.07 32.02 39.66 41.98 42.77 41.85 39.40 41.14 31.54 31.36 23.66 23.01 30.55 32.48 33.87 39.57 41.02 42.96 42.26 42.12 42.47 43.14
44.03 37.68 42.42 46.80 46.45 37.00 31.43 35.45 39.62 44.46 43.62 39.26 37.38 36.45 37.20 36.96 38.52 36.97 36.92 41.00 43.10 43.36 43.58 40.18 36.51 35.15 38.93 36.82 35.90 37.01 35.24 35.49 35.03 32.47 26.25 25.26 30.39 39.13 37.99 39.57 40.20 41.29 41.67 41.93 42.09
41.98 33.88 43.18 45.62 32.95 34.03 33.36 39.06 41.94 41.79 43.17 40.17 39.94 39.37 38.22 38.32 36.99 36.98 36.27 38.59 44.28 44.11 38.38 41.30 36.92 31.44 34.31 40.50 41.01 39.94 36.68 35.81 31.05 28.92 31.66 30.41 30.07 41.19 39.40 40.85 41.74 41.37 41.64 42.11 41.84
38.31 35.77 42.82 42.61 29.81 31.45 36.55 38.17 40.49 39.40 39.77 38.88 37.65 39.77 41.04 37.37 33.50 36.93 38.53 40.31 41.18 39.81 37.57 40.05 34.45 28.05 29.91 35.38 38.42 35.45 37.44 37.86 36.07 34.83 28.53 25.45 28.16 40.88 41.43 41.24 41.92 41.01 41.40 40.98 40.35
37.94 31.69 34.03 35.62 36.08 35.16 33.95 35.36 36.02 40.66 39.57 40.32 39.07 40.58 38.20 36.29 38.49 35.31 36.75 38.79 40.82 40.90 38.54 39.26 35.47 31.93 27.16 29.43 35.34 32.76 35.04 36.37 34.75 28.47 29.20 29.78 31.56 36.73 37.55 38.48 40.02 40.21 40.51 39.03 37.71
36.66 35.25 37.28 28.47 30.49 34.87 37.70 36.87 35.15 34.45 39.52 40.54 37.65 38.02 36.43 32.71 34.49 34.48 37.38 37.27 38.98 36.94 38.30 37.83 30.55 33.89 34.78 33.90 33.80 34.01 33.45 34.15 31.99 32.53 28.55 30.92 31.24 34.23 37.18 38.22 38.40 38.83 38.35 36.75 35.22
35.52 36.62 39.40 38.01 36.37 34.02 36.08 35.72 35.26 36.12 36.95 35.54 36.00 38.02 37.85 34.57 35.61 33.10 36.35 36.04 34.12 36.30 35.90 37.37 29.87 32.80 30.03 33.84 33.08 30.52 32.51 32.85 33.14 33.22 32.45 32.39 31.43 37.14 36.88 37.32 35.65 35.57 34.90 33.35 32.90
41.94 44.16 40.45 37.61 35.72 34.11 34.91 35.91 36.53 38.68 39.66 39.95 39.09 37.73 36.32 37.61 39.94 40.51 41.13 40.40 38.42 34.35 33.83 33.48 32.03 28.82 25.29 31.75 29.64 25.25 30.46 31.86 32.93 34.39 33.93 29.02 32.71 35.74 32.12 31.41 31.09 32.35 32.01 30.87 30.41

GFSSW_sfc_wetblb_111.txt.gz
Wetbulb
58.99 60.16 61.19 61.25 60.54 60.06 59.75 59.18 58.49 58.34 57.23 56.32 55.66 55.23 54.86 54.93 53.22 52.57 52.22 56.48 55.07 57.98 55.90 49.22 49.04 50.11 49.82 47.41 48.38 45.41 36.78 37.87 38.92 41.31 44.62 50.52 48.78 50.28 50.30 49.74 51.67 52.28 52.37 54.27 56.08
57.87 57.90 57.80 58.63 59.59 60.01 59.43 58.82 58.22 57.89 57.01 55.88 55.52 54.79 54.54 54.22 48.87 49.53 57.95 58.65 57.96 57.42 48.35 46.91 47.91 49.97 44.60 44.82 44.85 41.62 36.29 39.10 44.83 46.86 46.42 48.65 48.32 48.67 48.17 48.91 50.02 50.33 53.95 55.62 55.79
56.13 56.46 56.94 57.73 57.97 57.84 58.72 58.58 58.07 57.86 56.93 55.76 55.12 54.23 54.02 52.24 48.08 51.37 57.52 57.19 57.61 56.62 49.56 49.25 50.87 49.78 45.40 45.50 45.17 43.42 41.05 45.49 47.15 48.83 49.49 47.87 47.95 49.92 46.34 46.16 48.97 49.33 51.51 53.21 53.22
55.85 55.72 55.59 55.80 57.20 57.49 57.08 57.23 58.14 57.91 56.90 55.68 54.13 52.97 53.54 48.59 42.74 51.15 58.35 58.62 58.42 54.46 50.18 49.27 49.26 45.91 44.05 43.13 46.98 43.48 47.33 47.88 48.17 49.39 48.46 47.77 49.62 47.71 46.80 47.40 50.32 50.12 50.91 50.50 50.77
55.97 55.85 55.37 55.21 55.64 56.88 56.57 56.02 57.80 57.68 56.69 55.40 53.40 51.87 48.51 45.61 48.14 57.77 60.59 58.92 54.91 51.10 49.08 48.43 47.81 46.33 43.32 45.30 46.42 44.98 46.65 48.60 48.98 48.67 47.51 48.41 46.34 47.16 47.60 48.22 49.57 50.12 50.53 49.57 49.99
55.76 55.66 55.62 55.45 55.87 56.23 56.34 55.88 56.24 56.92 55.88 54.76 52.82 50.52 45.51 40.97 54.05 56.73 57.08 55.05 52.06 49.59 48.62 49.73 48.96 49.54 46.67 46.17 44.64 47.24 47.67 47.74 48.28 47.51 47.86 46.86 46.92 46.71 47.49 48.71 48.11 48.96 49.16 48.86 49.96
55.84 55.49 55.13 55.30 55.42 54.40 54.85 55.84 55.67 56.23 55.41 54.06 52.41 49.35 45.60 45.32 53.81 54.30 54.64 54.09 53.09 52.55 49.81 52.06 51.84 48.18 47.93 45.58 49.00 47.16 42.29 44.28 45.19 45.02 44.72 47.17 43.77 44.75 48.96 49.03 48.17 49.07 49.89 48.79 49.03
55.30 54.58 54.54 54.76 54.92 54.29 54.13 55.17 55.51 55.85 54.43 53.13 50.89 47.89 42.37 53.77 54.03 53.15 52.62 52.17 55.43 55.46 52.40 52.07 51.45 48.03 45.88 47.26 45.42 41.99 41.32 36.53 42.83 45.42 47.09 45.68 39.79 46.63 48.12 47.42 47.24 48.90 49.04 48.94 48.67
54.36 54.42 54.46 54.42 54.42 54.39 54.48 55.19 55.57 54.94 53.04 50.85 46.63 45.68 42.36 54.95 51.03 53.86 54.46 52.39 53.75 54.19 52.79 53.67 49.31 44.88 44.74 39.06 36.33 38.23 33.33 35.85 39.75 45.93 45.78 44.91 41.86 47.90 49.37 49.81 48.21 48.33 48.06 47.29 47.65
54.09 54.29 54.33 54.52 54.38 54.44 54.14 53.35 52.48 50.72 49.40 49.98 49.04 44.09 46.95 46.08 53.20 54.59 54.45 54.27 51.75 51.38 50.03 47.68 42.99 38.56 38.44 35.76 29.35 32.06 33.82 36.28 36.74 41.30 43.91 42.13 42.51 46.44 49.04 48.91 47.56 47.03 44.77 45.74 46.48
53.94 54.11 54.25 54.31 54.76 53.29 50.88 48.52 45.59 44.12 45.13 43.09 43.90 45.38 48.48 52.09 53.42 51.86 52.81 51.30 50.01 47.02 40.63 44.30 37.03 33.24 37.55 40.14 40.47 38.97 37.39 36.10 39.59 43.79 42.06 41.00 41.28 41.49 45.09 46.19 46.58 45.53 45.43 45.05 50.57
53.45 53.29 53.78 54.30 54.77 52.34 51.33 45.75 47.52 47.20 41.55 44.94 47.28 46.91 49.04 50.37 45.96 49.42 52.10 45.44 44.44 38.91 41.78 38.80 35.10 40.88 42.61 41.77 39.90 38.52 36.10 35.72 39.47 42.85 41.20 39.17 37.97 41.50 43.85 44.97 46.72 47.63 45.40 46.42 50.97
52.94 53.15 53.48 53.86 53.42 51.26 48.66 48.53 51.59 51.85 40.39 44.41 46.13 46.36 48.23 49.74 45.15 45.40 49.01 46.57 42.73 39.82 39.68 36.09 39.34 43.73 41.71 39.44 38.51 37.80 35.87 35.79 35.44 39.31 40.43 37.95 35.65 38.65 43.24 45.80 48.16 49.28 48.14 48.75 50.02
52.19 52.40 52.68 53.45 49.63 49.58 48.50 52.36 51.65 51.95 32.72 38.75 43.01 46.76 48.98 49.00 44.41 50.52 50.85 46.75 42.68 39.59 40.12 38.43 43.04 41.46 40.13 38.73 38.99 34.14 39.69 38.21 36.77 34.61 29.76 36.86 27.83 35.50 39.47 41.12 45.08 48.06 46.91 48.38 48.69
51.32 52.14 52.82 52.59 48.78 47.73 48.45 50.35 50.74 48.17 21.65 40.77 43.02 51.80 49.48 45.05 46.54 46.96 51.61 47.04 40.81 40.48 40.22 37.59 39.53 38.32 37.08 38.45 39.77 36.41 39.52 37.26 36.16 32.98 33.49 32.60 30.19 33.09 38.98 38.63 42.56 45.54 47.31 47.45 46.97
51.64 52.81 53.63 51.81 50.88 49.78 49.45 49.12 48.78 33.98 23.05 37.42 43.66 43.36 42.97 44.70 45.14 46.90 46.43 47.11 45.66 40.99 40.82 40.18 42.83 41.51 39.28 41.77 40.49 40.72 37.04 36.08 34.99 33.82 26.21 31.14 30.97 29.75 33.75 38.92 41.83 45.89 47.03 46.11 44.90
51.92 54.01 52.98 51.20 45.86 49.04 48.85 47.56 33.11 26.39 39.87 35.68 39.11 42.70 41.48 40.49 42.12 43.40 41.55 38.13 35.64 31.46 32.27 37.67 38.54 40.69 43.36 37.35 39.55 36.62 32.15 24.68 21.21 24.85 22.39 34.46 31.61 31.84 38.63 43.20 45.26 45.38 44.59 44.41 44.68
48.43 51.55 47.94 48.93 49.33 48.99 48.37 38.91 26.89 33.99 35.16 41.76 40.43 40.96 37.52 40.07 39.96 41.22 39.19 35.95 38.76 37.79 33.00 30.93 27.78 38.01 41.72 38.54 34.53 33.55 31.47 24.62 19.42 20.75 26.37 33.73 28.26 33.08 43.89 45.47 44.65 43.89 43.18 43.15 42.84
47.56 45.03 44.31 46.49 49.18 49.49 42.95 31.50 30.51 35.08 39.34 38.12 38.43 35.23 35.98 39.40 39.11 38.48 38.09 36.84 39.28 40.04 32.38 31.39 31.90 41.30 42.03 41.76 39.43 35.05 30.17 35.09 29.07 28.88 24.14 27.43 34.21 40.74 39.37 42.30 42.64 41.30 41.39 40.21 41.03
43.26 42.18 42.06 47.62 49.05 45.91 38.30 33.22 35.47 41.13 41.59 41.56 34.62 36.76 33.26 35.50 35.96 37.45 36.65 40.91 39.83 43.03 41.85 37.45 30.15 39.25 41.50 42.07 40.56 37.05 38.33 29.21 30.35 21.92 20.88 27.76 31.10 28.59 33.57 34.85 38.79 37.85 38.42 39.14 40.20
43.23 38.10 42.93 47.77 46.74 38.48 31.92 33.53 38.00 42.61 43.10 39.70 37.24 35.92 35.65 35.18 36.00 35.92 36.98 39.90 40.90 40.69 42.65 39.12 35.01 33.43 38.50 36.17 33.62 34.58 33.05 34.90 33.90 31.88 24.57 23.71 29.45 33.91 32.23 36.50 36.74 37.34 38.30 37.87 38.19
41.19 32.82 43.33 45.76 34.01 32.94 32.01 35.99 41.14 40.02 43.72 41.70 40.12 38.18 36.38 37.46 35.51 35.34 35.58 38.77 41.71 41.69 38.24 40.21 35.64 29.17 32.67 39.44 41.30 38.93 35.00 34.82 27.89 27.02 29.95 29.05 29.44 38.81 37.76 38.27 39.45 38.45 37.42 37.34 37.15
36.77 34.71 43.31 42.75 28.83 30.28 33.71 36.01 39.71 39.33 40.07 38.63 37.13 38.75 39.05 35.41 32.37 35.53 36.56 41.26 41.20 39.33 38.91 39.13 32.31 26.89 28.17 33.49 36.92 34.04 35.89 36.86 35.51 33.41 27.20 23.71 27.61 40.35 40.44 39.13 38.73 36.01 36.04 35.88 35.66
35.91 29.05 34.21 34.51 34.47 33.32 32.10 32.96 35.18 40.51 39.45 40.31 38.47 39.15 36.41 34.42 37.22 33.84 35.43 38.73 40.83 40.28 40.65 39.93 34.89 29.53 24.21 28.53 32.57 29.94 33.30 35.81 33.24 24.75 26.02 26.96 31.33 34.81 36.74 35.44 36.17 35.08 34.53 33.88 33.53
37.06 33.12 32.26 26.94 29.64 33.03 35.36 34.97 32.90 34.54 39.09 40.05 37.05 36.17 34.43 30.73 33.06 31.79 36.07 37.53 38.74 38.53 37.94 36.66 28.56 32.58 34.03 34.76 33.88 32.40 32.90 34.04 32.43 31.43 25.36 29.42 29.23 32.76 33.65 33.00 33.84 34.09 33.84 32.37 31.59
32.38 34.19 37.57 32.09 32.62 31.61 32.62 35.63 33.29 34.99 36.39 34.28 34.18 36.55 36.21 32.37 33.69 30.06 35.77 34.87 32.73 34.83 35.64 36.30 28.44 31.44 28.82 33.72 32.43 29.29 31.69 31.26 31.99 32.12 31.52 30.35 28.42 33.13 33.75 33.95 31.52 31.92 31.18 30.06 29.48
38.99 39.84 37.04 33.23 33.28 30.59 29.43 32.14 34.68 36.70 38.64 38.66 36.57 36.04 35.61 36.66 37.92 37.79 38.51 39.23 37.32 32.96 31.26 30.76 28.87 27.34 23.46 30.98 30.27 22.84 29.30 31.44 32.41 31.67 32.29 25.92 30.56 31.63 29.43 28.99 28.65 29.34 29.26 28.75 28.31

GFSSW_sfc_wetblb_114.txt.gz
Wetbulb
58.40 58.50 58.81 59.13 59.53 60.27 60.15 59.66 58.93 58.69 58.46 57.31 56.92 56.07 55.62 55.38 53.53 51.09 50.38 55.14 55.07 58.35 56.20 48.15 47.40 46.86 47.00 44.52 46.04 43.23 35.62 31.97 36.05 38.10 41.35 47.72 46.78 47.30 49.66 47.69 49.21 51.39 50.73 53.40 55.30
56.80 56.99 57.35 57.96 57.55 57.29 57.90 58.60 58.61 58.54 58.11 57.05 56.46 55.76 55.31 54.61 49.12 48.03 56.51 58.79 58.51 57.57 47.18 45.81 45.91 47.71 42.87 42.37 43.04 39.88 34.22 36.86 42.16 42.77 43.83 46.59 47.05 47.09 46.68 47.56 47.93 48.52 52.35 54.12 54.28
55.74 55.46 55.50 55.97 57.13 57.45 57.31 56.76 57.77 58.67 58.18 56.97 55.87 54.99 54.40 52.58 47.77 50.76 58.74 58.47 58.49 56.54 48.05 47.87 48.46 47.63 43.00 43.24 42.95 40.28 38.58 42.45 45.30 46.90 47.11 46.74 47.37 49.16 46.12 44.72 47.44 47.43 49.34 51.27 51.55
55.73 55.45 55.17 55.37 55.47 56.50 56.75 56.27 56.17 58.03 58.26 56.85 55.31 54.08 53.94 48.56 38.76 49.53 58.51 58.92 59.17 53.26 49.22 47.64 46.94 43.87 42.25 41.26 44.24 39.89 44.62 45.83 46.26 47.49 45.76 44.92 45.86 45.88 45.45 46.40 49.29 49.33 49.04 49.44 49.29
56.13 55.77 55.43 55.12 54.94 55.88 56.04 55.94 56.14 56.63 57.97 56.79 55.05 52.13 48.10 44.93 46.81 55.63 60.68 59.33 53.71 49.91 47.64 46.54 46.22 45.31 41.48 42.90 44.77 42.73 44.23 46.08 47.27 47.48 46.74 47.60 45.95 46.01 46.02 48.40 48.36 48.54 48.91 48.25 48.47
55.52 55.82 55.72 55.18 54.91 55.63 55.44 55.09 55.60 55.88 57.16 56.40 54.33 51.00 46.15 40.93 52.75 54.13 54.44 54.25 52.10 48.79 47.45 47.11 47.05 47.94 45.06 43.88 41.71 44.86 45.15 44.02 44.94 44.44 45.41 45.27 45.50 44.66 46.58 48.26 49.04 49.49 48.71 48.22 48.40
55.16 55.78 55.58 55.19 55.19 55.38 54.55 53.43 55.01 55.40 56.68 56.05 53.63 49.65 45.35 44.93 53.16 52.84 53.21 51.34 51.78 50.23 47.42 49.86 49.60 45.99 46.50 43.52 47.09 45.34 40.98 43.11 42.83 42.76 42.92 46.18 42.22 42.52 47.85 47.43 47.95 49.23 49.88 49.08 48.12
55.22 54.99 54.56 54.54 54.83 54.83 54.04 53.43 54.72 55.55 56.32 54.97 52.49 48.20 42.58 52.90 52.37 51.42 50.83 50.06 52.93 53.22 52.09 52.57 50.95 46.41 43.90 45.52 43.54 40.04 39.15 33.29 39.97 42.08 44.12 40.95 37.56 43.77 47.74 46.54 45.53 46.05 48.15 49.33 47.96
54.56 54.30 54.26 54.03 54.06 54.34 54.54 54.56 55.07 55.96 55.25 52.53 47.56 45.74 42.40 53.91 49.82 52.50 52.13 49.44 52.17 52.78 51.77 53.54 48.57 43.42 42.93 37.71 34.15 35.52 30.09 33.39 36.90 43.82 41.88 40.41 39.11 43.95 47.77 47.07 46.22 46.12 47.38 48.98 48.79
53.87 54.21 54.05 54.00 54.10 53.92 54.19 53.94 53.25 51.53 50.31 50.19 49.23 42.83 45.47 45.17 51.19 53.09 52.12 52.13 49.86 49.67 48.48 45.85 41.82 37.86 36.48 34.05 26.76 29.89 31.21 31.62 31.59 37.52 39.52 38.92 40.00 44.31 45.11 44.19 44.90 45.39 46.76 47.95 46.49
53.81 54.01 53.75 53.67 53.77 53.47 51.00 48.19 45.93 44.10 45.18 41.57 42.68 44.23 46.60 50.19 52.99 50.94 52.25 50.87 49.15 45.80 39.91 42.39 36.34 32.49 35.90 37.34 38.44 36.77 34.72 33.67 36.96 39.76 38.68 37.69 39.08 41.00 43.48 43.33 43.22 44.37 46.27 47.55 48.60
53.56 53.36 53.38 53.55 54.00 52.72 50.37 43.93 45.87 45.75 40.59 44.63 46.23 45.42 48.45 48.70 44.32 48.15 51.04 45.20 43.37 38.36 40.72 37.64 34.87 40.35 40.92 39.47 38.35 37.59 34.85 34.11 37.65 40.12 38.42 36.19 36.80 40.73 42.57 42.65 43.46 43.75 45.76 48.71 49.32
52.93 53.12 53.06 52.90 53.71 51.65 47.42 47.97 51.69 49.31 39.25 43.20 45.28 44.13 45.88 47.60 43.07 44.09 47.28 44.62 41.18 38.24 38.18 35.16 38.01 42.43 40.32 38.05 36.47 36.13 34.30 34.44 33.99 36.78 37.33 35.58 33.53 37.26 41.02 42.64 44.27 45.19 45.90 49.73 48.70
52.14 51.90 51.69 52.26 49.31 50.18 48.17 51.76 52.70 50.19 29.51 36.36 42.05 44.88 47.00 48.52 43.08 48.93 48.71 44.83 40.80 37.97 37.95 36.95 41.71 39.74 38.59 37.16 37.91 32.29 38.28 37.27 35.84 32.94 27.99 35.60 26.28 34.24 37.33 38.74 41.12 42.94 44.86 46.51 45.96
50.47 50.14 51.30 53.16 46.73 47.92 49.54 51.63 50.43 47.47 15.19 38.31 42.47 50.70 48.71 43.67 45.15 45.84 49.87 44.70 39.38 38.65 38.57 35.69 37.03 36.75 35.99 37.42 38.85 35.23 38.55 36.63 35.30 31.32 30.01 31.26 26.99 31.91 37.61 36.09 38.67 42.99 44.37 43.69 44.56
50.22 50.12 51.50 51.19 50.09 48.85 50.49 49.68 48.38 33.19 17.67 35.71 42.72 42.24 42.08 43.21 44.20 45.89 45.46 46.41 44.84 40.27 39.73 38.26 41.47 40.46 38.78 40.46 39.64 39.69 36.06 34.83 33.63 31.15 21.41 28.86 28.28 26.37 31.59 37.14 41.14 43.91 43.07 43.21 42.92
49.39 49.99 51.67 51.80 46.35 49.53 50.49 47.11 33.20 23.67 37.25 34.63 37.79 41.50 40.39 39.46 40.96 41.66 40.19 38.35 35.17 31.32 31.72 36.56 37.08 40.31 42.15 36.75 38.35 35.20 30.89 25.78 19.07 22.89 20.75 31.92 28.51 29.68 39.53 41.23 43.36 40.43 39.98 41.22 41.61
48.39 48.31 49.55 51.04 48.82 49.86 48.70 39.13 26.38 32.19 32.86 40.26 39.90 40.29 37.22 39.88 39.75 40.71 37.26 33.72 36.63 35.78 32.14 29.96 27.77 36.57 40.65 38.20 34.58 32.90 31.32 24.63 18.04 19.75 22.79 31.67 23.39 32.17 38.32 37.49 39.82 41.00 40.66 40.72 40.18
47.64 45.32 44.97 47.15 49.66 50.57 43.09 30.63 29.37 32.75 38.02 36.73 37.35 34.03 33.81 38.58 38.32 38.32 36.93 36.20 37.46 38.38 32.31 30.31 30.87 39.21 40.58 40.48 38.45 33.35 27.68 33.51 28.77 28.09 20.75 25.23 30.90 36.48 36.04 34.97 35.52 35.21 37.03 37.42 38.14
41.64 42.56 42.38 47.67 48.92 47.07 38.57 32.29 33.82 39.12 40.03 39.25 33.58 36.04 32.06 33.99 34.43 34.95 35.17 39.08 38.38 40.51 40.31 36.21 30.22 37.41 40.05 40.91 39.92 35.93 36.81 28.79 28.49 20.26 19.77 24.88 27.33 26.92 32.75 32.57 34.49 33.46 32.93 33.61 36.35
42.19 35.51 42.46 48.28 48.06 40.68 31.47 32.82 36.08 40.77 41.27 38.01 35.66 34.91 35.10 34.18 34.48 34.41 35.52 39.01 39.84 39.40 41.05 37.35 34.66 32.74 38.87 35.58 33.64 33.93 32.90 33.62 31.83 28.40 22.32 21.31 25.08 34.42 33.11 35.74 34.13 34.08 34.55 35.09 34.32
41.22 33.11 42.80 46.52 34.91 32.75 32.65 36.19 39.82 39.10 41.86 39.60 39.84 37.92 35.29 35.56 33.66 33.95 35.38 38.08 40.48 39.80 37.06 38.70 35.16 30.11 31.92 39.07 39.83 38.17 35.06 34.97 25.63 23.65 27.36 25.51 27.91 37.98 37.42 38.74 36.52 35.25 34.98 34.21 33.52
36.58 35.71 43.27 42.85 29.97 30.39 34.04 36.06 37.90 38.07 38.21 38.88 37.71 38.75 38.04 34.10 31.56 34.65 36.31 40.98 41.07 38.71 37.60 38.55 33.40 27.81 28.66 33.27 35.89 33.11 35.27 35.88 34.48 32.74 27.06 21.65 25.44 39.34 38.93 37.07 35.70 33.11 33.32 33.32 32.91
34.49 28.68 33.82 34.90 35.30 33.08 30.72 32.81 33.91 39.35 38.38 40.23 38.78 39.07 36.04 33.94 36.62 33.10 34.99 38.85 39.54 38.78 41.60 41.22 34.98 30.90 25.57 28.64 31.97 29.41 33.08 35.60 33.33 26.13 24.92 24.99 29.55 34.57 34.34 32.74 32.68 31.94 31.34 30.93 30.90
34.19 31.59 32.66 27.24 29.19 32.76 33.72 33.36 31.13 32.89 38.60 38.03 37.36 35.58 33.20 29.96 32.46 33.02 36.35 35.75 36.99 40.05 36.85 34.99 27.27 30.81 33.13 34.33 33.70 32.59 30.71 33.02 32.50 31.21 25.46 28.07 29.90 32.51 31.79 30.88 31.03 31.47 31.14 29.59 29.02
32.15 32.71 35.08 30.32 31.65 31.06 32.81 33.85 31.14 33.13 35.22 34.47 34.17 35.01 34.83 30.93 32.16 29.44 34.27 34.31 31.70 32.74 33.36 34.45 27.25 30.37 29.10 33.66 32.57 28.83 30.97 30.52 31.25 31.22 30.57 30.51 29.52 33.82 32.87 31.95 30.11 30.02 29.26 27.93 27.73
38.00 40.37 37.11 33.66 29.70 29.59 29.25 31.17 32.44 35.40 36.58 38.13 35.98 35.67 35.06 34.93 37.03 35.88 37.74 37.32 36.02 32.63 30.02 30.41 28.98 28.24 25.92 30.70 30.20 24.15 26.94 31.03 30.36 30.55 31.39 25.11 29.72 30.41 27.78 27.84 28.12 28.53 28.45 27.11 26.30

GFSSW_sfc_wetblb_117.txt.gz
Wetbulb
58.21 58.24 58.35 58.18 57.51 57.06 57.97 58.99 58.79 58.75 59.01 58.50 57.52 56.78 56.36 55.94 54.07 50.10 48.37 54.50 53.99 59.96 56.37 47.52 45.82 45.97 45.53 43.38 44.44 41.71 34.72 31.14 34.75 36.74 40.27 45.53 44.16 45.44 48.26 46.99 47.98 48.55 48.52 51.36 53.92
56.06 56.15 56.46 56.66 57.04 57.07 57.23 56.99 56.95 58.02 58.76 58.39 57.12 56.33 55.88 55.10 48.13 46.52 54.50 59.83 60.19 58.54 46.59 45.72 45.40 47.41 42.68 40.98 41.44 39.32 32.95 35.05 40.52 40.79 41.65 45.05 44.44 45.49 45.36 46.28 46.60 46.99 50.33 52.45 53.03
55.45 55.15 54.93 55.24 55.84 56.24 56.63 56.62 56.22 56.47 57.96 58.22 56.78 55.98 55.02 52.55 45.56 47.81 59.46 59.60 58.26 55.90 47.75 46.77 46.96 46.25 40.97 40.01 39.36 36.91 35.84 39.67 42.90 44.72 44.83 43.80 45.89 46.33 43.81 43.23 46.46 46.28 47.98 49.60 49.48
55.60 55.39 54.99 54.93 55.06 55.58 55.86 55.57 56.09 56.19 56.91 57.86 56.20 54.95 54.36 48.24 34.42 48.22 58.76 57.78 59.07 52.18 48.00 45.95 45.31 41.54 39.56 38.78 41.19 37.60 41.89 43.22 43.52 45.95 44.97 44.21 45.65 44.31 44.88 45.89 48.22 48.07 48.67 47.39 47.15
55.18 55.52 55.13 54.95 54.59 54.90 55.47 55.32 55.45 56.01 56.36 58.00 55.33 52.95 48.32 44.81 44.84 53.37 59.60 58.30 52.73 48.98 46.39 45.30 44.67 43.37 40.10 41.79 43.06 40.95 42.99 44.97 45.01 44.61 44.33 45.61 43.44 44.58 44.17 47.82 47.65 47.77 47.74 46.95 47.02
54.76 55.23 55.55 55.01 54.56 54.79 55.37 54.25 53.99 55.43 55.86 57.18 54.34 51.68 45.99 40.16 50.51 52.44 52.05 51.50 51.92 48.29 46.06 45.81 45.92 45.60 42.82 42.01 40.54 43.32 42.66 42.37 43.11 43.52 43.69 43.65 43.62 42.07 44.98 47.75 47.02 47.66 47.31 47.54 47.12
54.35 55.02 55.10 54.55 54.23 54.70 54.25 53.20 53.19 54.38 55.17 56.66 53.63 49.98 44.63 43.55 50.63 50.48 51.05 49.07 49.73 48.59 45.98 48.59 48.33 45.13 44.15 41.62 44.87 43.74 39.75 40.99 42.03 41.58 41.76 43.14 38.56 39.67 44.42 45.52 45.65 46.66 47.79 47.92 48.72
54.03 54.72 54.21 54.19 54.19 54.43 54.29 53.12 53.58 54.57 54.93 55.90 53.21 48.34 42.16 52.04 50.59 50.15 49.00 49.01 51.07 51.12 51.23 51.52 49.74 45.81 43.39 44.48 42.25 38.98 37.57 32.20 38.85 40.58 42.46 39.78 34.79 42.46 44.27 45.89 45.49 45.03 46.14 47.32 48.31
54.25 53.94 53.67 53.70 53.62 53.87 54.19 54.41 54.48 55.64 55.63 53.02 46.93 46.68 41.03 52.63 47.88 51.11 51.20 48.10 50.46 51.43 51.31 53.59 48.21 42.71 41.80 36.76 33.48 34.00 28.25 31.22 35.55 41.31 39.84 38.52 36.92 41.37 45.55 45.40 44.70 43.63 44.44 44.62 46.76
53.28 53.34 53.66 53.40 53.59 53.43 53.98 53.82 53.56 52.44 51.35 50.40 49.40 42.14 43.81 42.52 48.59 51.17 50.60 50.59 48.93 49.49 47.89 46.11 40.40 36.81 36.11 33.51 26.19 28.95 29.34 27.01 30.40 36.54 38.32 36.95 37.60 42.03 42.26 42.65 43.02 43.15 43.46 43.29 44.85
52.85 53.37 53.56 53.13 53.05 53.40 50.64 46.45 44.85 42.94 45.28 41.56 42.04 42.07 44.93 48.47 50.83 49.30 50.90 49.28 48.32 45.56 39.83 40.50 34.80 32.23 36.50 36.35 36.61 34.91 32.58 31.32 33.53 38.40 36.91 36.58 37.02 39.25 40.86 40.38 41.23 42.86 42.92 42.70 46.30
52.79 53.08 52.86 53.05 53.04 53.11 50.14 42.60 43.03 44.71 39.82 44.14 45.11 44.35 47.14 47.56 42.42 46.35 50.91 45.19 43.08 38.06 40.40 37.22 33.73 39.29 39.62 37.89 36.50 35.57 33.24 32.82 35.98 38.97 36.47 34.71 35.57 39.46 40.00 39.91 41.69 42.26 40.83 44.95 45.59
52.42 52.48 52.52 52.33 52.53 51.86 46.40 46.54 49.06 50.05 38.65 41.95 44.45 43.57 44.88 46.21 41.35 42.17 47.15 44.13 40.29 37.88 38.09 35.28 38.23 41.81 39.59 37.10 35.48 35.06 33.13 33.38 32.97 35.07 36.28 34.13 32.52 34.84 39.94 40.38 41.84 42.77 42.80 46.36 45.22
52.30 51.90 51.34 51.15 49.61 49.74 47.59 50.27 49.52 48.90 28.58 34.26 41.00 43.81 45.41 45.99 40.76 46.91 47.24 44.04 39.51 37.46 37.41 36.11 41.04 38.87 37.00 35.87 36.58 31.33 36.74 35.98 34.64 31.59 25.38 33.96 24.50 34.00 35.29 38.18 41.79 43.16 42.56 42.94 42.67
51.49 50.19 50.34 51.45 45.38 46.43 47.50 50.50 49.73 45.05 15.32 37.22 41.34 49.43 46.89 42.86 43.11 43.97 47.30 42.95 37.74 37.21 37.16 34.43 36.05 35.69 34.71 36.28 37.34 34.08 38.12 35.66 34.17 29.92 28.02 29.83 25.23 28.44 35.68 36.24 39.70 41.23 41.02 40.86 41.46
50.87 50.04 50.26 49.55 50.04 48.82 49.78 49.74 47.23 25.08 15.82 33.74 42.24 41.23 40.74 42.41 42.42 44.48 43.24 44.54 42.74 37.93 37.42 35.89 39.50 38.26 36.87 38.89 38.84 39.08 35.81 33.91 32.39 29.35 20.24 27.86 26.83 24.11 32.30 33.59 37.27 41.83 40.71 40.64 40.17
50.49 49.68 48.83 50.40 43.61 50.08 49.71 46.86 31.05 18.60 34.62 32.64 36.63 40.65 39.48 38.17 39.25 40.57 38.54 36.56 34.29 30.33 30.44 34.88 36.23 39.22 41.22 36.08 37.11 34.09 34.13 27.98 22.01 21.14 20.99 30.16 26.69 30.16 34.08 34.91 37.27 37.07 37.16 37.68 37.97
49.40 48.64 49.21 49.13 49.24 49.34 47.78 38.96 23.50 30.28 30.45 37.79 38.63 39.58 36.21 38.53 38.23 38.94 36.29 33.73 36.88 34.73 31.07 29.47 26.99 36.47 40.50 38.21 34.24 32.23 31.97 26.15 18.74 18.79 21.16 29.61 21.57 30.06 36.25 36.86 36.73 36.71 36.41 35.86 34.99
48.32 43.75 45.64 48.03 49.78 50.02 42.24 30.10 26.88 30.35 35.85 34.73 35.08 31.72 32.76 37.49 37.32 36.91 34.73 35.23 37.27 36.91 31.02 29.84 30.31 37.85 39.96 39.26 38.04 32.26 28.00 32.34 28.24 27.88 21.56 24.12 30.34 35.09 36.26 34.92 34.75 35.34 35.24 34.04 33.86
41.74 40.69 42.19 47.99 49.49 47.00 37.86 31.98 32.28 37.09 38.04 37.79 30.24 33.29 29.01 31.56 33.47 34.17 34.02 37.80 37.24 39.21 38.96 35.16 29.09 36.88 38.68 39.68 38.17 35.04 36.04 26.87 27.99 20.05 18.96 23.34 26.03 23.67 30.92 32.50 34.84 34.13 33.42 33.61 34.38
40.98 37.14 41.63 48.20 48.39 41.66 31.45 31.94 35.10 39.10 39.72 35.97 33.33 32.48 33.97 32.91 32.29 31.41 33.04 37.63 39.08 38.06 39.71 36.16 33.35 31.59 37.52 34.59 32.31 33.37 30.98 31.36 30.15 26.03 20.79 20.59 21.29 29.73 33.26 35.21 34.01 34.39 34.37 33.17 32.59
41.04 33.56 40.66 47.89 35.78 34.51 32.79 35.36 39.29 37.54 40.16 38.02 38.50 36.61 34.27 34.76 32.86 32.56 33.74 36.46 40.03 39.84 35.03 38.08 34.50 30.54 32.53 36.65 39.43 37.06 34.48 32.79 22.24 22.16 27.91 19.89 21.19 37.33 37.05 37.53 36.01 35.17 33.59 32.86 32.32
36.89 36.25 42.11 43.34 30.30 30.01 34.26 35.60 37.76 36.21 36.36 37.15 35.63 37.57 38.13 33.94 31.17 33.71 34.71 38.97 39.71 38.89 36.22 37.56 32.44 25.86 28.72 32.18 35.99 34.03 35.18 35.60 33.33 31.14 26.82 21.49 24.02 38.11 38.48 37.47 35.57 32.09 31.70 31.39 31.33
34.96 29.35 33.20 36.49 36.42 31.51 31.24 33.20 33.61 38.98 37.26 39.00 37.44 38.51 35.65 33.48 35.62 32.72 33.94 38.05 39.14 38.89 42.49 41.03 34.14 29.63 24.42 26.63 31.31 30.80 33.62 35.48 33.32 26.64 26.39 26.55 29.52 34.48 35.98 31.61 30.67 29.93 29.53 29.09 29.50
35.77 31.01 33.05 26.86 30.22 33.33 33.80 32.64 30.76 32.67 37.64 38.69 35.92 35.75 33.61 31.03 31.95 32.36 34.82 35.22 35.78 41.42 38.45 36.02 29.43 31.18 32.57 33.27 33.10 32.04 32.72 33.52 31.73 31.18 26.72 27.75 29.10 33.43 33.12 31.12 30.22 29.99 29.33 28.75 28.50
30.98 32.07 34.96 30.12 31.74 32.15 32.23 31.07 30.78 32.09 34.45 35.01 33.63 35.26 36.07 32.47 32.86 30.64 34.19 33.57 32.29 34.74 32.77 33.16 26.85 28.50 27.58 32.82 33.15 29.91 31.95 30.52 32.83 33.62 32.49 30.92 30.79 34.15 32.48 31.76 30.17 29.08 28.67 27.23 26.94
36.33 38.96 35.99 31.86 28.99 30.02 29.54 30.56 31.12 33.78 34.67 35.94 35.39 34.42 34.01 35.01 37.11 38.13 37.93 37.09 36.95 32.85 30.31 30.89 29.42 28.15 25.18 30.90 31.98 27.06 28.35 30.78 29.65 30.01 30.80 26.50 30.20 31.84 29.55 29.40 28.55 28.11 27.59 25.29 26.05

GFSSW_sfc_wetblb_120.txt.gz
Wetbulb
58.16 58.11 58.00 57.97 57.22 56.90 56.96 56.89 56.85 57.41 58.34 58.77 58.69 57.69 57.02 56.12 54.61 49.24 45.41 50.29 53.92 59.88 55.95 46.39 45.78 47.06 45.08 42.59 43.42 40.65 34.50 31.94 34.94 35.75 38.92 43.61 42.75 44.33 46.88 44.92 46.47 47.35 47.13 49.75 52.66
56.07 56.04 55.93 55.61 56.23 56.19 56.39 56.74 56.35 56.34 56.79 58.31 58.49 57.20 56.14 55.21 47.62 45.56 53.19 58.96 59.44 57.10 46.09 45.78 44.93 45.98 42.37 40.16 40.69 38.23 32.79 34.81 39.16 39.54 39.32 41.96 42.84 44.02 44.41 45.03 45.25 45.31 49.04 50.71 51.03
55.60 55.43 54.94 55.09 55.12 55.56 55.93 55.62 55.70 55.79 56.14 57.41 57.67 56.42 55.42 52.42 43.75 43.62 59.61 58.86 58.04 54.39 46.48 45.92 45.72 45.15 40.47 39.86 39.00 35.54 34.75 38.26 40.45 42.28 41.91 41.31 43.10 44.65 42.05 42.54 45.49 45.88 47.56 48.98 47.86
55.60 55.46 55.26 54.75 54.85 54.84 55.15 54.94 55.31 55.54 55.78 56.34 57.56 55.29 54.88 47.66 33.10 47.52 59.05 58.51 58.64 50.30 47.07 45.37 44.80 40.86 37.89 37.60 39.70 36.26 40.09 40.77 41.70 44.06 42.48 41.91 43.33 42.29 44.28 46.10 48.00 46.95 47.34 46.63 46.31
54.82 55.04 55.09 54.98 54.55 54.55 54.91 54.72 54.23 54.65 55.66 56.05 56.53 54.25 48.57 43.59 43.44 52.40 56.67 56.60 52.06 48.40 46.37 44.52 43.22 41.42 38.60 39.75 41.38 39.49 41.23 43.42 43.83 43.50 42.80 44.02 42.27 43.12 42.76 45.58 46.13 46.69 47.19 46.55 46.84
54.32 54.42 54.87 54.89 54.55 54.13 54.64 53.81 53.32 53.87 55.07 56.17 54.25 53.05 45.94 38.86 48.61 51.40 50.90 50.50 50.44 47.76 45.64 44.10 44.41 44.79 41.67 40.56 39.09 41.43 41.53 41.11 41.99 42.85 42.17 40.98 41.21 40.03 42.71 43.92 44.68 45.58 45.87 46.69 46.82
54.01 54.11 54.70 54.34 53.82 53.99 54.21 52.99 52.64 53.62 54.30 55.88 53.48 49.34 44.02 42.40 49.14 49.21 50.17 47.60 48.28 48.10 44.78 46.70 46.57 43.35 42.70 40.00 43.02 41.93 37.95 39.68 40.46 39.32 40.48 40.52 36.73 37.16 42.13 43.58 43.56 43.76 45.28 45.79 46.48
53.71 54.25 53.85 53.74 53.74 53.79 53.91 53.32 52.89 53.60 53.81 55.98 53.18 48.42 40.82 50.47 49.56 49.34 47.79 47.64 49.48 49.53 48.90 49.65 48.55 44.19 41.45 42.66 40.88 37.79 36.11 31.71 37.47 39.61 40.48 39.60 32.75 40.25 42.62 43.90 43.18 43.76 44.47 45.69 45.72
54.15 53.80 53.21 53.09 53.28 53.37 53.77 54.15 53.59 55.24 55.45 53.00 47.02 45.61 39.63 51.31 45.47 48.76 49.35 47.06 48.41 49.28 49.02 52.59 46.77 41.93 40.32 35.49 32.23 33.76 26.99 30.44 34.62 39.72 38.54 37.10 34.23 40.83 44.30 43.81 41.83 43.42 41.96 42.31 43.07
53.29 52.90 53.09 53.05 52.85 52.96 53.25 53.21 53.89 52.49 50.95 50.84 49.38 40.13 42.25 40.44 46.92 49.47 49.43 49.43 47.64 47.52 46.35 44.49 39.22 36.12 34.62 32.47 25.29 27.29 28.47 26.30 29.74 35.03 36.69 35.65 36.31 39.94 41.09 40.12 41.36 41.99 40.91 41.06 44.53
52.07 52.83 52.94 52.64 52.54 52.78 49.94 46.16 42.08 40.94 45.81 39.98 40.51 40.05 42.97 47.18 49.08 48.00 49.77 47.64 47.07 43.84 38.00 39.00 34.63 31.93 35.90 35.14 34.87 33.63 30.48 29.17 31.65 37.19 35.49 35.52 36.18 36.95 39.55 39.29 38.66 39.56 39.54 40.51 43.39
52.05 52.55 52.27 52.36 52.43 52.75 47.48 41.69 41.17 46.08 39.00 43.23 43.86 43.58 46.09 46.37 41.39 43.95 49.83 44.10 42.21 37.15 39.31 35.80 32.42 37.48 38.18 36.78 35.86 34.61 31.42 31.20 34.49 37.62 36.13 33.78 33.45 37.25 38.10 38.47 40.42 40.67 41.25 42.75 42.34
51.78 51.81 51.80 51.61 52.07 51.83 48.11 43.76 48.39 49.27 37.38 40.32 43.06 42.11 43.33 44.96 40.02 40.68 46.92 43.51 39.60 37.14 37.20 33.68 36.53 41.04 38.57 35.43 34.15 33.36 31.82 31.94 32.30 34.33 34.61 33.24 30.16 32.26 37.64 41.75 42.78 40.91 40.90 41.26 39.54
51.54 51.80 50.97 50.66 47.41 45.88 45.13 48.36 48.09 48.07 25.51 31.98 40.05 42.97 44.53 44.47 39.46 45.20 46.35 43.26 38.70 36.87 36.54 36.22 40.37 38.02 36.13 35.57 35.86 29.91 36.18 35.38 33.08 30.39 24.38 32.83 23.51 31.11 34.62 36.58 40.78 39.70 39.35 39.87 39.67
51.63 51.18 50.08 51.05 42.39 43.92 45.01 48.27 47.24 42.62 14.25 35.75 40.23 48.20 45.48 40.35 41.47 42.52 45.47 42.33 37.10 36.35 36.40 33.48 34.74 34.81 33.68 35.53 36.34 33.02 36.66 34.65 33.53 29.25 27.20 28.03 24.83 26.59 33.78 33.10 37.67 38.41 38.19 37.90 38.17
51.83 50.50 49.89 47.27 48.77 46.48 48.67 48.67 46.69 21.46 14.68 33.01 40.64 39.70 39.08 41.45 41.13 42.74 41.39 43.42 41.40 37.14 35.91 35.09 37.78 36.97 36.20 37.41 37.24 37.79 34.87 32.73 31.18 28.10 23.51 27.85 26.91 23.27 30.27 32.69 35.01 35.80 36.23 36.65 36.73
51.64 50.56 48.34 48.21 42.07 48.71 49.22 47.14 29.11 16.29 32.11 31.24 36.29 39.67 38.02 37.07 37.92 39.37 36.71 35.29 32.68 29.39 29.70 33.34 34.76 37.31 39.54 34.57 36.36 33.99 31.93 24.26 20.12 21.53 21.63 28.37 25.39 26.95 33.17 35.33 35.81 34.66 35.32 35.86 35.90
50.97 49.85 48.28 46.95 48.02 49.01 47.34 39.01 23.42 27.18 27.79 35.96 37.91 38.54 35.02 37.32 36.20 37.11 34.36 31.11 35.10 33.24 29.56 27.34 25.27 34.28 38.79 36.88 32.89 30.80 32.00 27.73 19.59 17.91 20.28 28.06 22.02 29.58 35.49 36.06 36.37 36.10 35.57 36.07 34.64
49.19 43.33 44.89 48.05 48.34 48.64 41.68 29.23 24.92 28.88 34.37 32.17 33.20 31.36 32.42 36.22 35.26 35.65 34.08 32.34 34.86 35.79 30.29 28.05 28.70 36.64 38.66 37.70 37.64 32.21 31.00 33.19 29.19 27.78 23.63 23.98 29.49 33.66 36.12 34.57 35.60 35.85 35.74 35.08 34.63
42.10 40.63 43.24 47.56 49.17 46.44 36.52 30.25 31.34 35.56 36.82 36.31 28.57 30.62 26.37 30.63 33.20 33.45 32.84 36.59 36.33 37.93 37.40 33.73 27.42 35.50 37.38 38.48 36.86 34.06 35.43 27.69 28.67 21.76 19.15 22.12 23.83 23.96 31.05 32.18 33.16 33.68 33.78 34.49 34.78
41.22 37.31 40.88 47.65 48.63 40.27 30.27 30.36 33.40 38.06 38.62 34.39 32.31 31.74 32.50 31.75 32.56 30.83 32.82 35.91 38.23 36.65 38.81 34.79 32.15 30.77 36.14 33.98 31.40 31.69 30.58 31.60 30.45 28.20 20.68 19.68 21.26 27.91 32.10 33.44 31.99 33.07 34.62 33.36 32.53
39.93 32.24 41.15 48.08 35.96 35.38 31.78 33.83 38.09 36.11 38.80 36.66 36.91 35.07 32.82 33.83 32.19 32.05 31.98 34.59 39.00 38.10 33.95 36.17 32.93 28.68 31.56 36.62 37.92 37.00 33.86 32.56 27.10 22.74 25.44 19.29 20.90 35.73 35.50 35.55 35.68 35.13 33.79 33.09 32.25
36.20 36.02 41.45 43.16 29.90 31.01 33.97 34.83 36.28 35.60 35.67 35.77 34.52 37.05 37.01 33.05 30.55 32.88 34.13 38.62 39.43 38.54 35.65 38.05 32.27 26.73 25.06 30.82 34.60 33.55 34.29 34.74 33.66 31.40 27.05 20.49 22.90 36.97 37.11 37.13 36.39 34.32 32.61 30.93 29.71
35.34 29.33 33.72 37.75 37.48 32.48 31.80 32.43 33.32 37.99 36.68 37.77 36.31 37.12 34.58 32.59 34.63 31.55 32.21 36.99 38.12 38.07 42.34 39.95 32.65 29.43 24.48 26.21 30.38 29.90 32.57 34.93 34.04 28.48 28.00 26.50 28.17 32.08 35.45 35.83 31.80 29.64 28.35 27.57 27.95
36.45 31.52 32.82 27.44 31.31 33.24 33.96 32.75 31.21 31.50 37.36 38.25 35.86 35.22 33.12 30.10 30.65 30.30 32.84 34.53 35.48 38.99 38.01 35.60 30.00 31.32 31.92 32.77 33.41 31.40 31.69 32.71 33.03 32.83 28.52 29.33 28.74 32.85 34.99 32.64 29.12 28.32 28.16 28.08 27.53
31.73 31.86 34.97 30.29 33.11 33.00 32.35 30.67 30.22 31.81 33.89 33.69 32.66 34.31 34.99 31.96 32.03 28.72 33.10 32.53 32.13 36.29 34.80 34.04 27.00 29.98 27.96 32.08 33.10 30.30 31.55 31.64 32.75 33.79 32.76 31.49 29.96 35.35 33.47 31.01 28.41 27.82 27.35 26.30 26.63
37.49 39.06 31.63 29.07 28.53 30.54 30.33 30.36 30.81 33.31 34.26 35.41 34.90 34.59 33.64 34.25 36.56 37.38 37.06 36.21 37.28 34.16 30.58 31.21 29.50 27.76 24.76 29.18 28.01 26.74 29.74 30.13 29.26 29.55 31.35 29.26 31.52 31.04 28.95 29.01 28.26 27.81 28.00 26.14 26.63

GFSSW_sfc_wetblb_123.txt.gz
Wetbulb
58.47 58.20 58.22 57.96 57.15 56.62 56.58 56.76 56.68 56.58 56.45 56.65 58.32 58.47 57.17 56.80 54.77 51.10 47.19 52.83 55.67 60.23 56.76 50.21 51.12 50.98 50.20 49.31 48.65 46.86 44.77 42.85 43.00 41.93 44.66 47.12 47.20 50.08 51.21 49.34 50.70 51.40 52.05 53.83 55.55
56.92 56.47 56.16 55.77 55.98 56.01 55.84 56.12 55.82 55.91 56.20 56.37 57.81 57.67 56.66 56.09 49.41 46.68 54.76 57.99 58.79 57.16 50.33 50.65 49.34 50.80 49.15 47.16 47.50 46.49 43.41 43.23 44.22 44.71 44.48 46.76 47.27 48.52 48.92 49.70 48.77 50.27 53.63 54.27 54.28
56.26 55.76 55.06 54.87 55.18 55.24 55.30 55.13 55.23 55.46 56.01 56.29 57.59 57.06 55.84 53.62 45.57 45.79 59.04 58.51 59.17 55.35 50.52 49.52 49.77 49.98 47.01 46.83 45.67 42.75 42.82 43.42 44.76 45.72 47.12 46.52 47.26 48.55 47.98 46.55 49.47 49.41 50.60 52.22 52.12
55.88 55.90 55.40 54.88 54.83 54.40 54.88 54.74 54.64 54.61 55.58 55.93 56.99 56.19 55.61 50.11 36.38 50.93 59.34 58.91 59.33 53.13 50.92 49.40 49.21 46.72 45.07 44.04 45.69 42.61 44.23 44.44 46.68 47.20 46.40 46.13 47.44 46.90 47.43 48.31 50.72 50.46 50.98 51.29 51.88
55.20 55.04 55.23 55.24 54.65 54.24 54.66 54.63 53.88 53.54 54.64 55.57 56.56 54.48 50.82 44.18 44.31 54.51 56.23 56.26 53.65 51.88 49.85 48.74 47.62 46.24 43.81 44.73 45.94 44.22 44.94 46.21 46.96 46.46 46.68 46.68 45.50 45.69 46.63 49.63 50.15 50.63 50.70 50.59 51.37
54.60 54.17 54.22 54.91 54.46 53.97 54.21 54.37 53.39 53.43 54.31 55.35 54.73 53.67 48.32 38.36 50.60 52.74 51.79 52.13 51.75 51.58 48.68 49.31 48.65 48.67 46.10 45.00 44.83 45.18 45.02 45.08 45.67 46.59 45.72 43.99 44.46 45.55 45.75 48.45 47.95 48.31 48.96 49.99 50.66
54.54 53.96 54.49 54.41 53.92 53.82 54.02 54.13 52.73 53.31 53.58 54.89 53.92 49.80 45.41 43.04 51.83 51.85 51.18 50.87 51.42 50.56 49.10 49.72 50.25 48.39 47.37 43.69 46.21 45.25 42.25 43.77 43.85 44.15 43.61 44.89 41.15 43.00 46.56 47.66 47.28 47.68 48.69 49.60 49.61
53.87 54.08 54.07 53.68 53.35 53.57 53.70 53.74 52.92 53.24 53.50 55.75 52.79 48.87 41.74 51.22 52.01 50.38 50.60 49.91 51.14 51.69 50.87 51.82 52.09 48.72 46.57 46.83 44.02 41.53 40.73 37.15 41.79 43.57 43.23 44.13 37.13 43.74 47.20 46.82 46.27 47.10 47.99 48.25 48.37
54.19 54.17 53.24 52.83 53.05 53.17 53.58 53.88 54.00 54.10 55.26 53.34 49.27 46.12 40.64 51.70 46.44 49.91 51.36 48.41 49.35 50.22 50.89 53.02 50.83 46.73 45.20 40.77 38.98 38.22 34.70 35.01 38.44 42.80 42.60 41.84 38.09 44.30 47.35 46.14 45.00 46.19 46.60 46.26 47.03
53.92 52.99 52.62 52.74 52.62 52.50 53.06 53.48 54.43 52.43 51.23 50.92 49.34 41.51 43.41 42.04 47.90 50.36 51.29 50.67 48.57 48.18 47.73 47.26 44.38 42.43 39.66 39.60 32.24 33.20 34.29 34.96 35.17 40.52 41.47 40.05 39.74 43.21 45.50 44.30 43.62 45.01 45.86 45.59 43.91
53.22 52.31 52.73 52.53 52.39 52.61 50.27 47.95 43.16 42.03 45.85 40.88 41.05 39.97 43.55 48.15 49.85 49.29 50.78 49.60 49.13 46.42 41.62 43.31 40.70 37.74 40.38 40.35 37.56 36.61 35.22 34.73 37.75 41.30 38.91 38.76 39.48 41.51 43.42 44.36 42.61 44.24 44.70 43.65 42.31
52.10 52.36 52.09 52.01 52.07 52.35 49.04 44.02 42.60 46.72 39.52 43.69 43.77 43.69 45.91 47.19 42.67 45.99 50.91 45.82 44.71 39.67 41.71 39.50 37.28 41.68 41.09 39.83 38.91 38.01 36.03 36.14 38.45 40.64 39.90 39.01 38.45 40.81 42.93 42.10 40.92 40.87 40.71 40.63 40.76
51.96 52.18 51.81 51.68 51.41 51.59 48.00 45.82 49.89 49.64 39.91 40.47 43.42 42.09 43.25 45.37 41.18 42.09 47.98 45.93 42.59 39.49 39.32 37.04 39.01 41.70 40.39 37.96 36.79 36.51 35.91 35.62 35.79 38.79 39.39 37.84 35.53 38.10 40.65 42.72 41.05 40.90 41.19 40.40 39.22
51.80 51.89 51.22 50.59 48.27 48.17 45.19 49.65 50.05 50.25 30.82 33.05 39.32 42.91 44.65 44.41 38.93 46.27 48.71 46.63 42.23 39.81 39.77 39.57 42.22 40.00 39.12 37.76 38.46 34.15 39.28 38.39 36.63 35.06 31.33 37.85 29.12 35.31 37.53 38.63 39.00 38.84 37.68 37.58 37.53
51.65 51.92 50.65 51.38 45.16 45.21 46.72 49.60 49.45 42.31 20.58 36.43 39.68 48.51 45.81 40.34 43.08 43.08 47.16 45.39 39.86 39.21 39.88 36.97 37.72 37.57 36.91 38.27 39.82 36.55 38.99 37.50 36.29 34.77 33.26 33.66 31.47 32.66 35.74 34.76 35.09 36.45 36.96 37.30 37.92
51.70 51.40 50.13 48.72 48.91 48.73 50.23 50.40 46.47 28.32 18.85 33.93 40.45 39.82 39.18 41.68 42.33 43.03 43.42 46.07 44.12 40.04 39.45 37.86 41.37 40.33 39.73 39.20 39.99 40.18 37.98 36.46 35.26 33.97 27.58 32.59 32.35 31.01 32.10 34.22 34.74 36.05 36.89 37.62 37.77
51.73 50.99 48.92 47.78 42.96 49.62 50.61 47.83 30.42 20.74 33.56 32.72 36.05 39.58 38.24 37.49 39.25 38.89 38.72 38.28 36.41 32.63 33.12 36.18 37.32 40.41 41.52 38.00 39.25 39.17 36.10 28.26 26.45 24.53 25.86 31.70 30.25 34.83 34.47 36.45 38.20 36.90 36.46 36.94 37.23
51.07 50.36 49.00 47.47 48.09 49.85 48.12 39.20 22.60 28.09 28.95 36.40 39.42 39.23 35.85 38.22 37.73 38.49 36.33 34.91 38.25 36.00 32.42 30.97 28.73 36.77 40.63 39.18 36.62 36.02 35.80 28.75 21.58 22.62 26.67 31.21 28.11 33.39 37.21 37.38 38.37 38.17 38.26 37.55 36.24
50.44 46.09 44.90 46.62 47.61 49.05 41.57 29.22 26.96 29.73 34.86 33.09 35.84 34.80 34.86 37.58 37.38 37.54 35.24 34.60 37.90 38.46 33.14 30.70 30.92 38.62 39.92 40.02 40.39 35.18 33.08 38.35 31.58 29.59 27.03 30.86 32.30 34.34 36.36 35.09 36.71 36.91 37.44 35.70 34.69
43.97 42.73 42.38 46.85 48.40 44.75 35.98 30.84 31.98 35.78 37.77 37.13 29.42 32.81 29.79 33.51 35.17 36.31 35.36 38.58 37.39 39.53 40.58 36.50 30.91 37.63 38.67 41.18 39.48 38.19 39.38 31.52 32.79 23.89 21.23 27.55 28.85 31.45 32.18 32.60 35.73 35.93 36.13 35.23 35.34
42.10 37.53 42.13 48.33 48.06 38.28 29.75 31.28 34.01 38.50 39.16 35.35 33.30 33.20 34.03 32.45 35.19 33.91 34.93 38.24 39.99 38.80 40.75 38.36 35.69 33.87 38.09 36.75 35.17 34.90 33.91 33.83 33.70 30.97 25.37 23.57 29.02 35.29 34.75 35.64 34.48 35.27 35.86 35.31 34.36
40.12 31.65 43.00 48.22 34.00 33.89 30.86 33.82 37.64 36.09 38.88 37.13 37.58 36.28 34.38 35.47 34.12 33.53 33.82 36.45 40.92 40.11 36.09 39.41 35.92 31.77 33.77 38.40 40.61 39.03 36.57 35.72 29.46 27.24 28.68 27.23 29.29 38.32 38.85 38.74 36.92 35.72 35.76 35.43 34.43
36.32 35.36 42.47 43.89 28.35 29.54 32.87 32.91 35.57 35.54 35.75 35.63 35.10 37.74 38.52 35.05 31.66 35.06 35.92 40.00 41.09 40.38 37.92 39.48 34.05 29.55 30.95 34.55 37.70 35.96 37.22 37.08 35.82 33.47 29.19 25.96 29.26 38.09 38.37 37.71 37.06 36.38 35.25 33.73 31.96
35.43 30.22 34.62 37.90 37.72 33.50 30.46 30.54 31.26 37.26 35.70 36.78 36.52 38.07 35.92 34.30 36.36 33.83 34.25 38.91 40.33 39.96 43.02 41.56 35.17 32.47 27.90 30.06 34.27 32.21 34.97 36.88 35.27 30.14 30.20 31.04 32.60 34.54 35.64 36.33 36.76 36.42 34.02 31.65 31.42
35.87 32.43 34.39 28.28 32.06 33.24 33.80 33.16 30.47 30.30 36.95 37.61 34.43 35.43 34.31 31.11 32.51 32.20 35.11 36.40 37.97 39.72 40.42 38.72 32.08 33.48 34.64 34.77 34.75 34.33 33.91 34.98 33.45 34.10 29.82 32.28 32.57 36.64 36.64 36.74 37.36 33.98 30.75 29.70 29.44
32.25 32.96 35.18 31.92 34.63 32.51 32.26 30.59 30.24 32.66 34.33 34.31 33.46 35.06 35.82 33.01 33.54 31.31 34.83 35.09 34.87 37.25 37.74 36.87 31.90 32.60 31.07 33.65 34.29 32.18 34.21 34.40 34.53 34.76 34.88 35.07 34.08 39.07 39.99 39.13 31.83 31.30 30.29 29.53 28.94
36.02 38.86 35.13 31.80 32.10 31.21 31.04 31.50 31.70 34.14 35.31 36.72 36.40 34.91 33.88 35.51 38.00 39.04 39.01 38.38 38.43 36.05 33.79 33.50 32.27 29.71 26.82 31.58 31.62 27.97 32.05 33.32 33.92 35.61 34.79 30.75 35.95 35.64 33.85 32.53 31.99 31.26 30.74 29.60 29.00

GFSSW_sfc_wetblb_126.txt.gz
Wetbulb
59.99 59.13 58.29 57.67 56.72 56.13 55.92 56.26 56.41 56.13 56.34 56.61 56.97 58.25 57.83 57.03 55.76 54.85 50.07 54.54 58.04 60.51 59.38 55.11 56.50 57.32 55.40 54.38 54.12 53.71 51.06 48.52 48.48 48.21 49.01 50.84 50.58 53.81 55.34 53.12 54.55 54.72 54.99 57.01 58.40
58.49 57.83 57.40 56.51 55.28 55.09 55.09 55.25 55.25 55.35 56.00 56.32 56.44 58.10 57.08 56.42 53.76 50.55 57.35 58.53 59.47 58.23 55.85 55.78 54.74 56.78 54.71 52.56 54.54 52.51 50.26 48.65 49.96 50.38 49.55 50.78 50.70 52.14 51.36 51.74 52.16 53.24 56.16 56.98 57.90
57.49 56.95 56.22 55.65 55.27 54.80 54.67 54.55 54.56 55.05 55.54 56.25 56.49 57.86 56.43 55.90 49.64 50.04 59.06 59.51 60.35 58.03 56.01 55.53 56.11 55.45 53.03 53.51 51.38 50.45 48.25 49.68 49.17 50.04 51.17 50.67 50.74 52.22 50.66 48.88 51.26 51.09 52.76 54.92 55.60
57.24 56.77 56.25 55.59 55.33 54.74 54.51 54.33 54.25 54.10 54.59 55.82 56.48 57.02 55.87 54.03 40.58 54.55 58.96 58.99 59.31 57.31 55.74 54.89 54.86 52.47 50.35 48.79 50.50 47.27 48.72 48.77 49.71 50.71 50.29 49.64 51.49 50.14 50.30 50.38 52.52 53.04 53.51 54.02 54.09
56.07 55.82 55.76 55.65 55.39 54.66 54.39 54.34 53.82 53.46 53.89 55.16 56.50 55.09 53.69 47.59 46.55 56.95 56.46 58.26 57.33 56.56 54.99 53.83 52.08 50.59 46.80 47.73 48.69 47.18 48.31 49.60 50.68 50.65 50.79 50.99 49.07 48.65 48.89 51.52 52.57 52.75 52.97 53.00 53.61
55.29 54.61 54.24 54.63 55.26 54.65 54.14 54.32 53.59 53.12 53.74 54.82 55.80 53.87 51.17 42.71 53.89 56.57 55.51 55.22 55.67 55.69 53.93 54.03 52.46 52.42 49.06 48.61 48.30 48.87 48.43 48.99 49.69 49.27 49.31 47.17 47.11 47.66 49.13 51.42 51.66 52.08 52.15 52.96 53.38
54.92 54.31 53.70 54.59 54.65 54.08 54.08 54.30 53.10 53.35 54.17 54.29 54.78 53.45 48.40 46.00 54.49 56.05 54.65 54.38 54.72 54.54 52.30 53.54 54.04 51.13 51.36 47.71 49.88 48.25 45.24 47.25 47.24 47.37 46.71 48.28 44.89 46.00 50.06 50.98 50.22 50.77 51.52 52.16 52.55
54.32 54.14 54.16 53.99 53.56 53.44 53.60 54.09 54.05 53.84 54.02 54.98 53.29 52.58 45.17 53.52 56.05 53.49 55.07 53.81 54.63 54.58 54.95 55.32 55.39 52.31 50.61 50.21 47.61 45.17 44.93 41.72 45.91 46.49 46.75 46.47 41.14 46.95 50.14 49.90 49.36 50.30 50.72 51.02 50.24
54.51 54.22 53.97 53.19 52.84 53.17 53.44 53.87 54.15 54.52 54.74 53.89 52.08 49.46 44.38 52.69 49.62 52.93 54.29 50.14 52.30 52.96 54.65 55.46 54.31 50.22 49.01 45.56 43.60 44.23 40.02 40.49 42.10 45.97 45.45 44.33 41.88 46.45 49.67 49.33 48.65 50.12 50.98 50.10 48.92
54.24 54.07 53.07 52.86 52.80 52.75 53.06 53.77 54.20 53.64 53.21 53.48 52.05 45.15 47.73 44.81 50.43 53.31 54.72 53.70 50.95 50.32 50.45 50.81 50.12 46.72 46.76 44.39 38.44 39.73 39.62 41.12 40.52 44.51 44.94 43.88 43.76 46.33 48.80 48.43 48.55 49.65 49.69 48.88 47.58
53.91 53.40 52.71 52.84 52.51 52.38 53.17 52.28 47.68 46.80 48.08 45.03 45.57 43.88 45.81 50.91 52.54 52.15 53.80 52.68 51.32 48.97 43.87 48.19 44.17 42.20 44.56 45.69 44.46 41.71 40.21 39.93 42.78 45.17 42.92 42.75 43.76 45.97 47.41 48.30 47.65 48.27 47.71 46.51 45.70
53.52 52.71 53.03 52.55 52.62 52.75 52.85 47.68 46.45 49.87 42.21 47.60 46.55 46.49 48.63 49.57 46.43 50.38 54.20 48.38 46.83 42.79 45.90 43.70 40.72 45.36 45.38 44.68 43.05 42.05 40.29 40.63 42.78 44.08 43.09 43.05 42.99 45.08 46.68 44.99 45.28 45.24 44.67 43.81 44.31
52.80 52.76 52.52 52.19 52.01 52.10 49.76 48.45 54.25 52.99 42.77 42.98 46.39 45.16 46.05 47.72 43.86 47.39 51.47 49.22 45.71 42.85 43.41 41.12 43.07 45.06 44.35 42.63 40.99 41.44 40.09 40.15 39.26 42.74 44.53 42.17 41.51 42.83 45.02 44.39 43.92 43.52 44.09 43.64 42.77
51.97 52.27 51.86 51.32 48.32 50.45 47.81 51.86 54.79 53.84 37.04 38.51 40.90 45.02 46.46 46.71 41.82 48.59 52.46 48.82 45.60 41.57 43.19 42.61 45.33 42.96 42.93 41.45 42.52 38.27 42.61 41.05 39.81 38.76 36.59 42.01 34.04 41.58 43.77 42.87 43.20 43.24 42.38 43.33 43.26
51.53 51.71 51.33 51.58 48.72 46.43 48.85 52.73 53.95 50.14 26.31 39.43 40.94 50.40 47.81 42.44 44.99 44.82 51.27 48.87 42.74 42.94 43.40 41.12 42.34 41.80 40.77 41.45 43.47 39.17 42.77 40.97 40.36 39.42 38.65 38.90 35.64 40.84 43.49 41.42 42.42 43.20 41.46 42.03 42.48
51.43 51.56 50.94 49.90 51.26 51.24 53.02 53.35 50.53 33.62 24.92 36.96 42.72 41.97 41.14 42.59 44.61 45.82 44.25 49.06 47.39 43.59 43.42 42.40 45.35 44.04 43.09 43.42 44.36 44.38 41.57 40.99 40.73 39.00 31.84 37.57 36.69 39.42 39.86 41.97 42.80 42.90 42.72 42.24 40.75
51.36 51.46 49.80 50.00 44.09 53.09 54.19 49.40 33.01 27.15 36.62 36.43 38.71 41.79 41.64 39.17 41.82 42.31 40.05 39.23 38.81 35.15 36.14 40.46 40.91 43.79 45.25 41.36 43.39 43.12 39.44 34.12 31.45 31.63 30.89 37.23 35.64 38.98 42.67 42.87 43.62 42.78 42.73 41.48 41.26
51.06 50.58 49.72 49.39 51.11 51.95 49.70 40.28 25.42 33.03 34.15 39.82 41.28 41.73 38.55 40.60 41.43 40.78 39.60 37.26 41.43 40.31 37.99 35.22 33.11 41.09 44.11 42.00 39.90 40.38 39.86 33.75 25.06 28.53 32.57 36.01 32.15 39.40 43.20 43.86 43.74 44.04 43.51 41.91 39.16
50.65 50.22 48.06 50.10 50.65 51.48 41.85 30.68 30.33 34.20 36.05 36.25 41.05 37.60 37.62 40.33 40.23 40.56 39.78 39.20 41.20 41.68 35.81 35.08 34.61 42.93 43.32 44.13 43.46 39.05 36.15 41.99 34.99 35.65 31.19 34.97 39.26 39.30 41.07 39.43 41.50 41.83 41.27 38.98 38.44
46.12 44.64 45.19 49.98 50.19 45.59 36.38 30.78 34.59 38.17 39.28 38.47 34.60 37.58 34.92 38.02 38.18 39.50 38.91 42.45 40.08 43.49 45.06 39.59 33.50 41.21 42.16 44.10 44.18 41.64 43.97 33.77 35.94 26.20 25.69 33.23 35.16 36.94 36.22 36.42 38.81 40.45 39.27 38.26 38.55
43.70 38.22 45.62 50.69 47.94 38.05 30.09 32.42 35.97 40.66 40.94 37.52 35.23 34.17 35.46 35.81 38.71 38.03 38.18 41.22 43.28 42.81 44.44 42.22 38.85 37.61 41.10 39.59 38.65 38.84 38.13 38.80 38.29 35.97 28.91 28.08 33.81 43.01 42.36 41.97 39.73 41.23 40.65 38.46 38.69
40.94 33.67 47.22 49.50 34.28 34.88 32.07 35.91 38.94 37.82 41.49 38.53 39.17 37.74 36.80 37.79 36.44 37.21 37.07 39.47 44.03 44.28 39.41 42.76 39.90 34.43 37.25 43.23 44.88 43.48 40.13 39.96 32.91 31.33 34.75 33.06 32.98 43.97 43.61 45.02 44.13 42.87 40.68 38.93 40.11
36.14 38.11 45.90 46.39 30.04 31.31 35.13 35.05 38.14 37.08 37.40 37.49 36.74 38.67 39.67 36.91 33.65 37.53 38.75 42.22 43.68 42.51 41.36 42.59 38.13 32.21 33.99 38.35 42.06 39.34 41.13 41.20 40.15 38.07 32.28 28.63 33.50 42.52 43.11 44.26 44.34 42.16 38.73 38.46 37.80
37.52 32.07 35.68 39.06 40.17 35.09 32.26 32.62 32.77 38.45 37.56 38.50 37.64 39.57 37.57 35.43 38.12 35.31 36.77 40.77 42.66 43.01 43.13 43.15 38.32 34.58 30.77 33.23 37.92 34.93 37.34 39.44 37.96 33.08 33.33 34.33 36.11 40.92 41.84 41.77 41.21 39.94 39.13 37.25 36.21
36.34 33.32 36.47 29.51 32.89 35.60 36.07 34.35 32.10 32.02 37.26 38.69 36.15 36.53 35.86 32.21 33.42 33.74 37.07 38.42 40.79 42.14 41.21 40.50 33.20 35.18 36.59 37.83 37.81 36.93 36.51 37.55 36.15 36.90 32.28 35.70 36.00 40.14 42.66 43.19 42.93 41.75 39.67 36.22 35.83
32.43 34.24 37.02 36.07 35.98 34.31 34.88 33.24 32.49 33.73 35.43 34.04 33.79 36.05 36.17 32.76 34.49 32.48 35.75 36.45 36.25 40.05 39.57 40.87 32.64 34.85 32.44 36.16 36.27 34.04 37.00 37.63 37.59 37.81 37.47 37.45 37.10 43.34 45.10 45.68 42.96 40.85 37.50 35.33 34.85
36.50 41.35 39.16 35.48 35.11 33.45 33.78 34.55 34.71 36.87 37.27 38.26 37.67 36.04 34.96 37.09 40.13 40.73 41.36 40.92 40.23 38.24 37.23 36.54 34.52 31.89 27.92 34.11 33.76 29.23 35.04 36.47 37.80 39.61 38.79 34.58 39.90 43.85 42.81 42.56 42.00 40.61 38.00 36.04 34.66

GFSSW_sfc_wetblb_129.txt.gz
Wetbulb
62.26 62.14 60.83 59.16 57.90 57.01 56.63 56.31 56.22 55.77 55.80 56.23 56.76 56.88 58.44 57.83 55.75 56.52 52.44 55.45 58.04 60.38 57.91 57.52 55.99 57.20 57.42 55.59 56.71 56.91 51.41 49.53 49.84 48.93 51.82 53.61 52.98 56.06 57.09 55.50 55.95 56.70 56.44 58.04 59.50
61.15 60.19 59.10 58.26 56.99 55.69 55.38 55.29 55.31 55.22 55.83 56.18 56.60 56.86 58.21 56.90 55.10 52.89 57.45 58.96 59.69 60.06 56.61 55.05 54.21 56.61 55.38 54.77 55.40 53.18 50.79 50.99 53.12 52.69 51.34 52.67 52.85 53.39 52.99 53.28 53.55 55.10 57.54 57.79 58.22
59.72 58.97 57.92 56.95 55.75 55.08 54.79 54.66 54.66 55.19 55.35 55.87 56.42 57.25 57.67 55.97 52.10 52.25 59.01 58.54 60.57 59.50 57.99 57.29 57.99 57.38 54.86 54.78 54.22 53.17 50.15 52.30 51.84 52.29 52.94 51.82 51.65 53.27 51.50 49.82 52.20 51.89 53.97 55.39 55.87
58.57 57.80 56.94 56.27 55.55 55.31 54.72 54.44 54.44 54.43 54.56 55.00 56.06 57.39 56.68 55.57 44.11 57.17 57.38 58.36 60.45 59.74 58.05 57.15 56.55 53.79 51.81 51.24 53.33 49.23 51.21 50.85 50.59 52.21 51.49 50.42 52.52 51.20 51.27 51.38 53.18 53.51 54.11 54.24 54.39
57.35 57.05 56.61 56.28 55.90 55.28 54.42 54.33 54.51 54.13 53.97 54.93 55.87 56.79 55.01 50.10 50.50 58.02 56.54 58.27 59.74 58.75 56.81 54.94 53.15 52.42 49.90 49.79 50.26 48.85 49.14 50.85 51.74 51.87 51.62 51.91 50.25 50.37 50.43 52.27 53.44 53.34 53.39 53.56 55.06
56.16 55.61 54.95 54.90 55.37 55.32 54.44 54.36 54.38 53.64 53.74 54.59 55.69 55.79 53.33 45.86 54.94 57.01 56.53 56.75 57.87 57.34 55.54 54.74 53.06 53.80 50.75 49.73 49.17 51.93 51.16 51.17 51.77 50.96 50.71 49.00 49.31 48.97 50.20 52.47 52.19 52.95 52.68 54.64 54.96
55.32 54.82 53.99 53.65 54.76 54.55 53.87 54.13 54.57 53.91 53.95 54.37 54.95 55.46 50.27 48.74 55.33 56.80 55.85 54.98 55.93 56.06 54.41 55.23 55.49 52.46 51.50 49.63 52.23 51.02 47.47 49.02 49.70 50.04 48.73 49.81 46.74 47.02 51.71 52.77 51.08 51.76 52.54 54.07 53.65
54.63 54.44 53.60 54.05 53.73 53.28 53.40 53.77 54.32 54.31 54.21 54.40 55.45 54.36 47.68 54.40 56.90 54.98 56.24 54.58 56.17 55.77 55.15 55.66 55.67 52.84 51.61 52.58 49.49 47.09 48.15 44.56 48.77 48.86 49.18 47.62 43.65 49.73 51.90 51.33 50.33 51.33 52.17 53.49 52.17
54.40 54.53 53.97 53.77 52.82 52.80 53.11 54.04 54.40 54.70 54.55 55.31 53.60 52.63 46.70 53.57 50.79 53.41 54.91 52.40 54.00 54.58 56.06 56.09 54.99 51.54 51.18 47.18 45.38 47.08 42.96 44.61 45.55 48.90 47.25 46.67 44.42 48.79 50.78 49.90 49.69 51.20 52.76 52.18 51.25
54.14 54.30 54.18 53.05 52.88 52.62 53.11 53.77 54.23 53.85 54.42 55.06 53.50 47.04 49.80 46.56 51.33 53.59 55.50 53.46 51.77 51.41 51.38 51.80 51.04 48.15 47.86 45.99 40.58 42.95 43.37 44.31 43.65 46.98 46.72 45.66 45.63 48.26 49.67 50.04 49.97 51.92 52.20 51.19 49.87
54.47 54.14 53.65 52.82 52.85 52.62 52.47 53.09 48.44 49.10 50.42 46.56 48.34 46.87 47.63 51.54 54.06 53.56 54.97 52.10 52.44 49.59 45.81 48.83 45.50 43.59 45.92 47.52 47.10 45.36 43.79 42.67 45.24 47.08 45.12 45.33 45.80 47.33 49.45 49.90 50.60 51.33 51.27 50.02 49.11
53.96 53.81 53.03 53.11 52.72 52.79 52.23 48.93 48.89 51.61 44.38 50.29 49.02 48.87 50.69 52.37 48.07 51.96 55.69 49.93 48.41 44.25 47.09 46.00 42.87 47.22 48.11 47.21 46.02 45.12 42.79 42.79 45.63 46.72 45.11 45.09 44.60 47.55 49.20 49.77 50.00 49.72 49.23 48.99 49.63
53.48 53.07 52.95 52.52 52.61 51.82 49.62 49.18 54.14 53.85 43.30 44.49 47.41 47.23 47.45 49.31 46.16 49.09 52.94 50.76 47.05 44.98 45.35 44.31 45.50 47.88 46.27 45.56 43.72 43.88 42.41 42.97 42.70 45.09 46.47 44.55 42.91 45.80 48.64 49.35 48.90 48.81 49.10 48.63 47.99
52.93 52.35 52.20 51.84 48.04 50.23 47.99 52.07 53.86 54.43 37.03 40.42 42.50 46.67 47.85 48.41 44.18 49.00 53.71 50.63 47.87 44.28 45.02 45.24 47.75 44.79 44.39 43.65 44.82 41.04 45.62 43.91 42.18 40.82 37.83 45.13 37.03 43.47 47.28 46.28 47.23 48.19 48.16 48.05 48.03
52.57 51.97 51.60 51.03 49.94 45.98 49.07 52.52 54.14 50.63 25.01 43.56 43.65 51.11 49.07 44.46 45.43 45.55 51.69 50.63 44.50 44.61 44.77 42.74 44.15 43.59 42.86 43.53 45.46 42.57 44.66 43.00 42.56 41.10 41.05 41.24 38.82 42.58 46.64 44.94 46.64 48.37 48.29 47.39 46.94
51.95 51.74 51.34 49.64 51.39 50.98 53.27 52.58 50.89 35.21 24.69 40.12 44.72 42.48 43.57 44.53 44.03 47.49 45.76 50.25 49.24 45.21 46.05 45.03 47.91 46.84 45.89 46.26 46.13 45.76 42.96 42.52 43.14 41.47 34.34 39.73 39.41 40.01 43.86 45.26 47.07 48.43 48.26 47.44 45.03
51.72 51.45 50.30 49.96 45.96 54.08 54.54 48.96 33.20 26.31 41.26 39.09 40.55 43.34 42.88 41.38 41.95 44.10 41.43 41.72 40.08 36.04 38.36 42.15 43.26 45.95 46.72 43.21 45.29 44.21 41.15 34.74 33.63 34.31 33.56 41.25 38.38 40.98 45.82 46.59 47.03 47.60 47.54 47.44 45.77
51.37 50.90 49.81 49.65 51.83 54.16 51.71 39.72 24.27 33.74 37.73 41.87 42.40 43.23 40.33 42.76 42.37 42.71 41.19 38.59 42.47 41.63 39.45 36.59 34.92 42.60 45.70 43.69 41.77 41.83 41.48 35.27 28.32 31.24 35.01 40.77 35.09 41.18 47.40 48.21 48.26 48.01 48.56 46.90 43.69
50.92 49.19 48.27 50.40 52.24 52.74 43.70 29.06 29.40 35.43 40.62 38.46 41.13 39.43 39.79 42.69 42.65 41.90 41.12 39.76 41.81 43.08 38.03 37.41 38.18 45.70 45.55 45.56 44.52 41.60 38.19 43.24 36.84 37.63 33.56 37.04 40.99 44.88 46.29 45.48 45.99 46.03 46.57 44.50 42.63
47.22 45.37 45.58 51.55 52.85 46.99 37.08 31.64 35.12 39.94 40.71 39.42 34.76 39.90 36.76 40.05 38.97 40.87 40.30 43.52 42.38 44.22 46.03 41.75 36.21 42.81 43.88 45.97 45.58 43.31 44.90 35.76 37.38 27.67 27.01 34.33 36.87 39.47 40.85 42.20 44.16 44.72 44.65 42.61 42.21
45.76 36.79 43.85 51.27 50.31 40.37 31.02 33.59 37.30 42.01 41.14 38.31 36.12 36.91 37.96 38.96 40.39 39.61 40.19 42.83 44.82 44.02 45.50 43.54 39.59 38.74 42.68 40.44 39.30 40.28 39.06 40.25 39.87 37.07 29.97 29.53 35.71 45.04 44.28 45.13 43.89 45.34 45.95 42.29 41.34
40.43 31.55 46.37 48.05 35.09 36.90 34.06 37.46 39.34 39.05 41.94 40.71 40.48 39.21 36.90 38.73 39.28 39.64 39.21 41.94 45.77 45.64 40.50 43.80 40.33 34.66 38.48 43.85 44.93 43.17 41.00 40.30 34.92 32.21 36.53 35.63 36.13 46.69 46.78 47.09 47.25 46.27 46.57 44.00 42.95
33.03 35.80 46.26 44.62 29.84 32.99 36.98 37.15 38.30 37.98 39.05 38.93 37.84 40.22 40.78 37.92 34.45 38.45 39.43 44.43 44.84 44.47 41.51 43.46 38.48 32.31 33.85 38.72 43.30 40.55 41.66 42.03 41.42 40.22 34.54 31.11 35.15 46.47 46.14 45.55 47.47 47.27 47.27 43.98 42.77
33.03 31.38 36.24 38.32 39.15 35.00 33.70 34.55 33.78 40.23 38.88 39.98 39.14 40.86 38.80 37.39 40.16 36.25 37.50 41.81 43.99 44.44 43.09 43.98 39.15 35.03 30.63 34.84 38.74 36.02 39.12 40.92 39.89 34.39 35.20 35.87 37.87 42.04 43.44 44.27 46.15 46.78 46.81 43.75 42.20
33.21 32.85 36.84 29.43 32.77 36.21 37.70 36.81 34.95 34.36 38.72 39.35 36.99 37.95 37.16 33.89 35.30 34.78 37.29 38.78 41.49 42.48 41.61 40.24 34.24 36.49 38.06 39.61 37.38 36.67 36.81 38.52 37.53 38.09 33.87 37.28 36.90 42.04 43.76 44.10 45.41 47.25 45.52 42.41 40.95
32.85 34.25 36.64 36.42 37.00 35.36 36.32 35.38 34.89 36.36 36.25 35.06 34.28 36.60 37.09 33.67 35.42 33.39 36.77 36.53 36.14 40.14 39.44 40.67 33.16 35.43 33.26 37.34 37.72 35.19 37.26 38.20 37.70 38.86 38.33 38.75 38.51 45.23 45.90 46.40 45.90 46.56 44.23 41.72 41.06
35.35 39.93 39.27 36.88 35.27 34.69 35.86 36.30 36.50 37.97 38.25 39.15 38.07 36.17 35.11 37.00 39.63 40.69 41.17 40.61 39.83 38.02 37.34 36.85 35.13 33.04 29.20 35.15 34.42 29.76 35.45 36.86 37.75 39.36 38.82 35.08 40.30 44.52 43.70 43.85 45.52 46.67 44.87 42.34 40.86

GFSSW_sfc_wetblb_132.txt.gz
Wetbulb
62.28 62.31 62.58 61.98 59.48 57.88 57.14 56.59 56.53 55.85 55.73 56.09 56.64 57.10 57.70 57.75 56.33 55.03 51.93 55.99 57.70 60.30 58.39 55.04 55.00 54.31 56.06 53.55 55.57 55.61 48.80 47.91 49.91 49.70 51.36 53.98 52.55 55.63 57.21 55.25 56.13 56.93 56.53 57.17 59.14
62.47 62.66 61.92 60.19 58.54 56.87 55.64 55.61 55.42 55.27 55.69 55.72 56.43 57.31 57.60 57.39 53.60 52.26 58.24 60.77 60.45 61.08 56.25 54.74 52.92 54.66 53.26 53.41 53.90 51.19 48.28 49.56 52.38 52.60 51.79 52.61 52.71 53.53 52.55 53.96 53.91 55.42 57.33 57.55 57.97
62.18 61.35 60.26 58.97 57.12 55.87 55.36 55.02 54.60 54.92 55.24 55.00 55.86 56.93 57.19 56.26 51.24 55.02 60.16 60.33 60.40 59.64 57.79 57.09 56.48 56.08 53.70 54.70 52.99 51.95 47.91 51.41 51.89 52.01 52.88 51.65 51.79 52.73 50.82 49.32 52.14 52.46 54.10 55.47 55.69
60.87 59.88 58.94 57.52 56.49 55.90 55.25 54.66 54.56 54.81 54.71 54.51 55.65 56.82 57.42 54.69 45.32 57.40 60.16 59.98 60.78 59.70 58.37 56.51 55.39 53.46 51.83 51.66 53.37 49.54 51.69 51.33 51.30 52.21 50.76 49.60 51.65 50.67 51.42 51.36 53.39 53.73 54.36 53.90 54.73
58.57 58.10 57.51 57.19 56.64 55.92 55.30 54.61 54.50 54.69 54.18 54.42 55.44 56.81 54.05 49.57 51.10 57.85 59.92 59.20 58.79 58.87 56.01 54.74 53.05 52.75 50.29 51.15 51.77 49.71 50.03 50.70 51.52 51.10 51.33 51.46 49.82 49.96 50.38 52.40 53.34 53.43 53.08 54.22 55.15
57.37 57.04 56.77 56.32 55.90 55.83 55.32 54.44 54.34 54.50 53.80 54.50 54.94 55.28 51.97 44.86 56.29 57.33 56.36 55.42 55.79 56.40 55.17 54.63 53.10 53.81 51.34 50.40 48.81 50.66 51.58 50.72 51.72 51.32 51.48 49.22 49.13 49.78 50.40 52.56 52.00 52.44 53.12 54.59 54.16
55.72 55.16 54.32 53.67 53.99 54.91 54.53 54.11 54.20 54.55 54.10 54.16 54.66 54.34 49.15 47.32 55.84 56.07 56.21 54.06 54.77 55.03 53.56 55.92 55.19 52.98 51.67 48.21 51.90 50.69 47.78 49.40 49.47 49.75 48.69 49.91 46.08 46.51 50.70 51.74 51.43 51.69 53.28 53.41 53.09
54.60 54.21 53.51 53.26 54.01 53.92 53.62 53.81 54.05 54.43 54.58 54.66 55.06 53.52 45.70 54.96 56.04 54.52 54.98 54.41 55.19 56.12 54.86 56.19 55.52 52.61 51.15 52.31 50.49 47.47 47.14 42.88 48.30 49.34 49.03 47.36 42.31 48.82 51.58 51.23 50.09 51.15 52.45 52.87 51.82
54.36 54.14 53.52 53.72 53.35 53.01 53.21 53.64 54.36 54.49 54.85 54.86 53.39 52.20 46.54 54.85 51.48 53.61 54.42 51.80 53.48 53.97 54.35 55.03 54.09 50.40 50.29 46.47 44.53 45.80 40.98 43.18 45.42 49.34 48.37 46.91 44.57 49.13 51.52 50.91 49.63 50.12 51.52 52.34 51.18
54.30 54.03 53.93 53.59 52.78 52.90 53.14 53.76 54.93 54.20 54.43 54.75 53.49 45.86 49.36 47.59 51.30 52.47 53.98 53.06 51.39 51.72 50.64 50.83 49.68 46.35 46.34 44.89 37.76 41.30 42.11 44.17 43.86 47.01 46.75 45.01 44.46 47.90 49.74 49.45 49.54 50.36 52.43 51.63 50.32
53.89 53.77 53.93 53.28 52.67 52.44 51.20 50.25 47.32 47.27 49.03 46.95 47.24 46.56 48.02 51.06 53.91 52.11 54.37 51.09 50.56 49.12 43.64 48.06 43.48 41.22 44.06 46.32 46.55 44.92 44.16 43.19 45.54 47.68 45.84 44.63 44.66 46.86 49.53 49.13 49.57 50.54 51.52 50.78 50.15
54.16 54.01 53.85 52.94 52.97 52.34 51.10 47.20 47.82 50.11 44.19 50.43 48.89 49.19 50.97 52.33 47.66 50.09 55.05 47.52 46.40 42.90 45.31 44.22 41.05 45.82 47.58 47.49 45.91 44.86 43.35 42.93 45.42 46.60 45.90 44.82 43.99 46.98 48.33 48.59 49.89 50.74 50.59 50.07 49.79
53.96 53.91 53.77 52.90 52.66 50.67 47.49 48.98 53.32 53.02 41.65 44.88 47.66 47.62 48.69 49.18 45.91 47.91 52.08 48.59 45.73 43.40 43.44 41.45 44.91 47.70 46.14 45.39 44.06 44.43 43.16 42.96 42.38 45.33 46.29 44.34 42.26 44.44 47.34 49.29 50.71 50.58 51.14 50.08 49.34
53.54 53.29 52.58 52.11 47.00 47.89 46.07 50.83 54.07 52.84 35.38 40.40 44.04 45.99 47.65 48.22 43.54 49.22 53.18 49.74 47.54 43.40 44.24 43.50 46.67 46.01 44.91 43.53 44.62 41.15 45.84 44.42 43.08 41.80 36.94 44.20 35.47 43.40 46.04 46.84 47.91 47.92 48.28 48.39 48.35
53.12 52.95 51.87 50.53 49.23 44.67 49.01 52.35 53.16 50.32 26.25 45.24 46.20 51.15 48.92 44.82 46.03 45.67 50.06 49.78 44.44 44.34 44.90 42.31 43.61 43.68 42.80 43.17 45.47 42.66 46.36 44.07 43.50 41.13 39.93 39.78 37.20 40.52 45.24 44.37 45.81 47.18 48.04 48.75 48.44
52.96 52.62 51.82 49.61 49.05 50.99 52.56 53.09 49.40 33.09 24.79 40.63 44.86 43.05 43.06 44.17 44.11 46.33 45.13 50.41 49.32 45.01 45.80 44.01 47.30 45.99 44.63 46.03 46.00 46.43 43.75 43.16 42.47 40.09 32.92 38.16 37.67 38.27 42.08 45.45 46.45 48.22 48.69 48.18 46.31
53.01 52.60 50.90 50.25 44.37 53.76 53.40 46.83 31.86 27.75 41.54 39.66 41.09 43.32 42.32 41.43 41.37 42.71 41.71 40.90 39.45 36.60 37.38 41.42 42.56 46.08 47.21 43.44 45.85 44.28 40.12 32.86 31.16 31.48 30.72 40.95 38.82 40.55 45.58 48.37 48.88 47.89 47.84 47.58 45.93
51.60 51.57 50.55 49.65 51.28 52.47 48.24 36.91 25.38 35.29 36.58 43.67 43.92 43.46 39.51 42.61 41.82 41.22 41.19 37.88 42.48 41.37 38.61 35.27 34.34 42.39 45.83 43.40 41.79 41.58 40.36 34.26 27.05 29.43 33.78 41.22 35.83 39.99 47.13 48.10 50.00 49.56 48.75 47.22 45.36
48.48 49.84 47.74 48.44 51.14 51.10 41.66 28.96 28.27 34.98 39.98 38.12 41.24 39.26 39.62 41.86 41.87 39.98 40.08 39.47 40.99 42.13 36.57 36.27 36.04 44.90 45.70 45.46 45.05 41.05 36.99 42.98 36.62 37.58 32.58 35.78 40.32 44.93 46.80 46.24 46.83 47.33 47.40 44.98 43.83
44.92 41.96 45.51 49.34 50.44 46.63 36.36 30.54 33.29 39.28 41.11 40.27 34.83 39.80 37.16 39.32 39.12 39.26 39.75 43.19 41.52 43.86 44.70 40.18 35.10 42.87 44.46 45.58 45.28 42.69 44.85 36.08 37.19 27.26 25.67 33.05 35.42 36.28 41.39 42.33 44.77 45.17 45.11 44.41 43.74
43.30 34.42 43.80 50.06 49.19 39.54 30.57 31.82 35.55 40.89 41.85 37.49 35.88 36.35 38.23 38.69 40.53 38.93 40.12 43.11 45.04 43.37 44.31 42.21 40.16 39.48 43.30 40.24 39.07 39.40 38.25 40.03 39.73 36.09 28.50 27.39 34.30 46.19 43.96 44.81 44.00 45.56 46.41 44.67 43.30
38.82 30.57 45.76 48.54 34.87 33.92 32.42 35.66 39.11 38.54 41.25 38.82 39.84 38.96 37.39 39.61 38.18 39.28 38.95 42.67 46.50 45.73 40.35 43.24 40.46 35.18 38.80 44.03 44.45 42.59 39.88 39.98 33.15 32.02 35.19 33.70 34.09 47.18 46.78 46.60 46.42 46.09 47.04 46.01 44.03
34.89 36.00 45.06 44.53 30.06 31.10 35.51 35.90 38.30 37.97 38.42 36.84 36.69 39.34 40.94 38.01 35.35 39.33 40.64 43.84 44.89 44.41 42.24 43.43 38.73 32.32 34.14 39.78 42.72 39.49 40.68 41.45 40.29 38.79 32.68 29.78 33.08 46.28 46.73 46.73 47.48 47.12 47.36 45.33 43.66
34.35 30.94 35.22 38.94 37.65 34.50 33.27 33.55 34.11 40.67 39.40 39.46 38.15 40.02 37.75 36.02 39.75 36.41 37.10 41.18 44.07 42.36 43.80 45.15 39.45 35.48 30.88 34.70 38.74 36.60 38.76 40.74 39.12 32.82 33.43 34.39 36.78 42.19 44.38 44.10 45.09 45.47 46.57 45.22 43.61
33.80 32.31 36.41 30.42 30.95 34.41 36.05 35.26 33.50 33.59 39.64 40.18 36.23 37.72 36.50 32.66 34.49 35.63 37.57 37.15 41.02 42.16 42.31 40.92 34.46 37.09 37.14 37.77 37.77 36.83 37.30 38.02 36.29 37.08 33.00 36.18 36.86 41.27 44.10 44.63 44.77 45.98 46.29 45.02 43.17
32.34 33.77 36.29 34.08 33.65 34.23 34.39 34.71 33.64 35.99 37.15 35.11 34.57 37.36 38.42 34.58 34.60 32.81 35.22 34.97 35.40 39.92 38.41 40.63 32.26 34.81 32.26 36.21 36.59 34.55 36.20 37.38 36.88 36.95 36.82 37.92 37.94 44.93 46.10 46.56 44.66 44.74 45.89 43.86 43.22
38.14 39.32 36.01 34.29 33.03 32.38 33.08 33.76 34.88 38.16 39.44 39.97 38.64 37.18 35.55 37.30 39.57 39.69 39.13 38.83 38.98 37.11 36.59 36.11 33.87 31.46 27.16 33.57 33.64 28.96 34.06 35.87 37.68 39.37 38.40 33.86 39.37 43.56 42.73 43.72 44.30 44.92 46.11 44.09 43.15

GFSSW_sfc_wetblb_135.txt.gz
Wetbulb
61.77 62.03 62.20 62.43 61.16 58.85 57.65 56.71 56.24 56.19 56.42 56.75 56.72 56.78 57.36 57.26 56.16 52.61 49.13 53.37 54.96 59.91 59.51 53.70 51.89 50.46 49.57 47.11 48.03 47.81 40.58 38.30 42.96 44.56 46.28 51.60 49.76 52.11 53.69 53.06 54.03 54.18 53.36 55.00 57.04
62.03 62.28 62.51 62.38 59.83 57.99 56.96 56.28 55.66 55.78 56.17 56.24 56.18 56.53 56.96 56.94 52.59 49.53 57.33 60.69 60.81 60.38 53.25 51.36 51.30 50.95 45.29 46.89 47.08 44.42 39.18 42.16 47.29 47.10 47.33 48.70 50.31 50.33 49.85 52.38 52.38 52.26 54.92 55.87 56.43
62.10 62.27 62.19 60.96 59.08 57.22 56.51 55.85 55.40 55.65 55.82 55.85 55.94 56.54 56.47 55.99 49.46 52.36 59.68 60.01 60.97 59.78 54.71 54.48 54.31 51.61 48.13 47.30 46.61 44.53 41.27 46.15 47.85 49.39 47.68 46.27 48.08 49.66 47.51 47.08 50.24 50.14 51.52 53.75 54.28
61.35 61.48 60.94 59.96 58.34 57.05 56.30 55.49 55.31 55.52 55.67 55.25 55.49 56.45 56.32 53.23 43.10 52.45 59.91 60.07 60.09 57.54 56.02 54.22 51.75 47.43 46.83 45.33 49.11 43.43 47.59 47.99 47.94 48.64 47.25 45.89 46.84 46.58 47.97 47.92 51.07 50.75 51.55 53.28 53.20
60.39 60.27 59.58 58.76 57.83 57.05 56.31 55.30 54.94 55.24 55.26 54.67 55.27 56.46 52.45 46.68 48.37 56.44 60.45 59.31 56.91 56.30 54.13 52.14 49.69 48.26 45.67 47.41 47.13 45.49 46.94 48.39 47.93 48.75 48.04 48.94 45.69 45.83 44.98 48.86 50.39 51.54 53.40 52.11 51.99
59.60 58.32 57.92 57.73 56.81 56.32 56.09 55.07 54.72 54.92 55.04 54.85 55.26 55.85 50.11 41.47 54.27 57.26 55.70 54.46 55.11 51.80 51.29 51.90 49.84 49.95 47.79 46.97 44.32 46.38 47.20 47.50 46.83 47.18 47.87 46.60 45.81 44.90 47.16 48.05 49.12 51.83 50.88 50.93 50.61
55.66 55.31 55.03 54.45 54.60 55.09 55.52 54.45 54.24 54.63 54.95 54.94 55.00 52.92 47.58 43.66 52.56 52.17 53.76 51.51 51.55 51.40 49.63 52.80 52.32 48.59 48.06 45.59 49.69 48.51 42.92 45.38 46.56 46.10 45.44 46.23 41.85 43.58 46.86 48.01 48.12 50.31 50.01 49.26 49.79
54.79 54.35 53.93 53.52 54.30 54.55 54.28 53.96 53.91 54.44 55.00 55.09 55.49 50.92 43.80 53.18 51.49 51.95 51.79 51.57 53.36 52.43 52.75 52.56 52.67 49.11 46.92 47.95 46.33 43.94 42.82 37.04 43.90 45.80 45.48 44.29 38.30 44.07 46.80 47.37 46.71 48.24 49.26 48.33 48.49
54.71 54.13 53.47 53.16 53.67 53.05 53.19 53.52 53.91 54.61 55.12 55.17 49.93 48.81 44.56 55.38 50.11 52.16 51.05 49.82 51.51 52.15 51.85 53.36 51.36 46.45 46.18 40.08 37.49 40.37 33.57 37.26 40.69 45.68 44.27 41.91 40.42 44.12 47.84 48.76 46.66 47.94 46.86 47.05 46.66
54.39 54.11 53.76 53.27 53.24 52.53 52.40 53.15 53.94 53.67 53.91 53.31 51.55 42.34 46.39 46.29 50.80 51.79 50.75 50.46 49.00 49.69 48.49 47.87 45.60 40.23 39.79 37.80 31.10 35.47 36.85 35.23 36.89 39.93 42.86 40.49 41.02 44.90 46.95 47.41 47.17 46.62 47.09 46.15 45.34
54.35 54.17 53.83 53.21 53.10 52.24 50.52 49.01 46.52 45.67 47.48 44.67 45.79 44.00 47.61 50.58 52.71 50.43 51.39 48.41 47.61 46.31 40.64 45.05 38.14 34.97 39.84 41.84 42.18 41.57 39.79 37.76 40.67 44.01 41.72 41.16 39.92 42.82 45.70 44.68 43.85 46.09 46.13 44.80 45.03
54.33 53.99 53.80 53.54 52.75 52.28 50.37 46.46 47.08 48.19 40.70 48.05 46.37 47.09 49.71 50.27 46.39 49.00 51.24 45.04 43.60 38.88 42.96 39.75 36.69 42.55 44.79 43.89 42.37 41.74 40.15 38.95 42.10 44.39 41.65 39.76 39.13 42.21 44.38 44.07 45.67 45.60 45.56 44.89 44.96
54.21 54.01 53.74 53.04 52.54 49.85 46.70 46.95 50.98 50.59 38.69 42.54 46.16 47.10 47.83 49.41 44.50 45.43 48.37 46.83 42.03 39.47 40.38 37.26 40.39 45.47 43.87 42.39 41.28 41.38 40.03 40.16 40.10 42.38 39.47 39.21 36.29 39.58 44.15 44.92 46.98 47.46 46.83 46.58 45.10
53.79 53.62 52.90 51.66 46.80 46.38 44.46 48.54 49.46 50.81 32.61 37.57 42.99 45.14 47.58 49.07 42.92 48.55 49.10 47.83 43.21 39.31 41.09 39.91 43.93 42.13 42.60 40.89 42.47 37.50 43.83 43.38 41.78 38.16 32.91 38.59 29.54 37.64 40.90 43.05 45.01 45.41 44.51 44.16 44.52
53.35 53.21 51.85 50.31 47.19 43.74 46.95 49.31 50.47 46.76 24.30 42.68 44.61 49.64 47.39 43.63 44.55 44.08 49.53 47.70 41.74 42.25 42.37 39.44 40.81 40.12 39.38 41.90 44.14 40.53 45.56 42.32 40.88 36.45 34.87 35.96 31.52 34.67 41.25 40.38 42.20 42.95 43.92 43.84 43.68
53.36 53.27 51.85 49.00 46.97 48.15 49.91 49.36 47.16 32.38 23.89 38.52 43.67 41.79 41.53 42.27 43.10 44.80 43.91 46.67 48.33 43.86 43.84 41.66 46.21 42.77 42.42 44.62 44.67 45.56 42.32 40.56 38.88 35.60 25.77 34.66 33.20 32.61 36.54 41.07 42.82 44.42 44.76 43.85 41.97
51.80 53.14 51.28 49.46 43.28 48.66 50.30 45.00 28.76 25.92 39.84 37.36 39.93 41.82 40.74 39.57 39.92 41.65 39.74 37.63 37.86 34.40 34.76 39.89 40.59 44.82 44.35 40.27 42.91 41.85 36.79 26.06 24.66 23.95 25.05 37.08 34.46 36.29 40.58 44.90 45.49 44.30 44.07 42.63 41.68
48.30 51.84 51.68 49.75 49.15 48.70 46.66 35.36 23.57 32.08 34.70 42.24 42.10 42.17 37.55 40.88 39.82 40.06 38.65 34.87 40.02 38.90 35.58 32.22 30.02 39.78 43.64 41.32 39.25 39.42 38.31 28.97 23.61 23.26 27.47 37.54 30.06 36.43 44.41 46.61 47.39 46.99 43.99 42.86 40.84
47.84 47.07 48.73 49.39 49.91 48.73 39.07 27.09 27.47 32.40 38.35 37.31 38.81 35.46 37.39 39.84 40.89 38.95 37.06 36.23 37.71 40.40 34.51 33.09 33.01 42.05 43.36 43.84 43.10 38.62 34.84 40.08 33.71 33.44 24.94 30.48 35.94 41.85 44.10 43.74 44.73 43.58 42.48 40.66 40.76
40.56 41.99 40.00 50.00 49.56 45.16 35.59 30.59 31.92 37.38 38.32 37.52 31.19 36.52 33.24 36.96 37.13 37.73 36.74 39.77 39.61 40.74 42.63 38.78 32.15 40.47 42.52 44.14 43.55 40.60 42.25 33.25 32.43 25.21 23.44 29.32 31.13 30.20 37.51 39.28 42.75 41.44 40.15 39.93 40.62
38.70 33.44 39.63 49.26 48.01 38.64 29.65 31.12 34.12 38.66 39.25 36.55 33.96 33.13 34.15 34.20 37.42 37.43 36.97 40.49 42.42 42.04 41.82 39.80 36.39 35.26 41.31 38.76 37.29 37.66 36.49 37.69 36.64 32.58 24.72 22.79 25.28 40.71 39.63 41.74 41.70 42.10 41.66 40.00 39.98
38.08 20.69 41.00 48.08 35.41 31.97 30.99 34.99 37.96 36.44 39.00 38.08 37.78 36.77 34.72 35.81 34.93 35.12 37.43 40.25 44.92 43.23 38.33 40.24 36.85 31.19 34.78 42.00 43.02 40.56 38.33 37.88 30.23 28.43 28.53 26.35 26.71 44.38 43.49 44.13 44.07 43.12 42.88 40.89 41.07
33.40 29.87 40.57 40.95 25.48 30.37 34.22 33.71 36.19 36.21 35.40 36.33 35.51 37.87 38.59 34.83 31.87 36.11 39.11 43.16 43.21 41.45 36.58 38.49 34.05 28.27 32.09 37.61 40.07 37.89 38.92 39.10 38.72 34.36 29.80 23.80 27.80 44.82 45.86 44.92 44.73 43.47 43.38 41.52 41.00
33.93 24.89 33.26 37.42 32.67 31.66 30.81 32.37 32.08 37.37 35.75 37.30 36.67 38.38 36.16 33.85 36.57 34.81 36.16 40.33 41.72 40.83 42.09 41.11 37.48 33.09 27.92 31.26 36.79 34.68 37.64 38.78 37.23 30.05 30.11 30.36 32.51 38.51 41.67 42.71 43.26 42.96 42.64 41.59 41.63
32.84 25.82 29.34 18.86 29.42 30.64 32.14 32.61 31.94 31.58 36.95 37.55 36.17 35.75 34.52 31.77 32.38 33.23 35.90 35.94 38.65 39.79 39.26 37.73 31.88 32.71 35.46 35.70 36.69 35.92 36.73 37.60 36.23 36.31 31.36 34.06 35.03 38.73 40.95 43.10 43.98 44.41 43.95 42.78 41.10
29.30 28.95 33.59 28.65 30.84 30.12 31.67 30.50 31.03 33.66 34.98 33.43 34.08 36.01 36.35 32.96 34.22 32.33 34.42 34.13 33.86 38.16 36.10 37.52 30.72 31.46 29.83 34.30 34.41 31.84 35.35 36.40 36.66 37.14 36.39 35.97 34.64 41.90 43.82 44.97 44.30 44.81 44.81 43.72 40.97
33.28 35.14 32.68 28.31 30.34 29.13 28.15 30.49 34.47 35.81 36.84 38.23 37.26 35.79 34.90 35.46 37.85 38.55 38.76 38.71 37.66 35.67 33.91 34.38 30.42 29.15 25.24 31.63 31.01 26.49 31.80 33.49 35.90 37.77 37.09 32.44 36.92 41.10 40.62 41.88 42.65 44.20 44.68 42.12 41.77

GFSSW_sfc_wetblb_138.txt.gz
Wetbulb
61.39 61.45 61.53 61.61 61.87 59.97 57.90 56.60 55.96 55.99 56.41 56.71 56.51 56.35 56.93 57.03 56.03 52.19 47.95 53.22 54.79 59.72 59.94 52.93 50.73 50.89 46.90 44.09 45.44 44.99 38.77 35.58 39.43 41.65 44.59 49.60 48.95 50.60 52.07 51.50 52.11 52.89 52.63 53.60 56.18
61.47 61.87 61.96 61.81 61.52 59.11 57.00 55.89 55.51 55.73 56.22 56.27 56.07 56.51 56.75 56.27 53.10 49.52 55.94 59.77 59.23 60.02 51.78 50.82 50.63 51.25 44.57 43.23 44.90 41.74 37.23 39.98 44.95 44.54 44.49 46.50 48.87 48.37 48.82 49.96 50.03 50.71 53.64 55.12 55.37
61.53 61.58 61.70 61.76 60.96 58.40 56.33 55.47 55.15 55.69 56.00 55.81 56.04 56.51 56.10 55.10 48.82 49.70 59.56 59.77 59.70 58.67 53.85 53.42 53.09 50.50 45.57 45.22 43.56 40.76 39.71 43.39 46.25 47.33 44.84 44.47 46.34 48.13 46.25 46.39 50.10 49.05 50.82 52.65 52.77
60.95 60.97 61.25 61.42 60.40 57.82 56.04 55.06 55.07 55.52 55.61 55.45 55.59 56.39 55.94 52.31 43.25 51.38 60.14 59.86 60.35 57.18 55.18 53.28 50.48 46.41 44.60 43.49 45.62 42.10 45.86 45.98 46.81 47.20 46.01 44.93 45.21 45.43 45.26 47.34 50.95 51.54 52.30 51.42 50.76
59.90 60.14 60.68 60.91 59.32 57.20 56.01 55.01 54.89 54.89 55.12 54.87 55.08 56.18 51.36 44.17 46.04 54.31 60.98 59.64 56.64 55.01 52.39 51.15 47.72 46.21 43.53 45.64 45.90 44.08 45.58 46.96 46.86 47.58 46.28 47.82 44.78 44.55 43.18 47.43 51.62 52.30 51.47 49.90 49.51
59.14 59.28 59.42 58.79 57.62 56.93 56.35 55.39 54.57 54.43 54.76 54.97 55.04 55.67 48.50 39.99 52.28 55.32 56.42 53.49 54.06 50.99 49.64 49.37 48.52 48.72 46.02 45.57 43.30 45.65 45.51 44.59 45.31 45.19 46.43 45.52 44.10 44.03 45.72 47.20 49.72 49.77 48.54 48.70 48.61
55.38 54.95 54.95 54.53 54.51 55.25 55.53 54.57 54.06 53.94 54.37 54.65 54.97 52.51 47.10 42.58 49.09 49.40 50.72 49.21 50.84 49.96 47.58 49.81 50.02 47.07 47.05 44.69 46.86 47.15 42.32 44.13 43.94 44.44 44.41 45.22 40.04 42.66 45.89 47.49 47.83 47.80 47.60 47.28 47.83
55.48 54.80 54.31 53.78 53.92 54.06 53.97 53.69 53.48 53.96 54.37 54.78 55.09 50.31 41.43 52.06 49.91 49.90 49.05 49.75 52.15 51.56 50.05 51.00 50.04 47.67 45.20 46.78 44.98 42.22 41.99 37.57 43.31 44.46 44.99 43.85 38.06 43.52 45.33 46.85 45.37 45.93 46.64 46.44 46.80
55.30 54.43 53.69 53.44 53.43 53.14 52.88 53.03 53.50 54.33 55.13 55.10 49.32 47.21 42.81 54.66 49.47 51.48 50.11 48.18 49.50 50.74 50.08 52.36 48.55 44.95 44.61 39.21 36.74 38.57 34.60 37.13 39.90 44.02 42.98 41.07 39.33 43.73 44.88 46.60 45.38 45.09 44.64 45.05 44.71
55.10 54.54 53.73 53.08 52.86 52.53 52.23 52.72 53.04 53.09 52.73 53.18 50.88 41.73 45.57 46.84 50.15 50.45 48.99 49.53 47.62 47.59 46.81 45.36 43.19 38.57 37.86 36.45 32.39 35.30 34.86 34.26 35.35 38.88 41.02 38.65 39.18 42.89 44.53 46.13 45.71 43.62 43.78 44.16 44.39
54.74 54.45 53.79 52.99 52.89 52.01 50.47 49.72 45.88 45.16 45.80 44.42 44.98 42.55 46.30 49.31 51.31 48.21 49.35 46.80 45.50 44.22 38.51 41.89 36.61 34.32 39.54 40.64 39.45 38.44 36.72 35.39 36.89 42.12 39.87 39.99 40.72 40.87 44.16 43.15 43.86 43.08 43.11 43.44 43.42
54.70 54.23 53.61 53.04 52.22 51.73 49.70 46.49 46.95 46.20 40.30 47.08 46.61 46.67 48.76 49.78 44.70 47.00 49.79 43.10 41.58 37.37 40.94 38.03 35.00 41.43 43.84 42.07 40.06 39.24 37.26 36.81 39.73 43.43 40.18 37.02 37.82 40.94 42.98 43.75 44.36 43.64 42.75 42.66 43.34
54.46 54.17 53.75 53.04 52.36 49.52 46.30 46.68 50.32 47.98 38.94 41.68 45.33 45.38 46.68 48.03 43.68 44.26 46.59 44.86 40.79 37.92 38.36 36.01 39.01 43.68 42.00 39.96 38.79 38.83 37.24 37.70 37.80 40.93 38.17 36.73 34.55 38.21 42.20 42.98 44.66 45.26 44.17 43.99 43.09
53.85 53.63 52.79 51.88 46.57 46.21 43.25 47.70 47.95 47.50 33.17 36.43 40.90 43.91 46.66 47.58 43.01 49.19 47.88 46.10 42.65 37.72 39.11 37.62 42.31 40.76 39.48 38.84 40.26 35.34 41.91 41.39 40.51 37.37 30.66 37.61 29.50 35.68 39.17 40.33 43.31 44.08 43.02 43.00 43.42
53.64 53.39 51.97 50.59 45.33 42.54 45.82 47.60 47.52 45.56 23.19 41.53 42.78 49.11 47.09 43.59 44.36 43.31 49.39 45.15 40.41 40.05 39.22 36.26 39.15 39.43 37.56 38.76 42.28 38.45 43.08 40.68 40.42 35.73 32.75 34.02 29.78 32.72 38.82 37.80 40.84 42.19 43.07 43.26 42.71
53.52 53.01 51.54 49.58 46.34 46.52 48.44 48.69 46.44 32.80 22.33 38.11 43.69 40.60 40.35 43.14 42.94 43.00 42.47 45.06 45.54 41.24 41.15 39.34 43.46 41.07 40.50 42.57 42.22 44.35 41.20 38.27 35.74 33.64 26.46 32.89 33.07 34.86 33.79 40.32 41.28 42.67 42.36 42.20 41.07
51.36 53.06 51.02 49.71 43.46 48.52 49.12 44.42 31.12 24.43 38.40 36.29 38.64 41.01 39.85 38.51 40.07 40.61 38.02 37.26 35.01 32.87 33.32 38.74 39.55 43.91 44.87 39.10 40.88 41.08 37.05 27.44 24.50 23.32 26.65 36.50 33.34 36.81 38.49 41.93 43.67 42.23 41.89 40.85 40.48
47.97 51.31 51.53 49.75 48.04 49.75 45.41 35.81 23.02 31.49 32.86 40.19 39.43 40.95 36.93 39.03 37.45 39.05 37.55 32.77 38.65 37.72 33.35 30.86 29.21 39.00 43.83 40.29 38.22 38.52 38.24 30.25 23.15 23.20 28.30 35.66 28.31 34.86 42.38 43.97 46.05 45.24 43.65 40.74 39.63
47.98 45.10 48.40 49.68 50.56 49.17 39.95 27.67 25.84 30.91 37.11 35.76 37.01 34.35 35.04 39.18 39.22 37.70 36.49 35.32 36.90 38.54 33.94 31.65 31.61 39.54 42.94 43.62 42.50 37.24 34.32 39.71 32.77 32.77 24.74 28.56 33.51 39.84 42.41 41.96 43.70 42.50 40.85 39.28 39.43
38.17 37.02 38.81 47.75 50.39 45.29 34.88 30.80 31.35 36.22 37.08 36.15 30.14 34.52 31.70 34.44 35.77 36.01 35.90 38.65 38.09 40.41 41.82 37.54 31.55 38.12 40.26 43.16 42.41 39.05 40.95 32.62 31.12 25.20 23.73 28.88 30.20 30.54 36.09 38.05 40.89 40.00 38.92 38.63 39.33
35.05 26.78 35.71 45.68 48.16 39.20 28.56 31.60 33.85 37.82 38.01 34.99 32.94 31.64 32.83 32.50 35.30 34.65 35.08 40.34 42.23 40.84 40.98 38.93 35.85 33.64 38.50 36.78 35.97 37.23 36.80 37.21 36.12 32.67 26.38 24.99 26.57 36.22 38.79 40.54 39.89 40.12 39.63 38.71 38.99
31.23 17.06 38.34 46.25 34.85 32.34 30.58 34.04 37.85 35.38 38.01 36.61 37.30 34.76 33.41 34.98 32.95 33.60 35.01 39.72 43.48 42.56 37.09 39.85 35.14 30.14 33.23 39.39 41.11 38.98 38.27 37.68 30.16 27.64 29.65 28.38 29.62 41.96 41.51 42.63 42.63 41.33 40.11 39.33 39.50
28.74 22.97 36.90 41.78 27.00 29.22 33.94 34.23 35.43 34.33 34.93 35.57 34.62 36.71 36.74 33.23 29.46 34.67 37.29 41.50 42.56 40.03 37.41 38.16 33.38 27.65 29.92 35.02 38.42 35.75 38.11 39.27 38.31 34.30 30.21 26.53 29.10 42.85 43.24 42.43 43.22 41.25 40.32 39.75 39.60
26.21 15.43 30.45 35.58 29.68 26.96 25.86 28.36 30.43 36.70 35.05 36.34 35.30 37.18 34.37 32.25 35.11 32.17 33.86 39.11 41.39 39.53 40.26 40.00 35.82 31.49 26.41 29.51 34.30 32.46 36.72 38.55 37.17 31.00 30.93 30.51 32.23 37.74 40.81 41.12 41.35 41.11 40.27 39.85 39.86
28.74 21.95 25.61 25.53 25.61 29.31 29.71 29.37 27.78 28.34 35.44 36.54 33.94 34.18 32.98 29.79 31.10 32.12 34.69 36.13 38.50 39.49 38.06 35.34 31.02 32.42 33.06 33.58 34.03 34.02 35.16 36.60 35.75 35.96 31.07 33.84 33.96 38.79 40.94 41.34 41.95 41.77 41.11 40.31 40.04
28.24 24.72 26.47 25.21 29.52 27.57 28.41 25.52 28.20 28.91 30.54 30.90 32.19 33.85 34.53 31.55 32.33 31.22 34.72 34.19 33.47 37.27 35.44 36.46 30.01 31.68 29.44 32.66 32.44 30.51 31.99 33.67 35.15 35.79 35.07 35.59 33.67 40.55 42.71 44.07 44.10 43.21 42.87 42.10 41.19
31.78 31.65 29.99 25.15 25.93 26.40 26.39 27.10 28.02 30.55 32.45 34.33 34.42 34.12 33.46 35.20 38.15 38.87 39.58 39.43 37.44 34.80 33.83 33.52 30.98 29.04 24.40 31.66 30.27 26.05 30.77 31.89 32.81 34.42 34.41 30.07 35.34 39.90 40.36 40.64 41.01 43.92 44.36 44.09 44.36

GFSSW_sfc_wetblb_144.txt.gz
Wetbulb
60.78 60.93 61.01 60.94 60.57 60.61 60.25 58.71 56.61 56.24 56.39 56.18 56.29 56.39 56.77 56.44 55.33 50.96 47.36 50.84 52.97 60.24 59.48 51.19 49.78 50.70 44.69 42.62 43.30 41.92 37.30 33.96 36.74 39.30 42.37 46.20 45.94 46.97 48.63 49.35 49.17 50.85 50.66 53.79 55.78
60.92 61.26 61.57 61.18 60.48 60.41 59.90 58.26 56.60 55.91 56.21 55.99 56.13 56.24 56.02 56.18 51.04 48.59 56.32 59.03 59.55 59.71 51.16 50.13 49.21 49.78 44.34 41.28 42.47 40.09 35.85 38.77 41.79 42.59 43.38 43.78 46.15 47.60 47.63 47.62 48.11 49.56 53.14 54.40 53.73
61.07 61.17 61.28 61.22 60.52 60.40 59.86 58.06 56.11 55.76 55.60 55.70 56.07 56.26 55.68 54.57 47.74 48.33 59.90 59.57 59.36 57.65 52.08 51.71 50.96 47.28 43.16 43.06 42.60 37.40 37.84 40.69 43.29 45.49 42.81 42.19 43.24 44.94 46.13 44.61 48.30 49.13 50.22 51.31 50.30
60.56 60.63 60.67 60.89 60.68 60.33 59.60 56.96 55.55 55.32 55.03 55.20 55.76 56.27 55.92 49.37 42.65 48.65 60.41 60.34 60.39 55.72 51.48 48.97 47.11 43.40 41.82 41.00 42.81 39.45 43.52 42.73 43.81 45.33 42.78 42.30 44.46 44.69 43.66 46.53 50.49 52.03 51.52 49.58 48.83
59.57 59.69 60.10 60.71 60.64 60.17 59.13 56.03 55.31 55.10 54.45 54.29 55.12 56.14 49.73 44.94 48.07 51.50 60.03 57.77 52.19 52.01 47.55 46.07 44.64 42.46 39.57 41.32 42.18 40.23 42.33 44.04 45.16 44.41 44.33 44.13 42.42 43.38 41.19 47.48 50.22 50.50 49.77 48.38 47.40
59.16 59.10 59.22 59.86 60.09 59.93 57.66 55.49 54.82 54.32 54.10 53.82 54.60 55.52 44.84 43.55 53.91 51.70 49.26 49.43 50.18 48.42 46.29 45.04 43.99 44.98 42.53 41.09 39.77 41.86 42.41 42.93 43.39 43.28 43.48 42.50 41.07 42.59 43.94 47.00 47.88 48.58 46.93 47.07 46.58
59.05 58.94 58.84 59.19 58.78 57.33 56.29 55.32 54.30 53.75 53.71 53.74 54.32 51.84 43.90 47.26 51.39 49.65 49.09 47.14 47.23 46.98 45.36 46.60 46.87 43.50 43.74 41.55 44.25 42.73 39.30 41.18 42.35 43.01 43.13 43.36 39.63 40.67 44.86 46.34 46.27 45.93 45.80 44.88 45.61
58.27 57.42 57.22 56.58 56.20 55.58 54.71 53.54 53.40 53.38 53.66 54.09 54.12 49.86 40.51 50.71 48.61 49.89 47.38 47.53 48.24 48.30 47.70 48.40 47.34 44.20 42.63 44.41 42.59 38.28 37.34 34.41 41.19 43.83 43.84 42.70 36.91 42.20 45.29 45.88 43.70 43.44 44.46 44.23 44.44
55.90 55.18 54.61 54.27 53.90 53.40 52.72 52.55 52.71 52.52 53.56 54.66 48.18 43.74 41.70 53.18 48.59 51.22 49.25 47.06 46.75 47.23 47.30 50.51 45.86 41.58 41.59 37.51 34.73 34.54 30.73 32.90 37.54 43.13 40.82 40.17 37.48 42.93 45.15 46.37 43.59 43.34 42.91 42.72 42.59
55.38 54.63 53.96 53.42 52.75 51.87 51.40 51.17 51.25 51.63 52.03 53.27 49.60 41.98 46.27 47.74 48.58 48.86 47.98 47.59 45.50 45.69 44.28 42.79 39.76 36.31 35.64 35.25 29.84 30.62 30.61 29.16 32.15 37.62 37.36 36.14 36.16 39.98 44.49 45.05 44.19 42.56 41.55 42.06 42.03
55.40 54.47 53.54 53.05 51.86 51.15 50.17 49.01 46.69 45.54 46.59 43.63 43.19 44.28 45.55 47.52 48.94 46.91 47.41 45.55 44.49 42.16 36.86 39.13 34.44 32.37 36.91 37.92 36.43 34.91 32.98 32.30 33.50 39.52 37.09 35.70 35.71 38.40 40.51 43.00 41.09 40.35 41.15 41.43 41.46
55.04 54.33 53.38 52.87 51.53 50.71 48.68 46.28 46.33 45.77 40.22 46.01 44.89 44.12 46.96 47.74 43.47 46.51 46.96 42.31 40.39 36.23 38.54 35.63 32.52 37.90 39.35 38.75 37.40 36.40 34.27 33.33 35.64 39.42 37.34 34.85 35.68 38.41 38.95 41.77 43.40 42.39 41.61 41.74 41.26
54.68 54.24 53.28 52.64 51.49 48.45 45.09 47.09 49.74 45.74 38.65 41.46 44.46 44.62 45.27 46.46 42.55 43.75 46.19 41.74 38.36 35.33 36.44 34.08 36.99 40.42 38.56 36.96 35.62 34.93 33.90 34.01 34.41 37.20 37.06 33.91 35.42 36.23 38.04 40.21 43.62 44.25 44.47 43.44 42.32
54.34 53.76 52.81 51.72 46.62 45.54 43.16 47.27 47.95 45.72 33.06 35.62 39.40 42.55 45.02 45.82 41.33 47.78 48.26 43.51 39.05 35.78 36.23 35.15 39.09 38.18 36.37 35.46 36.81 31.80 37.69 37.61 35.61 32.74 27.67 34.31 27.85 33.71 35.89 37.99 41.03 42.37 42.86 42.38 42.45
53.80 53.30 52.11 50.55 44.26 42.23 45.18 46.64 45.74 43.51 22.55 39.07 40.03 47.97 46.18 43.23 43.16 41.54 47.51 42.44 38.36 36.40 36.48 34.49 35.81 35.15 35.09 36.92 38.84 34.81 38.89 36.33 35.27 31.45 29.74 31.06 27.85 31.11 38.01 33.93 37.69 41.39 41.95 42.58 43.07
53.74 53.15 52.09 48.76 44.17 44.73 46.76 46.26 45.23 28.59 19.45 35.42 40.56 39.45 40.10 42.07 42.79 43.14 43.06 44.69 42.30 38.23 37.52 36.62 39.30 37.67 37.13 38.94 39.65 40.02 36.37 35.26 32.46 31.14 23.01 30.60 29.99 32.95 32.49 38.52 38.44 41.26 42.58 42.90 42.40
53.44 53.15 51.10 48.47 42.24 45.67 45.34 43.98 28.08 22.84 35.43 33.32 35.20 38.68 38.26 37.59 38.84 38.55 38.10 37.72 34.59 31.03 31.67 36.60 37.22 38.26 40.29 35.71 37.78 35.64 31.60 23.23 22.44 22.40 24.36 33.60 30.17 35.17 36.69 39.17 39.69 40.46 42.12 42.62 41.79
52.11 52.32 51.33 49.54 49.30 46.74 44.62 34.84 21.51 29.30 30.18 37.42 36.50 36.31 34.04 37.16 36.24 36.79 34.54 33.11 37.23 35.16 32.56 30.12 29.70 36.85 39.72 37.97 35.64 36.89 35.16 27.96 22.75 22.48 25.72 32.85 27.16 33.90 39.12 40.61 40.73 42.30 43.14 41.77 40.60
49.57 48.91 48.46 48.53 50.32 48.05 40.34 28.94 25.31 29.46 33.70 31.77 33.81 30.40 30.79 33.91 35.60 34.45 32.86 31.24 34.81 37.54 31.71 30.07 29.86 37.05 40.17 41.63 40.39 35.29 32.60 37.95 30.85 31.56 27.19 27.56 30.21 36.54 39.36 39.22 40.07 40.32 40.40 39.92 39.58
38.41 41.69 41.84 45.55 50.48 45.26 35.49 28.61 30.33 34.45 35.16 34.15 28.46 31.44 27.56 30.17 31.39 31.69 32.25 36.53 36.85 38.11 39.88 34.46 29.50 35.71 37.72 39.70 39.68 38.12 39.07 30.96 31.51 24.62 22.94 27.41 29.27 29.56 33.97 36.63 38.59 38.29 38.44 39.45 39.11
33.29 29.51 37.11 42.86 48.52 37.83 29.12 28.67 31.73 36.16 36.44 32.71 30.57 29.40 30.26 30.30 31.27 30.52 32.72 37.57 40.03 39.11 39.91 35.77 32.48 31.16 35.12 33.16 32.83 34.48 34.02 35.78 35.12 32.34 26.64 25.44 26.94 36.18 37.05 38.60 38.69 39.12 39.39 38.42 38.24
27.88 18.97 37.08 45.27 34.80 31.94 30.01 32.87 36.68 33.84 35.87 34.33 33.59 32.27 29.83 31.52 29.46 30.53 31.08 36.33 40.70 39.83 35.79 38.11 35.81 29.37 30.90 37.31 38.69 37.66 34.37 34.88 28.92 28.05 30.61 30.08 29.23 38.95 39.09 38.37 39.55 39.21 38.26 37.49 38.35
25.03 26.41 39.10 42.60 27.93 26.60 31.93 32.11 34.61 33.75 33.47 33.68 32.73 33.67 33.49 30.57 27.84 30.77 33.31 39.24 39.80 38.18 35.63 37.16 32.16 26.82 26.56 31.73 35.33 32.48 34.19 34.19 33.82 33.06 28.30 26.91 28.65 39.77 40.28 39.78 40.32 38.09 37.03 37.29 37.00
25.26 21.36 30.78 35.63 30.83 25.90 26.41 27.27 28.72 35.00 33.69 35.30 34.39 34.64 31.83 29.60 32.48 30.43 31.16 37.04 39.38 39.09 41.17 39.29 34.27 29.81 24.63 27.81 32.64 29.49 31.79 32.84 31.50 27.77 28.54 29.18 30.95 36.05 38.23 39.25 39.06 37.20 37.17 36.85 35.71
23.64 18.28 26.84 22.41 26.17 28.75 28.75 27.43 26.15 25.97 32.37 33.95 30.89 31.93 30.32 27.51 29.07 29.08 31.22 32.68 37.31 39.48 38.56 36.51 27.37 31.62 31.48 31.08 31.86 31.07 30.99 30.93 30.06 30.89 27.52 30.89 31.79 35.91 38.39 40.08 40.52 39.53 38.45 37.07 35.26
21.98 22.69 28.27 24.79 28.09 27.56 28.05 23.87 24.58 26.47 27.92 26.18 28.87 29.75 31.98 29.12 29.09 26.47 31.12 33.23 33.05 36.21 35.37 35.65 26.95 30.24 22.22 29.82 30.55 29.92 31.77 31.77 31.43 32.18 33.89 32.06 30.72 38.46 39.12 39.53 40.13 39.61 38.61 37.45 36.55
28.18 31.27 26.58 22.37 25.20 24.97 23.59 25.10 26.18 27.68 28.88 30.64 28.96 27.51 27.05 28.19 31.80 33.24 32.91 34.82 34.11 31.67 31.95 32.96 30.26 26.11 22.44 26.35 26.15 24.58 28.03 30.59 32.11 34.37 33.38 27.83 32.87 37.34 36.86 38.25 38.72 39.84 40.46 39.41 38.97

GFSSW_sfc_wetblb_147.txt.gz
Wetbulb
60.40 60.74 60.83 60.75 60.41 60.41 60.46 59.33 58.32 56.73 56.53 56.59 56.49 56.50 56.93 56.62 55.62 53.44 50.20 54.24 55.65 60.29 59.70 54.65 54.41 53.50 49.77 48.40 49.05 48.25 45.67 42.57 44.02 44.15 47.42 50.31 50.72 52.26 53.29 53.72 52.81 53.57 57.93 59.57 57.34
60.36 60.97 61.16 61.00 60.47 60.25 60.25 59.37 58.08 56.67 56.10 56.02 56.10 56.41 56.39 56.19 52.14 50.87 57.65 59.92 59.85 59.71 54.55 52.69 52.28 52.04 49.63 47.68 48.04 47.22 43.97 44.42 46.79 47.62 47.98 49.45 50.85 52.15 52.12 51.52 51.24 52.74 56.13 57.45 55.22
60.47 60.84 61.07 60.86 60.49 60.01 60.02 59.21 56.34 55.81 55.60 55.51 55.89 56.37 55.75 55.31 50.88 52.01 59.59 59.80 59.97 58.72 54.87 53.95 53.22 50.34 48.26 49.36 47.31 44.45 44.06 45.53 47.06 48.29 48.94 47.89 48.46 50.20 51.23 49.84 53.21 52.85 54.57 55.36 54.12
60.29 60.36 60.48 60.79 60.67 60.10 59.68 58.66 55.82 55.64 55.18 54.96 55.91 56.18 56.03 51.33 44.75 53.51 60.94 60.52 60.50 56.86 52.79 51.07 50.42 48.16 47.19 46.30 47.85 45.07 47.32 46.46 48.25 48.70 48.72 47.55 49.19 49.43 51.87 52.43 53.45 56.27 57.20 55.40 53.99
59.61 59.57 60.00 60.61 60.49 59.94 59.38 58.52 56.05 55.56 54.92 54.46 55.39 55.85 51.88 50.56 51.78 55.32 58.48 55.90 54.02 53.32 49.69 48.68 47.90 46.88 44.95 45.55 46.58 45.08 46.57 47.27 48.51 47.60 47.66 48.06 47.82 49.23 49.39 51.17 55.42 56.25 55.18 54.71 53.78
59.10 58.98 59.28 59.65 59.99 59.71 59.32 57.98 55.71 54.95 54.47 54.11 54.96 55.18 48.05 46.88 58.17 53.33 50.80 51.62 51.68 51.25 49.09 48.70 47.66 48.18 46.02 45.27 45.07 45.91 45.96 46.67 47.33 47.43 47.68 47.01 46.89 47.80 48.73 51.77 53.04 53.63 53.43 53.21 52.66
59.03 58.55 58.74 59.02 59.10 59.00 58.98 56.46 54.89 54.14 53.87 53.54 54.37 51.62 45.53 51.37 56.95 52.25 51.10 51.08 51.01 50.44 48.23 49.60 50.02 47.77 47.38 45.08 47.21 46.14 43.77 45.75 46.25 47.45 47.37 47.67 44.53 45.50 49.15 51.26 51.36 52.59 52.54 52.04 51.62
58.25 58.33 58.03 58.19 58.23 57.83 56.38 54.88 53.64 53.59 53.72 53.84 54.73 50.21 44.52 54.38 51.53 51.19 50.67 51.09 49.86 50.48 50.01 51.08 50.18 48.11 46.93 48.14 46.09 43.58 42.92 40.26 44.83 46.68 47.68 47.15 43.40 47.81 49.57 50.01 50.10 51.18 50.89 50.35 50.23
57.75 56.64 56.04 55.04 54.59 53.98 53.47 52.84 52.42 52.44 52.90 54.57 49.77 46.26 44.44 54.84 50.19 52.96 52.33 49.67 48.82 48.80 49.67 50.96 49.69 45.91 46.37 42.77 40.28 39.60 37.53 38.73 41.85 46.06 46.18 45.40 44.30 48.15 49.25 49.75 49.76 49.85 50.33 49.93 49.39
55.88 55.20 54.67 54.09 53.19 52.58 52.06 51.71 52.32 51.62 52.21 53.24 49.10 44.05 48.12 49.87 50.94 50.18 50.58 49.68 47.60 47.19 46.58 46.52 44.80 42.54 41.41 40.20 35.25 36.33 36.78 37.81 39.21 43.45 43.64 43.95 43.04 45.69 47.61 49.09 49.27 49.68 49.81 49.38 48.82
55.22 54.57 53.58 52.52 52.03 51.33 50.71 49.93 47.56 46.19 47.48 45.39 44.66 45.16 47.16 50.21 51.56 48.89 49.00 47.53 47.38 45.61 40.65 43.36 39.86 37.17 40.28 41.49 41.01 39.10 37.28 37.57 40.30 43.41 41.48 41.58 42.63 44.60 46.43 47.09 48.00 47.92 48.26 48.54 48.64
54.63 53.90 53.21 52.71 51.68 50.92 50.88 48.08 47.00 47.23 42.55 47.00 46.41 45.25 47.30 49.09 45.22 48.11 49.22 44.34 42.99 39.73 41.34 39.54 36.88 41.51 41.89 40.70 39.72 39.04 37.40 37.23 40.16 42.24 41.29 41.37 40.55 43.94 44.90 45.34 47.81 48.21 47.81 47.94 48.17
54.74 53.91 53.47 52.08 51.23 49.41 46.83 48.49 49.33 47.77 41.16 42.96 46.12 45.72 46.69 47.55 45.00 46.68 47.71 44.00 40.98 38.28 39.10 39.42 41.69 41.84 40.09 39.11 37.41 37.71 36.52 36.96 36.87 40.17 41.57 39.65 38.63 41.22 43.18 45.48 46.80 48.86 49.74 49.26 47.59
54.38 53.70 52.51 51.52 48.32 46.96 45.55 48.89 49.72 47.24 36.50 37.35 40.49 43.93 46.09 47.32 44.02 49.57 50.15 46.47 40.76 39.43 38.80 38.55 42.11 40.57 38.02 37.57 38.80 35.15 40.00 39.31 38.03 36.32 32.41 38.88 32.35 40.48 41.08 41.29 43.20 45.98 47.77 48.33 47.85
53.71 53.35 51.88 50.76 45.74 43.64 46.17 48.18 48.00 45.71 22.93 39.11 40.45 48.53 46.71 44.20 44.36 42.70 48.87 45.44 41.70 39.63 39.86 38.08 37.69 37.20 37.57 39.44 40.12 38.20 40.90 39.25 38.62 36.24 34.95 36.26 32.95 39.84 41.78 39.79 40.81 44.01 46.69 47.93 48.40
53.75 53.04 50.79 47.70 45.80 47.01 47.82 47.90 46.55 31.28 23.39 36.49 40.80 40.11 40.50 42.56 43.29 44.31 44.41 46.64 44.80 40.59 39.70 38.83 42.11 40.48 39.82 40.64 41.29 41.67 39.55 38.65 36.75 35.95 29.31 35.24 35.15 37.83 42.05 41.35 43.28 44.40 45.95 46.86 47.01
53.52 52.69 50.44 48.41 43.60 47.01 47.74 45.41 31.37 24.69 35.96 33.84 35.58 39.61 39.21 38.32 39.89 40.20 40.00 38.79 36.49 33.15 34.03 39.10 39.93 41.90 42.43 39.65 40.63 39.44 35.77 30.48 27.52 27.65 28.61 37.25 33.85 38.31 43.17 44.19 45.14 45.40 45.53 46.70 46.75
52.94 52.00 51.12 49.63 48.66 47.25 46.64 36.57 24.98 30.28 30.85 37.14 36.70 37.21 35.35 38.17 37.83 38.29 36.84 35.72 39.77 37.54 34.73 32.03 32.27 38.84 41.72 39.78 38.42 37.68 36.78 31.43 24.61 25.75 30.33 35.10 31.72 37.99 42.80 44.69 45.39 45.86 46.93 46.92 46.02
52.16 50.37 48.08 49.29 50.13 48.87 41.89 30.05 28.53 30.70 33.78 32.63 34.97 32.61 32.42 35.37 36.88 36.84 35.69 34.40 37.03 39.10 34.48 32.78 32.16 39.70 41.49 42.78 41.38 36.73 33.58 39.42 31.79 32.59 28.78 32.07 37.20 42.74 43.82 44.04 44.59 44.32 44.29 45.13 45.04
44.08 43.44 41.42 44.00 50.14 45.75 36.77 31.99 31.70 35.27 35.76 34.80 29.93 32.75 29.11 32.03 33.13 33.63 34.45 38.93 38.64 40.80 41.00 36.18 30.18 37.45 39.21 41.56 41.84 40.03 41.73 33.40 33.09 25.83 24.98 30.23 32.18 34.49 39.66 41.63 44.66 44.58 44.79 44.19 44.13
39.84 36.47 40.36 43.37 47.99 37.82 30.76 31.85 33.81 37.17 37.07 33.80 31.57 30.72 31.17 31.09 32.65 31.94 33.16 37.45 40.16 39.94 41.67 39.36 34.53 33.98 38.45 35.78 35.06 36.42 35.51 36.93 36.65 33.62 27.48 25.94 31.81 41.02 41.42 42.67 42.37 44.70 45.55 45.08 43.37
32.05 27.91 40.52 45.37 33.90 31.97 31.32 34.04 36.73 34.49 37.24 35.74 35.62 33.91 32.00 32.95 31.15 31.79 31.96 36.53 41.04 41.02 36.05 38.50 35.81 29.72 32.66 39.18 40.68 38.91 35.62 35.51 29.42 28.78 33.58 31.29 31.23 44.07 43.58 43.98 43.98 44.54 44.10 43.57 43.40
28.92 31.65 40.16 42.86 29.32 30.11 33.66 33.57 35.18 34.35 34.66 34.90 33.83 34.83 35.46 32.60 29.22 32.35 34.15 40.19 40.84 39.20 36.26 37.34 32.42 24.99 28.11 33.47 36.29 33.96 35.71 34.79 33.61 33.13 28.94 25.89 29.55 42.39 43.01 42.22 43.71 43.56 44.00 41.08 40.85
29.94 25.47 33.06 36.17 32.89 30.42 29.43 28.71 29.61 35.72 34.44 35.74 34.52 35.89 33.21 31.56 34.17 31.36 32.18 37.56 40.32 40.02 40.91 39.72 34.06 29.03 23.84 27.96 32.22 29.69 32.73 34.01 32.48 27.92 28.51 28.56 30.61 36.45 39.14 39.25 42.30 44.02 42.09 40.91 40.00
26.39 23.99 28.98 26.43 29.07 29.52 30.28 28.30 27.62 27.20 33.46 34.55 30.96 32.88 31.70 28.81 30.06 30.13 32.81 34.20 37.79 39.74 39.21 37.18 28.51 29.81 31.91 33.12 33.28 31.50 31.31 32.28 30.81 31.48 27.79 30.84 31.64 36.18 39.10 39.21 40.86 42.20 40.94 38.80 37.99
25.73 26.61 30.14 27.08 29.25 28.99 28.42 25.33 26.20 27.26 28.85 27.83 28.75 31.64 32.77 29.29 29.95 28.21 30.59 31.03 30.37 35.65 35.97 36.67 29.00 29.22 27.49 31.33 31.33 28.64 31.80 32.24 32.31 32.75 32.00 32.65 32.23 39.74 41.50 41.37 40.88 40.82 41.16 39.46 38.38
30.81 33.23 29.96 25.87 27.28 27.51 26.20 26.15 26.73 29.32 29.66 30.91 29.75 28.81 27.27 28.99 31.70 30.57 30.86 31.49 31.03 30.38 31.42 31.43 29.64 28.21 24.25 29.42 29.14 26.27 30.20 31.31 32.64 34.30 33.66 29.81 35.18 39.67 38.32 39.29 40.37 41.22 40.81 40.63 40.32

GFSSW_sfc_wetblb_150.txt.gz
Wetbulb
60.43 60.80 60.92 60.83 60.54 60.69 60.79 60.05 59.41 58.37 57.21 57.34 57.18 57.06 57.51 56.89 56.67 60.35 53.12 56.59 57.79 60.50 60.21 57.01 57.72 56.71 55.07 52.38 54.30 54.41 49.25 47.27 48.39 48.53 50.40 54.08 53.55 57.02 62.32 59.16 61.97 62.04 62.17 65.32 63.83
60.35 60.85 61.22 61.01 60.33 60.23 60.27 60.18 57.98 56.81 56.70 56.71 56.67 56.78 56.74 56.14 57.88 57.41 57.48 60.57 60.31 60.31 56.24 54.26 54.04 55.01 53.19 51.07 53.09 51.41 48.51 47.73 51.26 51.90 51.53 53.26 54.15 55.64 56.77 58.44 58.61 59.73 61.39 64.72 62.61
60.29 60.48 60.75 60.85 60.55 60.26 60.10 59.99 57.46 56.34 56.09 55.93 56.17 56.46 56.06 56.48 55.15 54.81 60.10 60.06 60.52 60.15 56.95 55.65 55.29 53.77 49.72 52.19 50.82 50.51 47.45 50.40 50.89 52.01 52.94 52.01 52.49 56.48 55.46 56.03 59.55 59.37 60.93 62.23 62.30
59.97 60.05 60.33 60.69 60.68 60.16 59.69 59.42 57.49 56.46 56.32 55.78 56.15 56.39 56.16 55.61 46.56 56.89 61.72 61.11 60.63 58.56 56.06 54.10 53.13 51.33 48.70 47.92 51.83 47.83 50.09 51.08 51.28 52.00 52.09 51.82 53.35 53.79 55.48 56.83 59.94 61.37 62.69 62.93 62.66
59.25 59.49 60.02 60.60 60.71 59.96 59.29 58.97 58.12 56.89 56.04 54.81 55.53 56.24 58.62 55.15 55.75 60.10 58.96 58.93 56.70 55.83 54.87 52.09 51.22 49.96 48.29 49.04 49.97 48.92 49.59 50.77 52.11 52.36 52.21 52.66 51.77 52.44 54.19 57.61 57.95 60.02 61.84 62.52 63.34
58.99 59.05 59.17 59.76 59.98 59.75 59.06 58.53 57.86 56.30 55.02 54.32 55.09 55.33 54.77 49.91 61.54 60.79 55.64 55.60 57.19 57.61 56.17 53.94 52.61 52.24 49.99 49.24 48.98 49.82 49.78 50.14 50.94 50.85 51.53 50.20 51.42 51.87 53.64 56.66 57.76 59.81 60.93 62.55 63.26
58.80 58.64 58.62 58.92 59.16 59.06 58.96 58.35 56.70 55.09 54.35 53.32 54.48 54.43 50.99 53.92 62.03 60.10 57.31 57.62 57.93 57.95 56.00 54.76 53.43 51.75 51.18 49.05 51.33 50.21 47.51 49.34 49.74 50.28 50.20 51.53 48.47 48.97 54.21 56.37 56.81 58.15 60.09 61.63 62.40
59.20 58.53 57.99 58.19 58.31 58.27 58.09 56.57 55.16 54.11 53.67 53.28 54.17 52.81 48.24 60.79 60.33 56.87 59.15 57.76 58.36 58.08 56.23 55.93 53.38 52.12 50.35 51.37 49.30 47.32 48.16 44.92 48.67 49.21 50.09 50.40 44.30 49.87 54.39 54.93 55.40 57.25 58.79 59.67 60.75
58.23 57.95 57.61 57.11 56.69 55.41 54.56 53.62 53.10 52.66 52.72 54.26 52.65 51.75 50.23 58.53 54.62 57.28 58.30 55.36 53.69 52.69 54.10 53.27 52.62 50.51 49.36 47.11 46.57 47.19 43.75 44.97 46.29 49.64 49.05 48.97 46.27 50.38 53.92 53.59 53.58 55.69 57.56 58.58 59.49
57.51 57.11 56.07 55.27 54.46 53.51 53.06 52.87 52.46 52.12 53.31 54.46 52.48 48.06 53.04 52.94 54.49 53.18 55.38 53.89 50.79 50.93 50.08 49.84 50.26 47.90 47.65 46.57 41.74 44.42 43.74 45.33 44.55 47.76 47.82 47.05 47.25 49.93 52.08 52.96 53.31 54.63 56.59 57.74 58.22
55.83 55.51 54.55 53.46 52.94 51.85 51.32 50.23 48.70 48.44 49.36 50.70 50.27 50.74 51.39 54.47 54.18 52.81 52.81 51.49 50.99 49.99 46.44 48.73 45.67 43.66 47.26 48.37 48.30 46.78 44.75 43.94 46.26 47.78 45.55 46.14 46.88 48.67 50.39 51.69 52.45 53.76 55.23 56.41 57.21
54.39 53.66 52.70 52.29 51.88 51.74 53.31 49.61 50.89 51.22 48.14 51.86 51.44 51.55 53.12 53.41 49.37 52.03 52.33 48.03 46.80 44.70 46.53 44.17 42.40 47.78 48.79 47.06 46.27 45.22 42.97 43.83 46.92 47.60 45.77 45.75 45.92 48.84 49.71 49.65 51.06 52.48 53.71 55.21 56.80
53.72 53.52 52.69 51.93 51.74 50.88 48.38 49.72 51.09 51.29 46.82 49.22 51.26 50.74 51.16 52.21 48.82 50.74 51.80 49.69 46.88 45.69 44.84 44.47 47.74 47.77 45.45 44.99 42.85 44.11 43.22 44.35 43.85 46.26 46.65 45.65 44.48 47.42 49.89 50.12 50.25 51.11 52.56 54.15 55.35
53.74 53.29 52.27 51.85 50.94 48.78 47.67 50.73 50.90 49.17 37.73 44.04 43.69 47.61 49.42 50.62 46.58 52.82 53.94 50.79 47.38 44.23 46.23 45.78 48.41 46.68 45.55 43.41 44.87 41.47 47.31 43.95 42.95 42.36 40.36 45.12 38.43 46.41 48.97 48.14 48.07 49.19 50.80 52.27 53.80
53.45 53.01 52.06 53.16 50.82 47.92 50.22 51.42 50.50 47.94 30.58 43.35 43.52 51.35 49.20 46.82 47.09 46.53 51.96 49.97 45.11 44.86 44.49 43.49 42.61 42.17 41.91 44.10 46.22 42.38 45.58 44.11 44.14 42.73 42.82 42.93 39.59 45.25 46.95 46.03 47.92 48.92 50.28 52.17 53.68
53.35 52.72 51.05 49.91 51.94 50.87 52.16 52.07 49.68 35.82 27.56 39.15 44.20 43.20 43.62 45.28 45.23 47.01 46.86 49.45 48.18 45.39 46.91 45.03 48.78 44.69 43.74 43.83 44.09 45.76 43.18 43.38 42.92 41.93 35.37 41.39 41.43 42.89 46.11 45.96 47.17 49.62 50.16 51.49 52.77
53.22 51.98 51.60 52.19 48.40 52.79 52.46 48.05 35.35 29.84 38.90 36.87 38.99 42.08 42.23 41.36 42.29 43.25 42.77 42.53 41.58 36.72 39.10 43.81 44.07 46.21 46.20 42.85 45.34 43.16 40.82 35.78 34.13 33.44 33.72 42.24 40.32 43.12 47.64 47.56 48.30 48.85 50.65 52.80 53.25
52.66 51.26 50.52 51.17 52.61 53.13 51.12 41.74 29.74 34.82 35.02 39.35 39.47 39.25 38.52 40.62 40.29 41.44 41.12 39.41 43.10 41.10 38.63 36.66 35.24 42.42 46.41 43.40 41.99 42.31 41.31 34.88 28.17 30.95 36.53 39.52 36.09 42.59 48.10 49.05 50.04 50.92 51.34 51.96 52.54
51.91 50.30 48.63 48.18 52.06 53.12 45.79 32.90 32.68 35.06 38.02 36.50 37.85 36.17 36.18 38.54 39.85 40.06 39.19 37.46 40.39 42.17 36.96 37.42 36.29 43.62 44.56 44.46 44.11 40.52 37.63 42.98 34.83 36.29 31.81 36.92 42.32 46.50 47.69 48.06 49.19 49.74 50.89 51.68 51.88
48.54 44.44 42.50 45.43 51.46 49.03 38.71 34.41 36.79 38.81 38.53 37.54 34.11 36.27 34.03 35.67 36.62 37.85 38.13 40.93 39.87 42.77 44.24 40.07 33.97 40.59 42.06 43.71 43.97 42.48 43.46 34.90 36.14 28.46 27.44 35.42 37.30 38.78 43.54 44.27 46.50 47.45 48.27 49.90 51.77
47.57 41.57 42.32 46.36 50.32 41.81 31.90 34.46 38.14 40.43 40.07 37.22 35.49 34.66 35.04 34.26 36.18 34.87 36.25 39.69 41.44 40.90 43.58 41.55 38.53 37.74 40.60 39.32 38.17 39.58 37.56 37.98 37.77 35.26 29.19 28.87 34.71 45.29 44.52 46.01 45.69 47.14 48.79 49.93 50.56
40.78 34.88 43.16 46.05 35.18 33.08 33.44 37.65 38.85 38.66 40.50 38.89 39.25 37.83 35.94 35.51 34.36 34.14 34.32 38.06 42.99 42.08 37.28 40.56 38.37 33.00 35.92 41.91 42.23 41.09 38.69 38.42 32.22 31.31 33.93 32.56 33.22 46.23 46.34 45.68 45.30 46.11 47.37 49.03 50.59
36.84 37.82 41.38 43.96 31.63 33.26 34.59 36.04 37.25 37.27 38.12 37.81 36.88 38.37 38.73 36.06 32.43 35.19 36.53 41.85 42.48 40.35 38.50 39.70 34.96 28.66 31.54 36.91 40.03 37.66 37.07 37.47 37.18 35.85 30.90 27.84 32.35 44.75 44.44 44.30 44.99 45.88 47.45 48.44 49.77
38.04 32.17 35.52 36.55 36.04 36.16 34.50 34.14 32.86 37.94 37.39 37.94 37.40 38.84 36.67 35.14 37.43 34.28 34.94 39.08 41.43 40.74 41.08 40.39 35.80 31.98 27.86 32.05 36.11 32.89 35.32 37.06 36.06 30.76 31.31 32.17 34.27 38.42 40.64 41.82 44.16 46.03 46.93 47.70 48.35
37.86 32.85 36.32 31.90 33.02 35.89 34.88 33.03 32.21 31.23 35.85 38.03 35.37 36.20 34.84 30.84 32.90 33.16 36.07 37.07 38.73 39.95 40.34 39.14 31.08 33.51 34.13 35.11 35.19 34.20 34.31 35.41 33.91 35.13 30.65 33.37 34.17 38.44 41.17 42.62 44.23 45.75 45.96 45.47 45.94
33.82 34.41 36.44 33.73 35.86 32.83 31.38 29.78 29.68 30.82 32.72 31.56 31.32 33.63 34.83 31.45 32.37 30.46 33.32 33.63 33.49 37.17 36.85 36.91 32.19 31.24 29.51 33.26 33.57 31.24 34.31 35.14 35.19 35.64 35.39 35.64 35.49 42.40 43.99 44.65 43.82 44.26 44.71 44.65 43.16
39.18 38.69 38.21 30.86 33.28 31.86 31.04 30.60 30.93 33.09 32.51 34.40 34.36 33.36 31.53 33.10 36.03 36.38 36.04 35.48 35.80 34.03 33.54 33.47 31.32 28.86 26.09 32.20 31.71 27.09 32.87 34.56 36.02 38.01 36.95 32.74 38.52 42.64 41.80 41.92 43.08 44.07 45.17 45.23 45.50

GFSSW_sfc_wetblb_153.txt.gz
Wetbulb
60.76 61.13 61.14 61.05 60.91 61.02 61.32 60.81 60.05 59.44 58.07 58.03 57.72 57.68 58.15 57.74 57.19 61.41 57.63 56.68 58.63 61.15 60.03 59.70 58.50 57.30 56.71 54.49 55.11 56.02 49.79 48.65 50.08 50.32 51.60 55.60 54.33 58.01 62.51 60.54 63.63 65.08 64.51 68.34 68.84
60.81 61.11 61.39 61.20 60.42 60.48 60.57 60.59 59.60 56.88 57.43 57.45 57.40 57.38 57.21 56.90 60.54 57.98 58.18 59.87 60.46 61.02 59.93 56.86 55.73 55.84 54.01 53.42 53.65 51.93 49.79 50.09 52.88 53.40 52.00 53.62 54.49 55.87 57.44 59.83 59.87 61.92 64.18 68.77 67.66
60.40 60.77 61.13 60.96 60.57 60.29 60.39 60.34 59.76 57.25 57.20 57.22 57.02 56.97 56.19 57.95 57.01 56.08 59.66 61.06 60.47 59.85 60.77 59.08 57.34 55.66 52.13 53.36 52.69 51.43 48.27 51.64 52.06 53.12 53.79 53.23 53.40 56.17 55.72 55.67 59.23 60.25 63.43 65.75 66.35
60.10 60.06 60.34 60.59 60.67 60.21 59.88 59.68 59.70 58.24 57.80 56.88 56.53 56.65 56.33 60.59 47.72 58.89 60.67 61.86 61.14 59.58 59.18 58.04 56.63 53.72 51.71 49.91 52.46 49.23 50.92 50.51 51.33 53.05 52.71 52.18 54.49 53.47 55.47 56.75 59.63 61.61 64.43 65.25 65.37
59.23 59.17 59.61 60.33 60.45 60.05 59.59 59.23 59.50 58.77 57.25 55.49 55.85 56.49 59.59 55.99 55.17 59.85 59.51 58.64 58.30 58.23 57.78 56.52 54.89 53.54 50.45 50.94 51.45 49.13 50.28 51.43 52.49 52.56 52.63 53.13 52.06 52.76 53.60 57.15 59.56 60.48 64.60 64.77 65.35
58.44 58.53 58.90 59.52 59.90 59.80 59.29 58.72 58.65 58.31 56.50 54.52 54.77 54.72 57.77 51.11 61.30 63.41 60.92 59.18 58.38 58.88 59.28 58.92 56.23 56.08 53.39 52.61 51.60 52.70 51.94 51.81 52.31 51.90 52.28 50.76 51.18 52.16 53.87 56.49 57.75 59.18 60.50 63.89 64.93
58.62 58.53 58.57 59.06 59.12 59.23 59.17 58.42 58.05 57.37 55.61 53.70 54.18 58.58 56.12 55.34 63.12 63.63 60.87 60.68 61.63 59.77 58.33 60.31 57.94 54.90 55.54 51.80 54.43 52.85 49.43 51.10 51.83 51.98 50.90 52.09 48.91 49.52 53.36 55.73 56.01 57.74 60.06 62.59 64.31
58.87 58.32 58.02 58.26 58.46 58.30 58.24 57.69 56.69 55.03 53.74 53.26 54.43 55.52 51.20 62.51 63.79 61.87 62.01 60.45 62.17 62.12 60.31 60.56 59.48 54.86 54.50 55.30 52.53 49.67 49.78 46.00 50.69 51.66 51.63 50.78 45.39 51.19 53.66 53.55 54.56 56.35 59.16 60.74 62.83
58.59 58.30 57.53 57.11 57.11 57.09 56.35 54.76 54.09 53.50 52.73 53.62 51.91 54.22 52.95 59.50 57.27 60.19 60.32 58.31 59.73 60.55 58.71 57.85 55.89 52.20 53.39 48.82 48.00 49.70 44.63 46.64 48.62 51.82 50.68 49.98 47.15 51.66 53.72 52.98 53.83 55.47 57.48 59.30 61.36
58.21 57.99 57.35 56.89 55.98 54.83 53.78 54.09 53.12 52.58 52.62 54.79 54.16 51.49 55.84 54.63 58.11 57.48 58.18 58.59 53.57 52.84 52.22 51.70 51.45 49.75 49.90 48.35 42.81 46.26 46.73 47.87 46.98 50.17 50.80 48.83 48.69 51.45 53.05 53.39 53.74 54.37 55.68 57.59 59.08
57.47 57.37 56.31 55.16 54.13 53.13 51.19 51.78 52.24 51.21 52.30 51.03 53.09 53.88 54.62 57.13 57.18 55.66 56.62 54.65 54.51 52.33 48.90 50.94 47.57 46.12 48.94 50.99 50.55 49.75 48.32 47.30 49.47 51.62 49.48 48.47 48.66 50.71 52.78 52.93 52.84 53.74 54.31 55.28 57.42
56.53 55.62 54.41 53.92 53.11 52.41 54.93 51.62 51.92 51.73 49.27 55.72 54.48 55.26 56.89 57.23 51.82 55.16 55.65 50.81 50.07 47.25 50.89 49.77 45.14 50.52 51.93 51.17 49.40 48.21 47.04 47.10 49.58 51.34 50.56 49.04 48.37 51.32 52.92 52.83 52.93 53.05 54.02 54.87 56.59
54.21 53.49 52.92 52.11 52.18 51.87 52.02 50.88 52.47 53.36 47.22 52.63 55.40 53.91 54.70 55.82 51.99 53.29 55.12 52.81 49.91 47.44 48.45 46.55 49.26 51.53 49.59 48.15 47.13 47.84 46.40 46.86 46.97 50.03 50.93 49.11 47.22 49.77 53.02 53.90 54.21 53.87 53.82 54.95 55.60
52.87 52.44 51.79 51.86 50.99 50.91 49.93 52.67 52.19 51.68 40.89 45.59 47.81 51.07 53.46 52.95 48.89 55.91 56.49 53.55 50.44 47.41 48.70 48.51 51.15 49.28 48.83 47.85 49.10 44.50 49.64 48.58 47.34 45.24 42.03 49.94 42.12 48.43 50.68 51.48 52.37 53.20 53.88 53.79 54.67
52.73 52.55 52.16 53.72 53.30 51.25 52.95 53.06 51.54 50.60 31.43 48.34 47.26 53.85 52.38 49.01 49.66 49.02 54.71 52.83 47.87 48.76 47.13 46.45 47.92 46.33 45.32 47.27 49.82 46.68 49.20 46.84 46.78 45.03 44.91 45.58 43.43 46.30 49.82 48.88 50.47 52.15 52.47 53.50 54.65
52.70 52.62 52.51 51.58 54.73 56.92 56.35 54.56 50.61 37.25 30.67 42.90 47.05 44.85 44.52 47.32 47.81 49.68 49.37 52.48 51.92 48.17 49.72 47.81 51.17 47.93 46.59 47.25 46.76 48.83 45.45 46.20 46.33 44.59 38.09 43.56 43.43 44.08 47.13 47.51 49.35 51.22 52.30 53.53 54.74
52.76 52.78 51.83 54.65 49.78 56.11 55.83 48.83 36.57 33.28 43.63 41.33 42.32 44.94 44.01 44.08 44.95 45.75 45.83 45.21 43.99 40.23 41.78 46.27 46.64 49.82 49.37 44.18 47.34 45.86 42.82 36.27 36.07 36.18 36.04 44.65 43.20 45.13 48.82 49.31 49.47 50.50 51.99 53.63 54.96
52.42 51.80 51.57 55.40 56.85 56.98 53.17 43.88 32.39 40.20 41.51 43.16 43.13 44.04 41.33 43.60 43.32 43.93 43.20 42.63 46.37 45.55 42.92 40.93 39.36 46.39 49.83 46.54 43.78 44.72 43.26 36.67 29.57 32.15 36.72 43.65 39.30 44.28 50.14 51.14 51.68 52.27 52.80 53.76 54.44
51.28 52.18 52.26 52.73 56.81 55.79 47.73 33.68 36.38 40.90 43.79 40.63 41.50 39.27 40.21 42.42 42.07 42.38 42.54 42.32 44.32 44.86 38.94 39.44 39.10 45.94 46.55 47.52 46.97 43.26 39.71 44.91 37.61 38.76 34.30 39.37 44.62 48.76 50.61 49.39 49.78 50.14 51.03 51.80 52.95
48.47 45.69 45.32 46.31 55.21 51.81 41.32 36.58 40.00 42.29 41.95 42.23 37.61 40.66 37.88 39.92 39.94 41.42 40.55 42.94 41.48 44.29 46.38 41.93 36.80 43.87 44.69 45.49 46.16 43.85 45.57 37.03 39.01 29.72 29.01 36.52 39.27 40.66 44.79 45.30 48.09 48.38 48.38 49.46 51.64
47.35 39.65 42.78 45.59 51.41 43.84 33.32 38.28 41.19 43.64 42.84 40.02 39.55 38.69 40.20 39.20 40.70 40.00 40.60 42.59 44.34 43.08 45.55 43.96 40.45 39.89 42.43 41.16 40.21 40.98 39.73 39.99 39.50 37.69 31.41 30.95 36.64 46.98 44.63 45.93 46.46 47.00 47.11 48.55 49.81
45.79 33.14 43.34 45.44 35.99 32.78 36.48 40.15 41.31 41.69 43.30 41.82 42.87 41.45 40.01 40.40 38.97 38.57 38.34 41.13 44.35 43.65 39.66 42.58 39.63 35.83 38.65 43.35 44.60 42.69 40.28 40.51 34.15 32.74 36.36 35.20 35.15 47.36 47.17 47.22 47.03 46.07 46.26 49.13 50.35
41.43 38.04 43.43 43.95 32.05 34.23 37.22 37.45 40.44 40.44 40.71 40.67 40.15 41.67 42.24 39.34 35.84 38.75 39.34 44.01 43.60 41.72 40.25 41.66 36.67 30.91 33.20 38.80 41.73 38.59 40.57 40.47 40.10 38.71 32.96 30.53 33.46 45.23 45.30 45.11 45.43 45.01 46.16 48.44 49.63
42.13 33.32 36.11 37.50 37.75 37.55 34.71 34.67 36.05 42.03 40.58 41.57 39.86 41.66 40.25 38.43 40.29 37.57 37.98 41.75 42.86 42.29 41.50 40.85 36.74 32.87 29.03 33.86 36.22 32.93 36.88 39.30 37.82 32.88 33.14 33.95 36.24 40.42 42.13 42.54 43.86 45.13 47.03 48.18 48.83
42.01 36.78 39.99 31.66 34.03 37.05 38.72 36.68 34.69 35.26 39.99 40.93 37.93 38.66 38.08 34.63 35.92 35.44 38.35 39.81 41.43 41.63 40.85 40.07 33.09 34.63 35.62 36.57 36.79 35.62 35.34 36.69 35.64 36.28 32.21 35.10 35.74 39.57 41.74 42.56 44.29 46.01 46.54 46.39 46.82
34.60 36.97 39.29 38.08 38.39 36.32 35.61 35.77 34.96 34.27 35.61 35.48 35.57 38.20 38.42 34.98 35.60 33.92 36.92 37.10 37.25 39.94 38.86 40.11 32.58 33.90 30.85 34.56 35.07 32.82 35.79 36.48 36.28 36.61 36.22 36.54 36.14 42.42 43.66 44.70 44.71 45.26 45.35 45.35 46.30
42.30 43.61 40.67 36.15 36.02 35.17 34.36 34.60 33.49 34.50 34.84 37.76 37.30 35.62 34.85 36.37 39.04 39.64 40.21 39.23 39.22 36.98 36.86 36.11 33.33 30.45 26.86 33.10 32.63 28.56 34.14 35.61 36.60 38.20 37.33 33.73 38.62 42.92 42.36 43.28 44.19 44.88 45.48 45.76 46.76

GFSSW_sfc_wetblb_156.txt.gz
Wetbulb
60.91 61.19 61.39 61.29 61.22 61.14 61.43 61.44 60.82 59.93 59.11 58.66 58.46 58.51 58.60 58.21 57.60 61.31 56.20 57.75 59.10 62.16 60.31 59.71 58.87 57.54 56.79 54.13 54.59 54.36 47.84 46.03 48.25 49.34 51.32 55.34 53.58 56.39 57.53 59.03 62.19 64.55 64.83 67.99 69.20
60.95 61.20 61.44 61.34 60.71 60.61 60.73 60.82 60.88 59.54 58.58 58.46 58.30 57.87 57.39 57.06 59.41 57.71 57.38 62.13 61.28 61.94 59.26 57.76 55.71 55.74 53.78 53.12 53.44 50.68 47.70 48.01 51.73 52.21 51.84 53.22 53.41 54.40 54.74 56.78 60.06 62.40 67.80 68.46 68.50
60.78 60.85 61.02 61.09 60.64 60.39 60.32 60.32 60.50 60.09 58.65 58.53 57.71 57.41 56.62 57.47 56.44 54.97 61.05 61.17 61.23 60.19 59.46 58.69 57.86 55.61 52.26 53.62 51.95 51.23 47.35 50.40 51.16 52.42 52.74 51.67 51.82 54.32 53.45 53.16 58.03 59.74 64.23 66.56 66.39
60.09 60.01 60.36 60.73 60.70 60.31 59.89 59.75 60.13 60.21 59.41 58.08 57.37 57.26 56.61 59.85 47.00 57.58 61.65 62.12 61.49 59.27 58.53 57.01 56.35 53.10 51.58 50.24 53.26 48.95 51.20 51.31 51.29 51.15 50.70 50.37 52.65 51.88 52.93 53.96 57.98 59.84 64.28 65.76 65.17
59.25 59.36 59.70 60.21 60.29 59.87 59.55 59.22 59.48 59.84 58.77 57.30 57.08 56.88 58.63 54.88 54.69 60.49 60.83 60.45 59.03 59.11 56.78 55.96 53.98 53.47 50.24 51.29 51.71 49.46 49.99 50.93 51.86 51.39 51.55 52.35 50.80 51.09 51.91 55.29 56.97 59.00 63.23 64.74 65.02
58.50 58.60 58.79 59.19 59.62 59.69 59.40 59.03 58.72 59.33 58.65 56.77 56.17 55.66 57.01 50.52 60.81 61.99 62.29 60.42 59.17 57.97 57.23 58.04 56.52 56.78 52.70 51.74 50.91 52.35 52.02 51.71 52.44 52.05 52.05 50.41 50.34 51.13 52.11 54.55 55.02 56.34 62.08 64.59 64.68
58.26 58.11 58.09 58.50 58.86 59.03 59.12 58.58 58.08 58.52 57.43 55.04 55.33 56.83 55.16 54.13 62.00 62.71 63.01 60.62 60.92 60.28 56.87 58.96 59.27 55.63 53.89 51.40 54.77 52.99 49.22 50.78 50.97 51.12 50.53 51.80 48.36 48.42 52.24 53.37 53.05 54.36 56.97 61.19 64.32
58.36 57.82 57.43 57.83 58.15 58.31 58.43 57.82 57.74 56.80 54.96 53.70 54.30 54.31 50.27 61.86 63.28 61.84 62.48 61.02 62.46 62.17 60.25 60.75 60.14 56.54 53.18 54.07 52.37 49.96 49.80 45.27 50.26 51.33 51.86 51.11 45.29 50.31 52.94 52.44 51.52 53.42 56.14 57.69 61.24
58.16 57.71 57.24 57.18 57.14 57.16 57.28 56.50 55.51 54.79 53.51 53.90 53.71 53.04 50.93 61.42 58.36 60.87 61.07 58.24 59.62 60.56 60.83 60.44 58.28 53.77 52.55 48.22 45.76 47.35 42.18 45.30 48.14 52.50 51.53 49.47 46.78 50.72 53.05 52.61 52.18 52.53 54.78 56.39 59.72
57.81 57.58 57.16 56.66 56.40 55.54 54.57 54.58 54.30 52.96 52.97 55.55 55.78 50.54 54.48 54.68 59.10 59.31 59.47 58.63 57.52 55.95 54.61 52.65 52.06 48.88 49.06 46.49 40.18 43.70 45.20 47.43 47.18 50.71 51.42 49.02 48.51 51.28 52.44 52.02 52.83 53.44 54.88 55.67 57.52
57.74 57.80 57.18 56.42 55.34 53.81 52.30 50.41 48.02 47.52 53.19 51.97 53.07 52.62 55.71 58.50 58.47 56.68 58.13 56.16 54.76 52.01 47.11 50.15 45.90 43.75 47.29 49.52 49.07 48.21 46.98 46.21 49.10 52.01 50.36 49.37 49.11 50.23 52.24 52.44 52.35 53.12 53.67 54.22 55.50
57.64 57.19 56.76 55.86 54.38 53.19 53.61 50.18 52.27 52.85 49.46 54.40 54.34 54.60 56.96 58.12 52.58 55.83 57.89 51.47 50.97 46.97 50.00 48.64 44.27 49.46 51.05 50.73 49.42 48.61 46.66 45.57 48.78 51.00 50.24 48.99 48.32 51.21 52.24 52.51 53.33 53.34 53.45 54.04 54.99
56.92 56.52 55.46 54.44 53.43 52.53 52.19 52.21 53.35 54.77 48.16 51.38 55.22 54.78 54.84 56.68 52.74 53.18 56.34 52.58 49.39 47.62 48.04 46.24 48.89 52.25 49.99 48.37 47.51 47.34 45.39 45.64 45.83 49.00 50.27 48.62 46.51 48.79 51.98 53.42 53.98 54.50 55.21 54.67 54.82
56.16 54.94 53.44 52.35 50.60 51.63 50.06 52.28 52.86 52.96 41.22 44.43 50.15 53.66 56.01 55.40 50.80 56.54 57.02 54.36 50.61 46.70 48.36 47.90 50.91 49.29 48.04 46.92 48.08 44.07 49.82 48.90 46.98 45.31 40.99 48.53 38.78 46.43 49.85 51.09 52.74 54.09 54.79 55.16 54.88
54.18 53.25 51.88 53.64 51.30 49.26 52.01 53.38 52.48 52.25 31.85 48.27 49.97 55.57 54.72 51.22 51.22 50.80 56.38 53.66 47.53 48.18 48.50 45.89 47.93 47.50 46.45 47.03 49.39 46.25 50.03 48.43 46.82 43.85 43.62 43.81 41.05 45.00 49.91 48.58 49.06 50.69 52.01 53.20 54.22
53.19 52.54 52.29 52.89 54.16 53.97 53.65 52.85 51.68 36.68 30.80 45.21 47.88 46.24 47.51 49.57 49.54 50.40 49.76 52.92 52.71 48.15 48.79 48.03 51.79 49.75 48.52 49.10 48.28 48.43 46.52 46.28 45.65 43.42 36.82 42.15 41.61 42.38 45.41 46.53 48.57 50.58 52.12 53.58 54.19
52.76 52.87 52.71 55.13 51.33 55.49 54.65 49.53 35.39 32.53 46.67 43.02 43.09 45.64 45.73 44.81 46.11 47.16 45.80 44.43 43.49 38.95 40.31 45.28 46.40 50.09 50.57 45.77 47.93 45.51 42.28 35.18 33.35 33.97 33.48 44.00 41.37 44.19 47.41 49.13 49.67 49.91 51.33 52.89 54.06
52.25 52.35 52.17 54.01 55.59 54.72 50.48 41.77 31.67 40.15 42.42 45.18 46.11 45.34 42.39 45.72 44.88 45.34 44.25 42.53 45.94 44.85 41.46 39.32 38.66 46.21 49.75 47.17 44.64 43.86 42.46 35.87 29.30 31.32 35.43 43.49 38.34 43.07 49.06 50.63 51.38 51.31 51.80 52.21 52.88
52.17 51.61 51.27 53.11 55.89 52.46 45.26 32.57 36.07 41.61 45.04 42.76 43.08 41.31 41.59 44.57 44.24 44.29 42.86 43.06 45.84 46.37 39.54 38.93 39.07 47.47 47.50 48.42 48.36 44.10 39.21 45.38 38.69 39.25 34.43 38.25 42.98 47.02 47.38 47.88 49.71 49.73 49.62 49.03 50.36
48.87 46.39 47.11 48.68 54.30 50.67 40.49 36.21 41.16 46.11 43.75 45.58 38.65 41.90 39.05 41.49 40.35 41.45 41.92 44.92 44.46 45.83 47.29 42.86 36.63 44.35 45.03 46.10 46.67 45.10 45.93 38.28 39.08 29.81 28.17 35.31 37.72 38.98 41.66 44.33 46.99 48.34 47.66 47.40 49.80
46.24 41.04 43.45 48.79 53.41 44.87 33.12 37.97 43.04 45.42 44.01 41.51 41.54 40.43 40.96 40.84 41.48 40.57 41.02 44.02 45.69 44.53 46.11 44.49 41.35 40.67 44.26 40.75 39.94 41.18 39.60 40.50 40.63 37.73 30.27 29.10 34.72 42.68 42.03 44.44 45.61 48.54 47.40 47.00 49.36
42.93 32.75 43.30 46.26 38.29 32.93 35.62 40.30 43.92 42.54 43.88 42.38 42.26 41.59 41.13 41.43 40.51 40.24 40.21 42.46 46.99 45.77 41.11 43.92 41.05 36.06 39.22 44.47 45.28 43.87 40.85 40.31 33.79 32.54 36.20 34.45 33.95 47.09 46.85 46.92 45.79 45.02 45.44 46.36 49.69
37.47 35.80 43.46 44.56 32.39 32.57 38.10 40.33 42.99 42.11 41.48 40.66 39.91 42.34 43.16 40.49 37.79 40.94 41.03 44.72 44.99 43.46 40.33 42.68 37.15 31.28 33.71 38.84 42.37 39.15 40.49 40.38 40.44 39.75 33.24 29.84 33.03 45.56 44.94 44.92 45.46 44.60 44.99 45.78 47.62
41.35 32.21 34.32 35.86 34.84 36.84 35.26 36.58 37.13 42.84 41.62 41.93 40.69 42.11 40.71 39.07 41.47 37.87 39.15 42.66 43.93 43.11 41.87 42.37 37.81 34.17 29.34 33.54 36.29 33.71 36.54 38.12 36.79 32.24 32.98 33.52 35.18 39.99 41.83 42.32 44.15 44.40 44.96 45.59 46.90
43.11 36.81 38.57 31.30 32.39 35.63 36.94 36.92 35.84 35.77 40.55 41.89 39.72 39.90 38.51 35.53 37.17 36.94 39.37 39.40 41.91 41.32 41.55 39.42 33.17 34.86 35.31 36.23 36.06 34.77 34.56 35.65 34.43 35.48 31.27 34.00 34.97 38.60 41.24 42.24 43.32 44.54 44.79 45.39 45.88
36.43 38.67 40.25 38.62 38.18 35.96 35.99 35.06 34.28 37.00 38.61 37.55 37.39 39.74 39.99 36.72 37.65 34.56 38.86 38.89 37.68 40.58 38.93 40.44 32.89 34.69 30.47 34.34 34.12 31.87 34.24 34.73 34.81 35.39 35.67 35.92 35.43 41.97 43.21 43.74 43.24 43.82 44.54 44.75 45.37
43.41 43.97 40.79 37.66 36.98 35.04 34.84 35.74 35.96 38.40 37.78 40.77 39.70 37.81 37.53 38.61 41.84 41.03 40.79 40.83 40.82 38.20 37.16 36.75 34.16 30.90 26.18 32.60 32.41 27.80 32.68 34.50 35.40 36.87 36.51 31.51 37.82 42.13 41.55 42.68 43.60 44.32 44.94 44.99 46.14